GFSMW_sfc_30mbdewp_000.txt.gz
Dewpoint
40 41 41 41 40 41 41 43 46 50 53 56 56 56 57 58 58 59 59 59 58 58 56 55 55 55 55 55 55 55 54 54 54 53 53 53 53 53 53 52 52 52 51
39 40 40 40 40 40 40 41 42 45 52 55 57 57 58 57 55 52 50 51 51 52 53 54 55 56 57 57 56 56 55 56 56 54 54 52 53 53 54 53 53 53 53
38 39 40 40 41 40 41 41 41 41 42 46 49 49 49 47 46 46 44 45 45 43 43 44 45 47 51 52 54 56 56 55 56 56 54 51 50 53 54 52 53 53 53
40 40 40 40 40 41 41 41 42 42 42 42 42 42 42 42 43 43 43 42 43 43 41 41 41 42 43 43 45 45 49 51 52 54 55 56 55 52 51 53 53 53 52
39 40 40 40 41 41 41 41 42 42 42 42 42 42 41 42 42 41 39 40 40 41 40 40 40 40 41 42 43 43 44 45 47 48 51 51 51 52 50 47 48 50 52
40 40 40 40 40 41 41 41 42 42 42 41 41 41 39 38 37 38 37 38 38 38 37 38 39 39 40 41 43 43 43 44 45 46 45 46 46 46 47 46 46 47 49
39 39 39 39 39 40 41 41 41 41 41 40 39 38 38 37 36 36 35 33 33 34 33 34 35 36 37 39 41 42 42 42 43 43 44 46 45 47 46 45 44 44 45
38 39 39 38 39 40 40 40 39 38 39 38 37 35 35 34 33 32 31 31 31 32 30 31 32 34 34 36 34 35 38 39 41 41 43 44 42 42 42 44 45 42 42
38 39 38 38 40 40 39 38 36 36 36 36 34 31 29 28 26 27 27 26 26 24 26 27 27 28 28 27 28 33 33 34 37 41 37 38 39 40 42 46 45 43 39
37 38 38 39 40 39 37 35 34 34 33 33 30 27 24 23 22 21 19 20 21 21 22 22 22 21 19 22 23 32 25 28 36 28 30 36 36 38 44 44 43 41 40
37 38 38 40 39 36 34 32 31 31 29 30 25 20 17 18 18 17 18 17 18 19 19 18 19 18 17 18 21 26 20 26 28 24 26 30 33 40 36 39 36 34 38
37 38 38 39 36 33 30 28 28 27 27 26 19 15 14 15 13 13 15 16 15 16 16 15 17 15 15 17 20 17 17 25 23 24 29 32 34 30 33 33 29 33 36
37 38 39 38 35 31 27 25 24 23 23 19 13 11 11 11 10 11 12 13 14 14 13 14 14 14 14 16 14 15 19 21 23 26 22 18 25 23 24 24 27 34 34
37 39 39 37 33 29 25 23 22 20 19 13 10 9 10 10 9 11 12 12 13 13 12 12 12 13 14 14 12 18 20 23 26 21 17 16 18 22 24 23 25 31 32
36 39 39 35 31 27 24 22 20 15 15 9 9 10 11 11 11 11 12 12 13 12 12 11 12 12 14 10 18 20 21 22 22 19 18 20 23 23 23 25 26 28 28
35 39 38 34 30 26 24 21 17 9 10 9 9 10 11 11 11 12 11 11 11 11 12 11 12 13 12 15 19 21 21 20 19 20 20 21 23 23 25 25 25 25 25
34 39 36 32 27 24 23 18 11 8 8 8 8 10 11 12 12 12 11 11 11 12 12 12 12 12 12 16 20 21 21 20 21 21 22 22 23 25 27 26 25 26 26
36 38 33 29 25 23 19 13 8 7 6 7 8 11 12 12 12 12 11 11 12 12 12 12 13 13 13 17 19 21 22 22 22 22 23 24 28 27 24 24 28 31 25
37 35 31 26 22 18 11 6 6 5 6 8 9 11 12 12 12 11 11 12 12 13 13 13 13 13 14 17 20 22 21 21 22 22 24 29 27 24 24 28 27 23 28
34 30 27 22 16 9 6 5 5 5 6 9 10 12 13 13 12 12 12 13 14 13 14 14 14 15 15 17 21 21 21 21 22 23 29 26 22 23 25 21 22 24 21
29 26 22 18 11 7 7 6 5 5 9 11 12 12 12 12 13 13 13 14 15 15 14 14 14 15 17 19 21 21 21 21 24 29 22 21 24 29 20 19 21 20 21
27 24 19 13 9 9 8 6 5 9 10 11 12 12 12 12 13 14 15 16 15 15 14 14 15 17 19 20 21 21 21 22 25 22 20 24 29 19 18 20 19 20 21
25 21 17 11 7 9 8 5 8 10 11 11 11 11 12 12 13 14 15 15 15 14 14 14 16 19 20 21 21 22 23 24 21 21 26 25 19 16 19 18 18 19 20
22 17 11 7 7 9 9 9 10 11 11 10 10 11 12 14 14 15 15 16 15 15 15 17 19 20 20 21 21 23 25 23 22 29 28 19 16 17 18 18 18 18 20
18 13 10 8 7 9 9 10 10 11 10 11 11 12 13 14 15 15 16 15 15 17 18 18 19 20 21 20 20 22 20 22 25 19 17 16 17 17 17 17 17 18 19
15 11 8 7 7 9 9 10 10 11 11 11 11 12 14 15 16 15 15 17 18 18 18 18 19 19 19 20 21 19 22 23 15 13 14 18 18 16 16 17 17 17 18

GFSMW_sfc_30mbdewp_003.txt.gz
Dewpoint
40 41 41 41 41 42 42 44 50 53 56 57 57 57 55 51 49 46 45 44 44 44 45 46 45 46 48 49 50 53 53 53 55 55 54 54 54 55 55 55 54 54 53
39 40 41 41 41 41 41 42 43 46 54 57 57 57 50 48 46 45 44 43 41 40 39 40 40 41 42 41 43 44 44 45 47 51 52 50 49 51 55 55 55 55 55
39 40 40 41 41 41 42 42 43 43 44 45 45 45 45 45 44 43 41 41 40 38 37 38 38 39 40 40 42 42 43 42 42 45 45 45 43 47 45 50 53 55 54
40 40 40 41 41 42 43 43 43 43 44 44 44 43 42 40 41 40 39 37 37 36 34 35 36 36 37 38 39 39 41 41 41 43 41 45 46 42 41 40 45 47 51
40 40 41 41 41 42 42 43 43 43 43 42 42 40 39 39 38 36 34 34 33 33 29 31 32 32 34 36 38 38 39 41 41 41 42 43 44 43 43 42 41 44 43
40 40 41 41 41 42 43 42 41 40 40 40 39 38 36 33 31 31 28 27 27 28 24 26 26 27 29 30 32 34 37 38 39 40 42 42 43 42 41 41 40 40 41
39 39 40 40 41 41 41 41 40 38 37 36 35 34 32 30 26 24 21 19 17 21 20 22 21 23 24 24 25 29 34 33 35 38 41 40 36 35 37 38 39 39 41
39 39 39 40 41 40 40 39 38 37 35 32 29 27 26 23 20 19 17 16 16 18 18 19 19 19 18 16 19 23 31 24 30 37 33 32 28 31 34 38 40 38 37
39 39 39 40 40 39 37 36 35 34 34 29 23 20 18 16 15 15 15 15 14 12 15 17 17 17 15 15 16 18 22 21 20 30 26 27 28 34 37 40 41 36 35
38 38 38 40 39 36 35 34 33 32 29 24 19 15 13 13 12 12 11 12 12 14 14 14 14 15 13 13 14 16 18 16 20 23 24 27 30 33 37 33 34 34 31
38 38 39 40 36 33 32 31 30 29 26 19 14 11 11 10 9 9 10 11 12 13 12 12 12 12 11 11 13 13 12 16 21 23 24 26 25 22 25 29 28 27 25
38 38 40 37 32 29 28 28 27 26 23 15 10 9 9 8 7 8 9 10 10 12 12 11 11 10 11 12 12 11 15 18 20 21 25 22 18 18 20 23 24 25 26
38 38 39 34 30 27 25 24 22 22 17 11 8 8 8 7 7 8 10 10 10 11 10 10 10 10 10 11 12 13 17 19 20 20 21 19 18 19 21 23 24 27 26
38 38 38 34 30 26 23 21 19 19 12 9 8 8 8 9 10 10 10 11 11 11 10 10 9 10 11 12 11 18 19 19 19 19 19 19 19 19 23 24 25 25 25
37 38 37 33 29 25 23 20 16 14 11 8 8 9 11 12 11 11 12 11 11 11 10 10 10 11 11 7 17 19 20 20 19 20 19 20 21 23 23 24 26 25 26
37 39 37 32 28 25 23 20 14 9 10 8 8 11 11 12 12 12 11 11 11 10 11 10 10 11 9 14 19 21 21 20 20 20 21 20 22 23 25 25 25 25 26
36 39 37 32 28 25 22 18 9 8 8 8 10 11 12 12 12 12 11 11 11 11 10 9 9 10 10 15 20 21 22 21 20 20 20 21 21 24 28 27 24 30 25
35 39 35 30 25 24 19 12 8 7 7 8 9 11 13 12 12 12 11 11 11 11 11 10 10 11 11 16 20 22 21 21 19 19 20 21 24 27 23 24 31 22 20
37 37 32 26 23 19 13 7 6 6 6 8 10 12 12 12 12 10 11 11 12 12 11 11 11 11 12 16 20 22 21 19 19 20 21 26 25 21 23 31 21 20 21
35 32 27 22 17 10 6 5 5 4 6 9 11 12 13 12 11 11 11 12 13 12 13 12 12 12 13 16 21 21 20 19 20 22 26 23 20 22 29 20 19 20 20
30 26 22 18 11 7 7 6 5 4 9 11 12 12 12 11 11 12 13 13 13 13 13 12 12 13 15 18 20 20 20 21 24 27 23 20 22 32 22 18 18 19 20
27 22 17 12 9 9 7 5 3 9 11 11 11 10 10 11 11 13 14 14 14 13 13 12 13 15 18 19 20 20 21 22 25 22 21 24 30 20 17 16 17 18 18
26 21 17 12 9 10 7 4 7 10 11 11 9 9 10 11 13 14 13 13 13 14 13 14 15 18 18 20 20 21 23 23 21 22 30 19 15 15 16 16 16 17 18
24 20 14 9 9 9 8 8 9 10 10 8 8 9 10 13 12 13 14 14 14 14 15 16 17 18 19 20 21 22 23 21 26 29 16 13 13 17 16 16 16 17 18
22 16 11 10 9 8 8 9 10 10 8 9 9 9 10 12 14 14 14 15 16 17 17 17 18 19 20 19 20 20 18 23 25 15 13 13 18 16 15 14 15 16 17
17 14 12 8 7 8 8 9 10 10 9 8 8 10 13 14 14 14 14 17 17 17 17 18 19 19 19 20 19 18 21 21 16 14 12 16 17 16 15 15 16 16 17

GFSMW_sfc_30mbdewp_006.txt.gz
Dewpoint
39 40 41 41 42 44 47 51 55 55 55 56 55 52 48 46 44 43 41 39 39 38 39 38 38 38 38 38 38 38 38 37 38 37 38 38 41 44 41 52 47 46 49
37 39 40 40 41 41 42 46 50 54 56 56 52 48 45 44 43 42 40 39 36 36 35 36 36 36 36 36 37 37 37 35 36 36 36 33 36 35 38 39 38 39 41
37 38 39 40 41 42 42 43 45 46 45 45 45 45 45 43 41 39 37 36 34 31 32 32 31 31 32 32 32 32 33 32 31 34 33 32 32 37 36 37 36 38 38
38 39 39 40 42 44 44 44 43 44 44 44 43 42 40 38 37 35 35 32 31 26 24 25 26 25 26 26 27 26 29 30 29 30 31 33 33 34 35 34 35 34 37
38 39 40 41 42 44 44 43 42 41 41 41 39 37 36 35 33 31 29 27 26 23 19 19 20 20 20 22 23 22 25 27 26 25 29 31 32 32 33 32 28 29 28
39 40 41 41 42 44 43 41 39 39 38 37 36 35 32 29 28 25 21 18 16 17 16 16 16 17 18 18 19 20 25 26 22 24 26 29 29 28 25 23 24 26 26
39 39 40 40 41 42 42 39 37 35 35 33 31 30 28 24 20 16 13 11 9 12 13 15 14 14 14 14 16 17 23 23 21 23 27 26 21 21 18 19 26 27 31
38 39 40 41 42 41 40 38 36 34 31 28 25 22 21 18 13 12 10 8 8 9 12 13 13 12 12 12 12 13 15 16 17 16 21 23 19 20 22 26 30 32 31
38 39 40 41 41 39 37 36 35 33 28 24 20 16 13 11 10 9 9 9 9 7 9 11 10 11 11 11 11 10 11 13 14 15 19 20 20 22 24 23 25 24 26
38 39 40 40 39 37 36 35 33 29 25 20 15 11 8 7 6 6 7 8 7 8 9 9 9 9 9 8 9 10 10 10 12 14 16 19 18 21 18 17 17 19 21
38 38 39 40 37 35 34 32 30 27 21 15 11 8 6 5 5 4 5 6 7 8 8 8 8 7 6 7 7 7 7 10 12 14 14 16 17 18 16 16 17 17 19
38 38 39 39 35 33 31 29 28 25 19 12 7 6 6 6 4 4 6 6 6 7 8 8 7 6 6 7 6 7 8 11 12 13 14 15 14 15 15 16 17 19 20
38 38 39 37 33 31 29 27 25 21 14 9 6 5 6 5 5 6 7 6 7 8 7 7 6 6 7 7 7 6 10 12 14 14 15 15 15 15 16 17 18 20 21
38 38 39 36 32 29 26 23 21 18 11 7 6 6 7 8 8 9 8 8 8 8 8 7 7 8 8 8 5 11 14 15 15 16 17 17 16 17 19 19 20 22 24
37 38 38 36 32 28 25 22 18 15 8 6 6 9 10 10 10 9 9 9 10 9 9 8 8 8 9 3 13 16 17 17 17 18 17 17 18 20 21 21 24 24 23
36 38 38 36 32 28 24 21 16 11 8 5 7 10 9 10 10 10 9 9 9 9 10 9 8 8 6 10 16 20 20 19 18 17 16 16 17 17 21 23 24 23 25
37 38 38 36 31 27 24 21 13 8 6 6 7 9 9 10 10 9 8 8 9 10 10 9 8 7 7 11 18 21 21 19 17 16 15 15 16 21 23 22 21 27 28
36 39 39 35 30 26 23 15 9 7 6 6 7 8 9 9 9 8 7 8 9 9 9 9 8 8 8 12 17 22 20 17 16 16 16 16 20 22 19 21 30 25 20
36 38 37 33 27 24 19 11 8 6 5 6 7 8 8 8 6 6 7 8 9 10 9 8 8 8 8 13 18 21 18 16 16 16 17 21 22 18 20 31 28 22 18
37 35 32 28 25 19 12 11 7 4 4 6 7 9 9 8 6 7 8 9 10 9 8 8 8 9 10 14 19 20 18 17 18 19 21 21 18 21 28 21 19 20 17
33 30 27 24 20 11 10 9 4 3 7 8 9 8 7 6 6 8 10 10 10 9 8 7 8 10 14 16 18 20 19 19 22 24 23 20 25 25 17 16 17 18 18
29 26 23 18 13 11 9 6 4 6 8 9 8 6 6 6 8 11 11 11 8 7 6 7 10 13 14 16 18 20 20 22 23 21 21 28 20 16 14 17 17 16 17
27 24 21 16 13 10 7 4 5 8 8 7 6 5 5 6 9 9 10 9 8 7 8 10 12 13 14 15 17 18 21 21 19 20 30 18 15 13 15 15 15 15 16
28 24 21 18 13 10 8 6 8 8 8 5 4 4 6 9 9 9 8 9 8 9 11 13 13 15 15 16 17 21 22 19 21 28 20 14 13 13 14 14 14 15 16
28 24 21 17 13 10 7 8 8 8 6 5 4 6 7 9 9 8 8 11 12 15 17 16 17 17 17 18 20 20 18 21 24 18 15 12 12 14 14 14 14 15 16
27 22 18 16 10 7 7 8 9 8 7 5 5 7 10 9 7 7 9 12 15 17 17 18 19 18 19 19 19 18 20 23 17 15 12 13 15 15 15 14 15 16 17

GFSMW_sfc_30mbdewp_009.txt.gz
Dewpoint
38 40 41 42 44 48 51 53 53 54 55 56 53 50 47 45 43 42 40 38 37 36 37 36 36 36 36 36 35 34 34 34 34 33 35 34 36 33 37 34 35 37 39
36 39 39 39 40 43 47 50 53 55 53 50 49 47 45 43 42 40 37 35 32 32 32 32 31 31 32 31 30 30 30 29 30 29 30 28 29 30 32 33 35 33 38
35 37 39 40 40 42 44 46 46 47 47 47 47 45 44 42 39 37 35 33 29 25 25 25 24 24 26 26 26 25 27 28 28 27 25 24 24 29 31 30 31 29 28
35 37 38 40 42 44 44 43 44 44 44 44 43 41 39 36 35 34 32 30 28 22 19 18 20 20 21 21 23 20 24 26 24 25 22 24 24 26 25 25 27 25 22
36 38 39 41 43 44 43 42 41 41 40 39 37 36 35 34 32 30 27 24 22 20 17 16 17 17 19 19 20 21 22 25 23 20 22 22 25 25 21 19 20 20 20
37 39 40 42 43 44 42 40 38 37 37 36 35 34 32 30 29 25 21 18 16 16 15 15 15 15 16 17 18 19 21 23 23 22 21 19 20 21 19 18 19 20 24
38 39 40 40 42 42 40 37 36 35 34 32 31 30 29 26 22 19 16 13 11 12 13 14 13 13 14 15 15 17 18 17 19 20 19 18 20 21 19 19 21 23 26
38 38 39 40 42 41 38 36 34 32 30 28 26 25 23 20 17 14 13 10 9 9 10 12 11 10 11 11 12 14 15 15 16 18 19 18 20 19 20 20 22 23 21
38 38 40 41 41 40 38 36 34 31 28 25 22 19 16 15 13 11 10 10 8 6 8 10 9 9 9 9 10 11 12 12 13 15 17 17 17 20 20 22 22 19 18
38 38 40 40 40 38 37 36 34 30 26 21 18 15 11 9 8 8 8 7 7 7 9 8 7 7 7 8 9 10 11 10 11 13 15 16 16 17 19 19 19 19 18
37 38 39 40 39 37 36 34 31 27 22 19 15 13 9 7 7 6 6 6 6 6 7 6 6 6 6 7 8 8 9 9 11 13 14 15 16 16 17 18 18 19 19
37 38 39 40 37 36 35 32 31 26 21 16 12 10 10 8 7 7 6 5 5 6 6 6 6 6 7 8 8 8 8 8 11 13 15 15 15 17 19 18 18 19 19
37 37 39 39 36 35 33 31 29 24 17 13 11 10 10 10 8 7 7 6 6 6 7 7 8 7 9 9 9 8 7 11 13 15 16 16 17 18 18 18 19 20 21
37 37 38 38 36 34 32 29 26 21 16 11 10 10 10 9 9 9 9 8 7 8 9 9 9 10 10 10 10 8 13 15 17 18 18 18 17 17 18 19 21 22 25
36 37 38 37 35 33 30 26 23 18 14 10 10 11 11 10 10 10 9 9 9 10 10 10 11 11 11 9 12 15 17 19 19 18 18 17 18 18 18 18 22 24 25
36 37 38 38 35 32 28 25 21 17 12 9 9 10 10 10 9 10 9 8 9 10 10 11 12 14 11 10 13 17 19 20 19 18 17 16 17 16 17 21 21 22 23
35 37 38 38 35 32 28 24 19 13 10 9 8 8 9 8 8 8 7 8 9 9 11 11 11 10 9 11 14 17 20 20 19 17 16 16 15 18 22 23 22 25 25
36 37 38 38 34 30 27 22 14 12 11 9 7 8 7 7 7 6 7 7 8 9 10 11 10 9 9 10 14 18 20 19 18 16 16 17 19 22 22 22 29 30 26
36 38 39 36 32 27 23 16 14 11 9 7 7 6 6 6 6 5 6 8 9 10 10 9 9 8 7 10 15 19 19 19 17 17 18 19 21 20 26 26 25 17 16
37 38 36 32 29 25 19 16 13 10 5 6 6 7 7 6 5 5 7 10 11 10 9 8 7 6 8 12 17 19 19 19 19 20 23 21 19 24 25 21 16 17 19
35 33 31 29 25 19 16 16 9 5 6 8 7 6 6 5 5 7 10 12 11 10 8 6 6 7 11 14 16 18 19 20 21 24 21 20 21 25 19 16 16 18 20
31 30 28 23 17 16 16 10 7 7 7 7 6 6 5 4 7 11 14 12 10 8 6 6 7 11 13 14 16 18 19 20 21 20 19 23 27 16 15 15 15 16 17
29 27 24 19 16 14 13 8 7 7 7 6 5 4 4 6 8 11 11 10 8 7 7 8 10 13 15 16 17 18 19 20 18 19 22 25 16 14 14 14 15 15 16
28 26 23 20 16 12 9 6 7 7 6 5 4 3 5 8 9 10 9 8 7 9 10 13 15 17 18 18 18 19 22 19 21 25 23 16 14 13 14 15 15 15 16
30 27 25 22 17 13 9 7 8 7 6 4 3 4 7 9 10 9 8 8 9 12 15 17 18 18 18 18 19 20 18 20 24 19 16 14 14 14 15 14 15 15 16
30 27 25 20 17 12 7 7 8 7 6 4 5 7 9 10 9 8 9 10 11 13 14 15 16 17 18 18 19 17 18 22 17 15 14 14 15 15 15 15 15 16 17

GFSMW_sfc_30mbdewp_012.txt.gz
Dewpoint
39 41 43 46 50 52 53 54 55 55 56 57 51 48 45 43 42 39 36 34 33 35 33 34 33 32 33 32 30 30 30 30 30 31 27 30 29 28 27 26 32 32 31
39 40 41 42 47 50 53 55 54 52 51 50 49 47 44 43 40 38 35 29 27 27 26 26 27 26 29 27 27 27 28 29 29 26 26 24 24 25 26 29 29 29 27
38 39 40 42 44 46 47 48 49 49 48 47 46 44 44 42 39 37 33 29 23 21 21 23 23 23 26 24 24 24 25 27 27 26 23 23 22 23 26 26 27 20 23
37 39 40 41 44 45 46 46 46 47 47 47 45 43 38 36 36 33 32 28 23 19 19 20 21 21 23 22 22 22 23 26 25 26 23 23 23 21 22 24 20 22 19
37 39 41 44 45 45 44 43 42 41 41 39 38 37 35 34 32 29 25 23 22 19 18 19 19 19 20 20 20 20 21 23 24 24 23 22 22 20 19 20 18 19 19
38 40 43 44 45 44 42 40 38 38 37 36 35 35 33 31 26 23 20 18 19 19 17 17 16 17 18 18 19 18 19 19 20 21 20 21 18 18 19 19 18 18 19
38 41 42 43 44 42 40 38 37 34 34 33 31 29 27 23 19 18 15 13 13 15 14 15 14 14 15 16 15 16 16 17 17 19 17 21 19 18 20 18 19 19 19
39 40 42 43 43 41 38 36 33 31 29 27 25 24 22 19 17 14 14 12 11 10 12 13 13 12 12 13 13 14 15 14 16 15 16 17 18 19 19 17 20 18 18
39 40 41 43 42 39 37 35 31 29 26 23 20 17 15 14 13 12 12 12 10 8 10 12 10 10 10 10 11 12 12 13 13 13 15 15 17 17 19 20 19 19 17
39 39 41 42 41 39 37 34 30 27 24 20 17 13 10 9 9 10 8 8 8 9 9 9 9 9 9 9 9 11 12 11 12 12 13 14 16 17 18 19 19 19 18
38 40 41 41 40 38 37 33 29 24 21 18 15 12 10 9 9 8 8 7 7 7 8 8 8 8 9 9 10 10 10 10 10 11 12 15 16 16 18 18 20 19 19
38 40 40 40 38 37 35 32 28 23 20 15 12 11 11 10 9 8 8 7 7 7 8 9 9 10 10 11 11 10 11 10 12 13 16 16 17 18 18 20 19 20 19
38 39 40 39 37 37 34 32 28 22 17 13 12 12 12 11 10 9 9 9 9 8 9 10 10 11 12 12 12 12 11 14 16 17 19 19 19 18 19 18 18 18 20
38 38 40 38 37 35 33 30 25 19 15 12 12 12 11 11 10 10 11 10 10 10 11 12 12 12 13 13 13 13 15 16 18 20 20 20 19 19 19 18 19 19 22
38 38 39 38 36 34 31 28 23 18 13 12 13 12 12 11 11 11 12 11 11 12 12 12 12 13 14 13 13 15 16 17 19 20 20 20 20 19 18 18 20 22 21
38 38 39 38 35 32 29 25 21 15 12 11 11 12 11 10 10 11 10 10 11 11 11 11 12 13 12 13 14 16 16 18 19 20 20 19 18 18 19 20 20 21 26
37 38 39 38 34 31 27 23 19 13 11 11 10 9 10 9 9 9 8 9 9 10 10 11 11 11 10 12 14 15 16 19 20 19 19 17 17 19 20 22 26 32 29
37 38 39 37 33 29 25 20 14 12 12 10 9 9 8 7 8 7 8 8 9 10 11 12 11 10 9 11 12 15 18 19 20 20 19 19 19 21 23 25 28 28 21
38 39 38 33 29 26 18 14 13 12 10 9 7 7 7 7 7 7 7 8 10 12 12 10 9 8 7 11 13 17 18 18 19 20 20 22 22 21 21 25 28 20 20
38 36 33 30 27 20 16 15 12 10 7 7 7 7 7 7 6 6 7 10 13 13 11 10 8 9 7 13 15 17 17 18 20 21 24 23 20 19 25 24 18 21 15
33 32 30 28 23 19 17 14 9 6 8 8 7 7 7 6 5 7 10 13 13 11 10 8 7 8 11 14 17 18 19 19 20 26 22 19 20 28 23 18 17 16 19
31 30 25 20 17 17 14 9 7 8 8 8 7 7 6 5 6 11 13 13 12 9 8 8 9 11 15 18 19 20 19 20 23 21 19 21 25 18 17 16 15 17 16
29 25 19 17 16 15 12 8 8 7 7 6 6 5 5 5 9 10 11 11 9 8 8 9 12 15 18 18 19 19 20 22 20 20 23 27 18 16 14 15 15 15 15
27 23 19 17 14 11 9 8 8 7 6 5 5 4 4 9 10 11 11 9 8 9 10 12 15 16 17 17 18 19 21 20 22 24 27 18 15 14 15 15 15 15 16
27 24 21 18 14 12 8 8 8 7 6 5 4 6 9 10 11 11 10 10 11 12 14 14 15 15 16 17 18 19 17 19 22 21 17 13 14 15 15 15 15 16 17
28 27 25 18 15 11 8 8 8 8 7 6 7 9 11 12 12 10 10 13 13 14 14 14 15 15 16 17 17 17 18 20 18 16 14 15 15 15 15 15 17 18 19

GFSMW_sfc_30mbdewp_015.txt.gz
Dewpoint
40 42 44 49 51 53 54 55 56 56 52 49 46 43 41 38 36 32 30 29 30 27 27 28 26 30 28 27 27 26 27 27 29 29 21 27 27 25 19 22 27 26 27
40 42 45 49 51 53 54 53 53 53 50 48 46 44 40 38 35 31 25 23 22 23 23 24 23 25 25 24 24 24 24 29 28 25 25 20 20 20 20 24 19 25 19
39 40 43 46 48 49 49 50 49 48 47 45 43 42 41 38 35 31 26 21 20 20 21 22 21 24 24 21 22 22 22 25 27 25 22 19 19 19 24 16 22 15 20
39 40 43 45 46 46 48 48 47 46 45 44 43 41 38 35 35 32 27 23 19 18 20 20 20 21 22 19 20 21 21 21 20 22 25 23 22 19 18 22 16 21 19
39 40 42 44 45 44 44 43 44 44 44 43 41 37 35 34 32 27 25 21 18 17 19 18 19 18 19 18 18 18 17 19 20 20 21 20 20 21 18 16 17 19 19
39 42 44 45 43 42 40 39 38 38 38 38 36 34 31 27 24 20 19 19 20 17 16 15 15 16 17 17 17 17 15 15 18 17 19 17 15 18 16 14 15 18 16
41 43 44 43 42 40 38 36 35 33 32 31 29 28 24 21 18 16 13 13 13 12 13 14 13 13 13 14 14 14 13 14 14 15 16 16 17 19 15 18 16 15 17
42 43 43 43 41 39 37 34 32 30 28 26 24 22 19 17 15 14 12 12 10 10 12 12 11 10 11 11 11 13 13 13 13 12 12 14 18 17 18 17 18 18 15
41 42 43 42 41 38 35 32 30 27 24 21 18 16 15 14 12 11 12 11 10 9 9 10 9 9 9 10 10 11 11 12 12 13 14 15 14 15 18 20 20 18 18
41 42 43 42 40 37 34 31 28 25 21 17 13 11 10 11 10 9 8 7 8 8 8 8 9 9 9 10 10 12 12 11 12 12 13 14 15 17 18 19 21 20 19
40 41 42 42 39 37 32 29 26 22 18 14 11 10 9 9 9 8 7 7 7 8 8 8 9 10 10 11 11 12 11 11 12 14 15 17 18 18 19 20 20 20 21
40 41 42 40 38 36 32 28 24 20 18 14 12 11 11 10 9 8 8 8 8 8 9 10 11 11 12 12 12 12 12 12 14 16 18 18 19 20 20 20 20 20 19
40 41 40 38 37 35 31 27 23 19 15 13 12 12 11 10 10 9 10 10 10 10 11 11 12 12 13 14 14 14 13 14 16 18 19 20 20 20 21 20 20 19 19
39 40 39 38 37 35 32 28 21 16 13 13 13 11 11 11 10 11 12 11 11 10 11 12 12 13 14 15 15 14 15 16 17 19 20 20 21 21 21 19 19 20 21
39 40 39 37 37 34 32 26 19 14 13 13 13 12 12 11 11 12 12 11 11 11 12 12 12 14 14 11 15 15 17 17 18 19 20 20 21 20 20 19 19 20 22
38 39 38 37 36 33 29 21 17 13 13 13 12 12 11 10 11 10 10 9 10 11 11 11 12 13 12 14 15 16 16 16 18 19 19 20 20 19 20 21 22 23 24
38 39 38 37 34 31 25 19 15 13 12 11 11 11 10 9 9 9 8 8 8 9 10 12 12 11 11 13 14 15 16 17 19 19 20 20 19 21 22 23 23 27 29
38 39 38 35 31 26 22 16 13 12 11 10 10 10 8 7 7 7 7 7 8 11 12 12 11 10 10 13 13 16 17 18 19 19 20 20 21 24 21 20 24 29 26
39 39 36 31 27 22 16 14 13 12 11 9 8 7 7 7 7 7 6 7 10 13 13 12 11 10 9 13 16 18 18 18 18 20 21 24 23 21 19 24 28 25 23
35 32 28 24 20 15 14 13 11 11 9 7 7 7 7 7 6 6 6 10 13 13 12 11 10 10 9 16 18 20 19 19 19 22 25 23 19 18 26 24 21 19 16
30 28 25 20 17 15 14 12 10 8 8 8 7 7 7 6 5 7 11 13 13 12 11 9 9 10 13 17 19 20 20 19 23 25 21 20 20 29 19 18 15 16 20
29 26 23 19 17 16 12 8 7 8 8 8 7 7 6 5 7 11 11 12 12 10 8 9 10 12 15 18 19 20 20 22 22 21 20 22 28 17 16 16 16 17 17
25 21 19 17 17 12 10 8 8 8 8 6 6 5 4 6 10 10 11 12 10 9 10 10 11 15 16 17 19 20 21 21 19 22 24 24 17 15 15 16 16 16 16
22 19 17 15 12 11 9 9 8 8 6 5 4 4 7 12 10 12 11 11 11 11 12 14 15 15 16 16 17 18 19 18 23 25 20 16 14 15 15 15 15 16 18
21 19 17 14 10 8 8 8 7 7 6 4 5 8 10 11 12 12 11 13 13 15 15 15 15 15 15 16 17 18 17 20 22 18 15 13 14 15 15 15 15 17 18
23 21 18 14 12 8 8 8 8 8 6 5 8 10 12 12 12 12 12 15 14 15 15 15 15 16 16 17 17 17 20 19 17 16 13 14 16 15 15 15 17 18 18

GFSMW_sfc_30mbdewp_018.txt.gz
Dewpoint
40 41 43 47 51 53 53 53 55 49 48 45 43 41 37 34 31 30 28 27 26 26 25 25 27 27 25 24 24 24 23 27 27 25 22 24 26 19 14 21 18 25 18
40 42 47 50 52 53 55 56 53 50 48 46 43 39 36 34 29 25 22 22 22 23 23 23 24 25 22 21 22 22 21 26 27 21 26 18 20 20 14 21 18 18 16
40 43 48 50 52 52 53 53 50 48 46 43 39 37 35 32 27 24 21 20 20 21 21 21 22 22 22 19 21 21 20 19 23 24 17 13 15 17 21 15 19 16 19
41 43 48 49 50 50 50 49 48 46 43 41 38 35 33 31 32 27 22 19 18 19 19 20 20 20 20 18 19 20 19 19 18 22 21 22 20 14 14 20 17 18 15
40 43 46 48 48 48 48 47 46 45 44 42 39 37 34 34 32 25 20 17 17 18 17 17 17 17 19 18 17 17 15 18 18 18 20 20 19 18 18 15 13 13 16
40 43 45 45 45 44 44 44 44 43 42 40 38 35 32 29 26 23 20 19 18 16 15 15 15 15 15 16 16 15 14 14 15 15 17 16 14 12 16 13 11 12 15
41 43 44 43 41 41 40 40 40 39 38 36 34 31 27 22 18 17 16 14 13 12 12 13 12 12 12 13 13 13 13 14 13 13 13 15 15 18 17 13 12 13 16
42 43 43 42 40 38 36 35 35 33 32 30 26 22 20 18 16 14 13 12 10 11 12 11 10 10 10 11 11 13 13 13 13 12 13 15 16 16 16 15 16 16 15
42 43 42 41 39 37 34 33 30 27 25 23 19 17 16 14 13 12 11 10 11 10 9 9 9 9 10 11 11 12 12 13 13 13 15 14 15 17 17 18 20 19 18
42 43 42 40 38 36 33 30 27 24 20 17 15 13 12 11 10 9 8 8 8 8 8 9 9 10 11 11 11 13 13 12 13 14 14 15 17 19 19 20 21 21 20
42 43 42 40 37 34 31 28 25 20 16 13 11 10 10 9 9 8 7 7 8 8 8 9 10 11 12 12 12 13 13 12 13 14 16 18 19 19 20 21 22 21 21
42 42 42 39 36 33 30 26 22 18 14 11 10 10 10 9 8 8 9 9 8 9 10 11 12 12 13 13 14 13 14 13 13 16 18 19 19 19 21 21 21 21 21
41 42 41 38 36 32 29 24 20 17 13 12 11 11 10 10 10 9 10 10 10 10 11 12 12 13 14 14 14 15 15 15 16 17 18 19 19 20 21 21 21 21 21
41 41 40 38 36 32 27 23 19 15 13 13 12 11 11 10 10 11 11 11 11 11 12 12 12 13 14 14 14 16 16 17 17 18 19 20 20 20 21 21 20 21 20
40 40 39 38 35 31 27 22 17 14 14 13 12 12 12 11 12 11 11 11 11 11 11 11 12 14 14 11 17 17 17 17 17 18 19 20 20 22 21 21 21 21 24
40 40 39 37 35 32 27 20 15 14 14 13 13 13 12 11 11 10 9 9 9 9 11 12 13 13 12 15 17 18 17 17 17 18 19 19 21 21 22 22 22 22 21
40 39 38 37 35 31 23 18 14 14 14 13 13 12 11 10 9 8 8 7 7 10 12 13 12 11 11 15 17 19 19 18 18 18 19 19 20 23 24 24 21 22 27
39 39 38 36 33 27 20 15 13 13 13 12 11 11 10 8 8 7 7 6 9 11 13 12 12 11 10 16 19 21 20 20 19 19 20 20 23 23 20 20 26 28 24
40 39 37 32 26 21 16 13 13 12 12 11 10 8 7 7 7 6 6 7 10 12 13 12 11 9 11 15 19 21 20 20 20 20 21 25 22 20 21 28 24 21 18
36 33 29 25 21 16 14 13 12 11 10 9 8 8 8 6 5 5 6 10 12 13 12 10 9 12 10 14 19 20 20 20 20 22 26 23 20 21 26 19 17 16 16
28 25 23 20 16 15 14 12 11 10 9 9 8 7 7 6 5 7 11 12 12 11 10 10 10 11 12 16 19 20 20 20 23 25 21 20 23 22 17 17 16 17 20
24 22 20 17 15 14 12 10 9 9 8 8 7 7 5 5 9 11 12 12 11 10 11 11 12 13 14 18 19 20 20 22 19 20 21 25 22 17 16 17 18 19 18
23 20 18 16 13 12 10 9 8 8 8 7 6 4 5 10 11 12 12 11 11 12 12 13 14 15 16 17 19 20 20 19 20 23 23 21 17 15 15 16 17 17 16
20 18 17 14 11 10 10 9 8 8 6 5 3 6 9 13 12 12 11 13 13 13 15 15 15 16 16 16 17 18 18 20 23 22 19 16 14 15 16 15 15 16 17
19 17 14 12 10 10 9 8 8 7 5 4 6 9 11 12 12 12 13 15 15 16 16 16 16 16 16 16 18 17 18 20 19 17 14 13 14 15 15 15 15 16 17
19 16 13 10 9 9 8 8 8 6 4 5 8 12 13 13 12 13 13 16 16 16 16 16 16 16 17 17 17 18 19 18 17 15 13 14 15 15 15 15 16 17 17

GFSMW_sfc_30mbdewp_021.txt.gz
Dewpoint
37 40 42 44 47 50 50 48 55 51 47 44 43 41 37 34 31 29 27 26 25 24 24 26 25 24 22 22 21 21 21 23 26 22 20 23 26 21 16 22 17 19 16
38 40 42 47 51 52 53 53 51 48 47 45 42 38 34 30 27 24 23 22 22 22 22 24 23 22 19 19 20 19 18 20 25 20 24 14 14 19 13 18 19 17 17
37 39 44 49 52 53 54 52 50 48 45 41 37 33 29 25 23 21 20 20 21 21 21 21 21 20 20 18 20 19 17 16 19 24 12 7 11 18 18 11 19 14 19
38 40 46 49 52 52 53 50 48 45 42 39 36 33 31 26 26 22 19 19 19 19 20 20 19 19 19 17 17 18 17 18 16 20 18 20 20 13 13 18 13 17 14
39 41 46 49 51 51 51 48 46 43 41 39 36 34 32 29 26 20 17 16 17 17 17 17 17 17 18 17 15 15 13 17 16 16 18 19 17 19 18 11 15 13 11
39 43 48 49 48 48 48 46 45 43 41 39 37 34 31 27 22 19 17 16 16 16 15 14 14 14 15 14 15 14 13 13 14 14 14 14 13 13 15 13 12 11 11
41 44 47 47 46 46 46 45 44 42 40 37 35 32 29 25 22 20 19 15 12 12 12 12 11 11 12 12 13 13 12 13 12 13 13 15 16 17 17 14 14 13 14
41 44 47 46 45 44 43 42 42 39 36 34 31 27 24 22 20 18 15 12 11 11 11 10 9 9 10 11 11 13 13 13 13 12 13 15 15 16 16 17 17 16 14
41 44 45 43 42 41 39 39 38 34 31 28 24 21 18 16 14 12 12 11 11 10 9 9 9 10 11 11 11 12 13 13 13 14 14 14 16 18 19 20 20 19 18
42 44 43 41 39 36 35 33 32 30 25 21 18 16 14 12 12 11 9 9 8 8 8 9 10 11 12 12 12 13 14 14 14 14 14 15 17 19 20 21 21 21 21
42 42 41 39 36 34 31 28 26 22 18 16 14 12 10 10 9 8 8 7 8 8 9 10 11 12 12 13 13 13 14 14 14 14 15 17 19 20 20 20 22 22 22
42 41 40 37 34 32 29 25 21 18 15 12 11 10 10 9 8 8 8 9 8 10 10 12 12 12 13 14 14 13 14 15 15 15 17 17 18 19 20 21 21 22 22
42 40 38 36 33 30 27 23 18 15 12 11 11 10 10 9 9 9 10 10 10 11 12 12 12 13 14 14 14 14 15 16 16 17 17 18 19 20 20 20 21 22 23
41 40 38 36 33 29 25 21 17 13 12 12 11 10 10 10 10 11 11 11 11 11 11 12 13 14 14 13 13 17 18 18 18 18 18 19 20 20 21 22 21 24 21
41 40 38 36 32 28 24 19 15 13 13 12 12 12 12 11 12 11 11 11 11 10 11 13 13 14 13 10 18 20 19 18 18 18 19 19 21 21 21 20 20 20 22
41 40 38 36 32 27 22 17 15 14 14 13 13 13 12 12 11 10 9 9 8 10 13 13 12 12 11 16 20 21 21 19 19 19 19 20 20 21 22 22 21 21 21
40 40 38 36 32 27 21 16 14 15 14 14 14 13 11 10 9 8 7 6 8 11 12 12 12 10 11 16 19 21 22 20 20 20 20 20 20 22 24 24 22 27 28
40 39 38 36 31 24 19 15 15 14 14 14 13 12 10 8 8 7 5 7 9 11 12 12 11 10 10 18 19 21 21 20 20 20 20 20 21 25 21 23 29 21 19
40 39 38 33 27 22 16 14 14 14 14 12 11 9 8 7 6 5 6 8 11 12 12 11 10 10 12 17 19 21 20 20 20 20 21 22 24 21 22 26 19 18 18
38 36 31 27 22 17 15 14 13 13 12 11 9 8 7 6 5 5 9 11 12 12 11 10 11 13 13 16 20 21 20 20 20 23 25 24 20 21 25 18 17 17 16
31 28 26 23 17 15 14 13 12 11 11 9 8 7 6 5 6 10 12 12 11 11 11 12 13 13 14 17 20 20 20 20 21 18 20 21 23 22 19 18 17 17 22
24 22 20 17 14 14 13 12 11 10 9 9 8 6 5 8 11 12 12 12 11 11 12 14 14 15 16 18 19 20 20 20 18 21 22 22 22 18 17 17 18 19 18
21 19 17 14 13 13 12 11 9 9 8 7 5 4 9 11 12 12 11 12 13 13 14 15 15 16 16 17 19 20 20 19 21 22 20 20 17 16 16 17 18 17 16
19 16 15 13 12 11 11 9 9 8 6 4 4 9 14 12 12 12 12 14 14 14 16 16 16 16 16 17 18 19 19 21 20 20 18 16 15 15 16 15 15 15 16
18 16 14 12 10 10 9 9 8 6 4 4 8 11 12 12 12 12 13 16 16 17 17 16 17 16 16 17 18 18 19 19 19 18 15 13 14 15 14 15 15 16 16
17 15 12 11 10 9 8 8 7 5 4 6 9 14 13 13 13 13 14 16 16 17 16 16 16 16 17 17 18 19 19 19 18 16 13 14 15 15 15 15 16 16 16

GFSMW_sfc_30mbdewp_024.txt.gz
Dewpoint
40 39 39 41 44 47 48 53 57 52 49 46 44 43 40 36 32 30 28 26 26 26 25 24 22 22 19 19 18 19 17 20 24 16 16 21 23 24 20 17 17 19 16
39 39 40 43 46 48 49 53 54 49 49 48 44 44 36 31 27 25 24 23 23 23 23 21 20 19 18 18 18 15 14 17 24 15 20 10 10 15 12 17 17 17 17
40 38 40 44 48 50 51 51 51 48 46 41 37 32 28 24 22 21 22 22 21 21 21 20 19 19 19 17 18 16 15 12 17 23 11 4 6 17 17 15 19 14 16
39 39 39 45 48 51 53 51 49 46 42 39 37 34 33 26 22 21 21 20 20 20 20 19 18 18 18 16 17 16 17 16 14 16 17 18 20 11 11 15 13 16 14
39 39 40 43 49 52 52 49 47 44 40 39 37 35 31 26 22 19 18 17 17 17 17 17 16 16 17 16 14 14 13 16 14 15 16 17 17 18 18 10 13 13 13
39 39 42 48 50 51 50 47 45 42 40 37 35 34 28 21 19 17 16 16 16 16 14 14 14 14 14 14 14 14 12 13 13 14 14 14 12 12 14 13 13 14 13
38 41 44 48 49 50 48 46 44 41 39 37 35 31 25 21 18 17 16 14 13 13 12 11 10 11 12 12 13 13 12 13 12 13 13 15 15 17 17 16 16 15 15
39 43 46 48 49 49 47 45 43 40 38 36 33 28 24 22 20 19 15 13 12 12 11 10 10 10 11 12 12 13 13 14 14 13 13 14 15 16 17 17 17 16 13
40 43 47 48 48 47 46 44 42 38 35 32 27 24 22 20 18 15 13 12 11 10 9 9 9 11 11 12 12 13 13 14 14 14 15 15 15 17 19 20 20 19 16
40 44 47 46 45 44 41 40 38 34 29 25 22 20 17 14 13 12 11 9 9 9 9 10 11 12 12 13 13 13 14 14 15 15 15 15 16 18 20 20 21 21 20
40 44 45 42 39 38 38 34 31 27 23 19 16 14 12 11 9 9 8 8 9 9 10 11 12 12 13 14 13 13 14 14 15 16 16 16 18 18 20 20 21 21 21
42 43 41 38 37 35 32 30 25 22 18 15 13 11 10 9 8 8 8 9 9 11 11 12 12 13 14 14 13 12 14 16 16 17 17 17 18 18 20 20 21 21 22
41 39 37 36 34 31 27 24 20 16 14 12 11 10 10 9 9 9 10 10 10 11 12 12 13 13 14 12 12 14 17 18 18 18 18 18 19 19 20 20 21 21 22
40 39 37 34 31 27 23 19 15 14 12 12 11 10 10 10 10 11 11 11 11 10 11 13 13 13 12 11 12 18 20 20 19 19 19 19 19 19 21 21 21 21 20
39 38 36 32 29 25 20 16 14 13 12 12 11 12 11 12 12 11 11 11 10 11 13 12 12 13 11 10 19 21 22 21 20 20 19 20 21 22 22 21 21 21 21
40 38 35 31 28 24 19 15 13 13 13 13 13 13 13 12 11 10 9 8 10 12 13 12 12 11 11 16 20 22 22 21 20 20 20 20 21 21 23 23 22 22 25
40 38 35 32 27 23 18 15 13 14 14 14 14 13 12 11 9 9 7 8 10 12 12 12 11 10 11 17 21 21 22 21 20 20 20 20 20 22 22 24 24 27 25
40 38 36 31 26 20 17 15 15 15 15 14 13 12 11 9 8 6 6 8 10 12 12 11 11 11 11 19 20 21 21 21 20 20 20 20 21 22 23 23 29 22 19
40 39 36 31 24 19 16 15 15 15 14 13 12 11 9 7 6 5 8 10 11 12 11 11 11 12 15 19 20 21 21 20 20 20 21 22 22 21 22 27 22 19 19
39 36 32 26 21 17 15 15 14 14 13 12 10 9 8 5 5 8 10 12 12 11 11 11 13 15 14 18 20 21 21 20 20 20 20 21 21 21 27 19 18 18 16
34 30 28 24 18 16 15 14 13 13 12 10 9 7 6 5 9 11 12 11 11 11 11 13 14 15 16 18 20 20 21 20 20 18 21 23 21 22 19 18 17 18 23
27 24 21 17 15 15 14 13 12 11 10 9 7 5 7 11 12 12 12 12 12 12 13 15 15 16 16 19 19 20 21 20 19 21 21 20 21 19 18 18 19 20 19
22 19 17 15 14 14 13 12 10 9 8 6 4 8 11 12 12 11 11 12 13 13 15 16 16 16 17 17 19 20 20 20 21 20 20 20 18 16 16 17 18 18 16
18 17 15 14 12 12 11 10 9 8 5 4 8 13 12 12 12 12 12 14 14 14 16 17 16 17 17 17 18 19 19 22 20 21 19 17 15 15 16 15 15 15 16
17 16 14 12 11 10 9 8 7 5 4 7 10 11 13 12 12 13 13 16 16 17 17 17 17 16 16 17 18 19 19 19 19 19 16 13 14 14 14 14 15 15 16
15 14 12 10 9 9 8 7 5 5 6 8 13 14 12 13 13 13 13 16 16 17 17 16 16 16 17 17 19 19 19 19 18 16 14 14 14 14 14 15 15 16 16

GFSMW_sfc_30mbdewp_027.txt.gz
Dewpoint
41 41 41 40 40 43 47 50 58 60 56 52 51 49 46 42 38 33 31 30 30 26 26 24 22 22 20 19 17 20 18 20 21 16 17 20 21 25 24 16 18 20 19
39 40 40 41 41 44 48 53 57 55 54 53 51 49 44 38 32 29 28 28 27 25 24 22 21 21 20 19 17 18 17 18 22 14 17 12 10 16 12 18 18 17 17
36 39 40 41 43 46 49 52 54 52 51 47 42 38 36 31 25 24 26 25 24 23 22 21 20 21 22 20 19 19 17 15 20 19 8 8 7 14 16 14 17 14 14
34 37 39 40 43 46 51 52 51 49 45 45 43 42 41 35 26 25 23 22 22 21 21 21 20 20 20 19 18 18 19 17 15 18 16 16 15 10 8 14 13 15 12
35 37 39 40 43 49 51 51 49 46 43 44 44 46 43 31 23 21 19 20 20 20 20 19 20 19 18 17 16 16 17 17 14 15 15 15 15 16 14 8 10 12 13
36 39 40 41 46 51 52 50 48 44 42 42 43 41 34 23 20 19 18 18 18 18 17 17 18 17 17 16 17 17 17 16 15 15 15 13 11 9 11 10 11 13 13
33 38 41 44 48 50 50 48 46 43 40 39 38 34 26 22 20 18 17 16 15 15 15 14 14 15 16 16 17 16 16 16 15 15 14 15 15 15 14 15 14 14 15
34 38 41 45 48 50 49 47 45 41 39 38 33 27 24 21 20 19 17 15 15 14 13 13 13 13 14 14 15 16 16 16 16 16 16 15 16 16 16 16 16 16 12
34 38 43 46 49 50 48 46 44 40 38 34 29 25 24 23 20 17 16 15 14 12 12 12 12 13 14 14 15 14 14 15 16 17 17 17 16 17 18 19 19 17 14
33 40 44 47 49 49 47 44 42 38 34 30 26 23 21 19 16 15 14 12 11 11 12 12 13 14 14 14 15 14 15 15 16 16 17 17 17 18 19 19 20 19 18
36 40 45 47 47 45 43 40 37 33 28 24 21 18 16 14 13 12 11 10 10 11 12 13 13 13 14 14 13 13 14 16 17 18 18 18 19 18 19 19 20 19 19
40 44 45 42 42 41 38 36 32 27 23 19 16 14 12 11 10 9 10 10 10 12 12 12 13 13 14 13 11 12 16 17 18 19 19 19 18 19 19 19 19 20 20
41 40 39 40 39 38 33 30 26 20 16 15 13 11 11 10 9 9 10 11 12 12 12 13 13 13 13 12 11 15 18 20 20 20 19 19 18 18 18 19 20 21 21
39 38 37 35 33 31 28 23 18 16 14 13 12 11 11 11 11 11 11 12 12 12 13 13 13 13 12 11 14 19 21 22 21 21 20 19 19 19 21 22 22 23 22
39 37 34 32 28 25 22 18 15 14 13 13 13 13 12 13 12 12 12 11 12 13 14 13 13 12 11 9 19 22 22 22 22 21 20 20 21 23 23 22 22 21 22
40 37 33 29 26 23 19 16 14 13 13 14 14 14 14 13 12 12 10 12 13 13 13 12 13 12 10 18 22 22 22 22 21 20 19 20 22 22 23 22 22 23 23
40 36 32 29 25 20 18 16 14 14 14 14 14 14 13 11 11 9 10 11 12 13 12 11 11 11 12 19 21 22 22 21 21 20 20 20 20 22 22 23 24 25 30
39 35 31 26 21 17 15 14 14 15 15 14 14 13 12 10 9 7 9 11 12 12 11 11 11 12 13 20 20 22 21 21 21 21 20 20 21 22 23 22 29 26 19
39 35 31 25 20 17 15 15 15 15 15 14 13 11 9 7 6 8 10 11 12 11 11 11 12 13 16 20 21 22 21 20 20 20 21 21 20 21 21 26 23 18 18
37 33 27 22 18 16 15 15 15 15 14 13 11 10 8 6 7 10 11 12 11 10 11 11 14 16 15 19 21 21 20 20 20 20 19 20 21 21 25 21 19 18 16
33 28 25 21 17 16 15 15 14 14 13 10 9 7 6 8 11 12 12 11 11 11 11 14 15 15 17 18 20 21 20 20 20 19 19 20 20 23 20 19 18 18 23
27 23 21 18 16 16 15 14 13 11 10 8 7 7 10 12 13 12 12 12 12 11 13 15 15 16 17 18 19 20 21 21 19 20 19 20 21 19 18 18 19 20 20
22 19 17 15 15 15 14 12 10 9 7 6 9 11 12 12 13 12 13 12 13 13 15 16 16 15 16 17 19 20 21 20 21 20 20 21 19 16 16 17 19 18 15
18 17 16 14 13 12 12 10 9 7 5 8 10 12 12 12 12 12 14 14 14 15 16 16 16 16 16 17 17 19 19 21 20 21 20 18 15 15 16 15 14 15 15
17 16 14 12 11 10 9 8 7 6 7 11 14 14 14 12 13 13 14 16 17 17 17 17 16 15 15 16 19 19 19 20 19 19 16 12 13 13 13 13 14 15 15
15 13 12 11 9 8 7 6 6 7 8 10 12 13 13 13 13 13 13 16 16 17 16 15 16 16 17 18 19 19 20 19 18 16 12 13 13 13 13 14 14 15 16

GFSMW_sfc_30mbdewp_030.txt.gz
Dewpoint
36 38 40 41 42 42 43 44 46 50 55 58 60 61 57 55 52 48 45 40 38 33 29 27 24 24 23 21 19 19 20 20 19 18 17 19 19 22 24 23 16 19 18
31 33 37 39 41 42 42 44 47 53 56 58 57 58 56 52 47 43 42 38 34 29 28 26 24 23 22 21 19 19 19 19 19 14 18 14 13 15 19 17 16 13 15
27 28 31 36 39 41 43 45 49 55 57 56 56 52 45 40 37 37 37 33 29 25 25 25 23 24 23 22 21 20 18 17 19 17 9 10 12 11 13 15 13 14 12
28 28 29 31 35 39 44 47 51 55 56 55 51 49 49 43 41 36 34 31 28 27 23 23 22 22 21 21 19 18 17 15 15 17 13 13 11 10 9 12 12 12 12
24 26 29 30 33 39 46 50 52 54 53 52 52 52 50 46 38 33 28 24 23 23 22 22 21 20 19 19 17 18 16 15 12 14 14 13 14 12 12 10 10 11 12
26 28 30 33 34 40 49 51 52 52 51 52 51 53 49 38 32 25 25 24 23 22 21 20 20 19 18 18 18 18 18 16 15 14 14 12 10 8 9 9 9 11 12
25 25 30 36 39 40 50 51 51 50 50 51 51 51 44 40 31 25 24 21 20 20 19 18 17 17 18 18 17 17 17 17 16 16 13 13 13 12 12 12 12 12 13
36 29 29 34 39 44 49 50 50 48 48 50 50 45 40 36 26 22 21 19 20 19 18 16 15 14 15 15 16 16 16 17 16 17 16 15 14 14 14 14 15 14 11
38 35 33 36 40 45 49 50 49 47 47 47 41 33 29 26 24 22 21 19 18 16 15 14 14 14 14 14 15 13 14 14 15 16 17 17 16 16 17 17 17 16 13
39 38 35 37 42 46 49 50 48 46 46 43 38 30 26 25 23 20 19 18 15 14 14 13 13 13 14 14 15 14 14 13 14 15 17 17 17 17 17 17 17 17 16
41 40 37 41 45 48 49 48 46 44 41 37 32 27 25 21 21 19 17 16 14 14 13 13 12 12 13 13 12 11 12 13 16 17 18 18 18 17 16 16 16 16 16
41 42 42 44 47 48 48 46 43 40 36 30 28 22 19 18 17 15 15 14 13 12 12 11 11 12 13 11 9 10 14 16 17 18 18 17 17 16 15 15 16 16 17
41 41 42 43 45 46 45 42 39 33 28 25 20 17 17 16 15 14 13 12 12 12 11 12 12 12 12 10 9 13 16 18 18 19 19 18 16 16 16 17 18 19 19
41 41 41 42 43 44 41 37 30 27 22 18 17 16 16 15 14 13 12 12 12 11 12 12 12 12 10 10 12 17 19 19 19 20 20 19 17 17 18 19 20 18 20
41 40 40 40 40 38 32 27 22 19 17 17 16 16 15 15 14 13 12 11 12 13 13 12 12 12 10 8 18 20 20 20 19 18 18 17 18 22 23 22 20 20 20
40 40 38 37 35 30 24 20 17 16 20 19 16 16 15 14 14 12 12 13 14 13 13 12 14 14 9 17 22 23 20 19 18 17 16 17 18 19 21 21 22 23 25
40 41 37 35 31 25 20 17 19 20 20 17 16 15 14 14 13 11 12 13 13 14 13 12 11 10 11 19 22 22 21 19 18 18 17 17 17 19 19 20 21 25 26
41 39 36 30 26 23 20 20 19 18 17 16 15 14 13 12 10 10 12 12 13 13 11 11 10 11 11 20 21 22 20 18 18 18 18 18 18 18 20 20 26 27 20
41 36 32 23 22 21 17 17 16 16 16 15 14 13 11 9 9 10 11 12 13 12 11 10 11 11 12 17 21 22 18 16 17 17 18 18 18 19 21 25 26 17 16
36 32 28 25 22 19 18 17 16 15 15 14 12 11 9 8 9 12 13 12 12 10 9 10 11 13 11 14 20 21 18 16 17 17 17 17 19 20 22 21 18 18 14
30 27 24 22 18 17 17 16 15 15 14 12 10 9 8 9 12 13 12 12 11 10 9 11 11 12 13 14 19 21 20 18 18 17 16 16 18 21 21 20 17 16 21
27 24 21 17 16 16 16 15 14 13 11 10 8 8 10 12 14 15 14 12 11 10 9 10 9 10 12 14 16 20 21 21 18 17 17 18 21 20 19 18 18 20 21
25 23 20 18 17 16 15 13 12 11 9 8 10 11 12 13 15 15 15 12 11 9 10 9 9 9 11 12 15 19 19 19 19 19 20 20 19 18 15 15 19 18 15
21 20 18 17 15 15 13 11 10 8 9 9 10 11 12 12 13 13 14 12 10 9 11 10 10 10 11 11 14 17 17 17 19 19 20 17 16 14 14 13 14 14 15
19 18 17 15 13 12 11 9 8 9 9 10 11 14 13 12 13 13 13 13 13 16 13 12 12 11 11 12 18 19 19 20 19 19 15 12 11 12 12 13 14 15 16
17 16 15 13 11 10 8 8 9 11 11 11 11 12 12 13 12 12 11 16 16 17 15 15 15 14 15 17 19 20 20 20 19 16 12 11 13 13 13 14 15 16 18

GFSMW_sfc_30mbdewp_033.txt.gz
Dewpoint
33 35 37 39 37 37 40 41 42 44 47 52 56 59 61 62 63 62 58 54 49 42 38 33 31 29 28 26 24 24 25 24 22 22 23 23 21 21 23 25 22 19 21
29 30 34 36 38 39 40 41 42 44 48 53 57 59 62 60 58 55 53 48 42 38 33 30 30 29 27 25 24 25 24 23 22 18 21 20 19 18 22 19 17 15 16
26 26 27 32 37 38 40 42 42 45 50 54 57 60 55 50 47 47 46 44 40 36 31 30 29 29 28 27 26 26 23 22 22 19 13 14 17 14 15 17 17 16 16
25 26 26 27 31 37 42 43 44 47 52 56 57 57 53 49 47 45 43 40 34 32 30 29 28 28 27 26 25 23 22 20 20 20 15 16 14 12 12 15 16 15 14
23 23 26 29 30 33 42 45 46 48 54 56 56 55 50 50 46 43 38 35 32 29 29 29 27 26 26 23 21 22 20 18 15 16 17 14 16 15 14 14 14 14 15
21 23 25 26 29 33 38 46 48 50 54 56 54 52 52 48 42 39 34 32 30 28 26 26 26 24 24 23 22 21 20 18 17 16 15 14 12 11 11 11 12 13 15
29 31 28 24 30 33 36 46 49 51 54 55 53 52 53 44 42 37 33 31 29 27 25 25 23 23 24 22 21 21 20 19 18 19 16 14 13 13 13 13 14 15 16
32 35 36 31 29 37 39 44 49 51 52 52 53 54 48 45 39 37 33 30 30 26 24 23 22 20 19 19 19 20 18 19 19 19 19 17 16 15 15 16 17 17 16
35 36 38 37 28 33 40 45 49 50 50 52 52 52 46 41 36 33 30 25 25 23 21 20 18 17 17 17 17 15 16 16 16 18 19 19 17 18 18 19 19 18 17
35 37 38 37 33 35 40 47 48 49 49 51 51 47 40 31 29 27 26 24 22 20 19 18 17 16 16 15 15 16 16 14 15 16 16 18 18 18 19 19 18 18 18
36 37 40 38 36 38 42 47 48 48 48 48 41 35 31 29 26 25 22 21 18 18 18 17 16 15 14 14 14 13 13 14 15 17 18 18 18 18 18 18 18 17 17
36 39 42 42 43 44 47 48 48 47 47 42 35 30 26 24 24 21 21 18 17 18 16 15 13 13 13 12 11 10 12 15 16 17 18 18 17 19 17 17 17 17 18
37 39 41 42 45 47 48 48 46 44 40 35 31 26 23 22 21 19 19 18 17 15 14 13 13 13 13 11 10 12 14 16 18 18 18 19 18 18 17 18 18 20 21
34 40 41 42 43 45 46 44 42 38 34 30 26 24 22 20 18 18 17 17 15 14 14 13 13 12 12 11 12 16 18 20 19 19 19 18 18 17 18 20 22 20 20
35 41 41 41 43 43 43 38 33 31 28 25 23 20 18 18 18 17 16 15 14 14 13 13 13 13 12 10 18 19 20 19 18 19 18 17 18 20 21 21 22 22 22
32 41 40 40 41 40 34 30 28 24 22 20 19 18 18 18 17 15 15 16 16 14 14 14 16 17 9 19 23 24 21 19 18 17 16 17 18 17 19 21 21 21 21
39 41 38 38 37 29 25 21 21 22 22 21 20 20 20 19 19 15 16 16 15 14 14 13 12 11 12 18 22 23 21 19 18 17 17 17 16 19 19 19 20 22 24
42 41 37 34 28 21 20 23 25 25 24 22 23 20 16 15 15 14 15 14 14 14 13 12 11 11 13 18 21 23 21 17 17 17 17 17 18 18 19 21 23 26 26
41 38 33 26 21 21 24 24 24 24 24 25 27 22 15 13 13 14 13 14 14 13 12 11 11 11 10 17 20 22 19 16 15 16 17 18 18 18 20 21 23 21 19
36 28 24 20 21 24 25 26 25 26 26 23 15 13 12 12 13 14 14 13 13 12 11 11 11 11 11 11 17 21 18 16 17 17 17 17 18 19 20 21 21 20 18
29 27 27 27 30 33 34 32 29 26 22 14 12 11 12 13 14 14 14 13 11 11 10 11 10 10 11 13 16 19 20 19 19 19 17 17 18 20 21 21 20 18 19
27 27 25 23 23 23 19 17 15 14 13 11 10 11 12 13 15 16 15 13 12 11 10 10 8 9 10 11 14 18 20 21 19 18 18 19 20 21 20 19 18 19 20
22 20 18 17 17 17 16 14 13 11 10 11 11 12 15 16 18 17 16 13 12 10 9 8 8 9 10 11 12 15 18 19 19 19 20 20 20 18 16 15 17 17 16
24 21 19 17 15 14 13 11 10 11 11 11 12 13 13 13 13 14 15 13 11 8 8 8 9 10 11 11 13 17 19 18 20 21 21 19 17 13 14 14 14 15 16
21 20 18 16 14 12 10 10 11 12 12 12 12 13 14 13 13 13 14 13 12 14 13 12 12 11 11 12 18 20 20 20 21 20 19 15 11 13 13 13 15 16 17
19 18 16 14 12 10 10 11 12 13 12 13 12 12 13 13 13 12 12 15 14 16 17 16 15 14 15 17 19 20 20 20 20 18 14 12 14 14 14 15 16 17 19

GFSMW_sfc_30mbdewp_036.txt.gz
Dewpoint
34 35 35 37 37 35 36 43 44 44 45 50 57 60 60 62 62 62 61 57 53 50 44 39 34 32 30 28 26 27 27 24 24 25 23 26 22 25 25 25 25 22 22
31 32 33 36 38 39 38 37 43 44 45 47 53 58 62 62 60 60 58 53 48 42 37 34 31 31 28 25 25 26 25 24 23 18 21 21 22 21 21 26 17 17 17
28 29 30 32 36 37 39 39 41 43 46 49 55 58 54 53 53 54 51 48 44 39 35 33 31 29 30 28 27 26 26 24 23 19 16 15 18 14 19 21 19 16 18
27 27 28 28 29 35 38 40 42 42 47 51 57 58 58 55 51 49 47 44 43 38 38 36 34 32 30 28 26 26 23 23 21 21 18 17 16 13 11 18 17 18 14
24 24 26 27 28 30 38 40 42 44 48 52 57 58 55 50 47 45 42 40 38 35 33 32 31 30 30 24 23 22 20 19 20 18 19 16 17 17 16 14 15 15 16
23 26 28 29 30 31 32 38 44 44 50 55 58 55 52 47 46 42 39 37 35 34 32 32 30 29 26 25 24 23 21 19 18 18 17 15 14 13 13 13 13 14 15
25 29 35 36 36 30 33 35 42 46 52 56 57 53 51 47 44 42 38 35 32 33 33 31 27 26 26 24 24 23 21 20 20 20 19 17 15 15 15 14 15 16 17
29 35 36 38 39 37 33 36 42 48 54 56 54 52 48 45 42 41 37 34 33 32 30 27 26 24 23 23 23 22 21 21 21 20 20 20 19 18 17 17 18 17 18
35 35 36 39 39 38 36 38 44 49 53 55 53 51 45 44 41 37 35 35 32 29 28 26 22 21 21 20 20 19 18 17 19 19 19 20 20 19 20 20 20 19 17
34 36 37 38 41 38 36 40 46 50 52 53 52 46 44 39 37 35 32 30 28 24 22 20 19 18 18 17 18 17 16 15 17 18 16 18 20 20 20 20 20 20 18
36 36 38 41 43 40 38 42 48 50 51 52 47 40 36 34 32 28 26 25 22 22 20 19 18 17 16 16 16 14 14 14 15 17 18 19 19 19 19 19 19 18 18
34 37 39 41 42 43 43 46 48 49 49 40 34 31 28 28 26 25 23 23 22 20 18 17 16 16 14 13 12 12 11 15 17 18 18 19 19 19 20 18 18 19 19
32 38 40 41 42 46 47 47 48 47 38 33 30 29 27 26 24 22 23 22 20 19 16 15 14 14 14 12 10 12 14 16 18 19 19 19 19 19 19 18 20 21 22
29 40 41 41 42 46 49 46 40 36 32 29 27 26 26 23 21 20 20 19 19 15 15 15 14 14 13 12 13 17 19 20 20 20 20 19 19 19 18 20 21 22 22
29 41 41 41 42 45 43 36 34 31 27 26 25 23 20 20 19 20 19 17 16 16 15 15 14 13 13 15 20 22 22 21 20 19 19 18 20 20 20 20 21 22 22
31 41 40 41 43 39 32 30 29 27 26 23 21 20 20 21 21 21 20 21 16 15 15 15 18 16 12 20 23 24 23 22 20 19 19 18 20 19 20 21 21 21 21
40 41 40 40 32 30 28 25 24 23 21 20 19 20 20 20 20 20 18 16 15 16 14 15 14 13 18 21 22 23 23 22 21 19 18 18 18 19 19 21 20 21 22
40 41 38 30 26 23 23 23 23 22 22 23 23 24 27 27 26 23 24 23 17 15 13 12 12 13 17 19 20 22 22 20 18 17 17 18 18 19 20 20 22 23 24
41 37 28 22 21 23 24 25 26 28 29 31 31 31 31 30 29 22 16 15 14 13 12 12 12 12 14 19 18 21 21 19 17 17 18 19 19 20 20 22 22 22 22
27 23 22 23 25 25 28 28 29 31 32 33 32 32 31 27 17 15 14 15 14 12 12 11 12 16 10 13 16 20 20 19 19 20 20 20 19 20 21 21 22 21 20
22 23 25 27 28 32 32 32 32 31 31 31 30 24 17 15 15 14 14 12 11 11 10 11 11 10 11 12 15 17 20 20 21 21 20 19 20 21 22 22 20 20 20
36 35 34 35 36 36 35 34 33 33 31 23 17 15 14 15 16 16 14 12 12 11 11 10 9 10 10 13 14 15 17 20 20 19 19 20 22 21 21 20 18 18 19
34 37 37 37 37 35 30 26 21 13 13 13 14 16 18 19 19 16 14 12 11 10 9 8 9 11 12 12 15 18 19 20 20 20 21 21 21 20 17 16 17 16 15
18 18 16 15 14 14 13 11 12 13 13 14 15 16 15 15 15 15 15 12 10 9 10 11 12 12 12 13 16 19 20 21 20 21 22 21 19 15 15 15 15 16 16
20 17 15 13 11 11 11 12 13 13 13 13 14 15 14 14 14 15 15 13 17 15 14 15 14 13 14 15 18 20 20 21 21 21 19 16 14 15 15 15 15 16 17
18 15 13 11 11 11 12 13 13 14 14 13 13 14 13 14 13 12 14 16 15 14 16 15 15 15 16 18 19 20 21 21 21 18 14 14 16 16 16 15 16 17 18

GFSMW_sfc_30mbdewp_039.txt.gz
Dewpoint
34 35 35 35 33 33 35 39 47 58 60 62 62 62 61 61 61 61 59 58 53 50 47 43 38 34 29 28 26 27 25 22 23 23 22 27 24 26 25 26 24 23 22
31 32 33 34 36 37 37 36 43 54 58 60 61 62 62 62 62 62 59 56 52 48 45 40 34 32 29 27 26 26 26 24 22 18 23 19 21 21 21 26 21 18 20
28 29 30 31 32 35 37 38 39 43 49 52 58 58 58 57 59 57 55 51 48 47 42 36 33 31 29 26 26 27 26 25 22 18 17 18 17 15 20 23 20 16 18
27 28 29 29 29 30 35 38 39 40 45 46 56 58 59 59 57 53 50 47 44 43 41 35 33 32 31 28 27 26 26 25 22 20 19 17 15 10 8 17 18 18 16
26 26 27 28 28 29 30 35 38 40 43 46 55 57 59 56 52 48 47 45 44 42 38 36 37 34 33 31 26 23 21 23 22 22 19 17 18 17 15 13 15 15 15
24 26 29 33 33 32 31 34 38 40 44 47 57 57 56 52 50 45 44 44 42 39 37 35 34 33 30 28 26 22 19 18 18 18 17 15 13 13 13 13 14 14 15
25 31 36 37 39 39 39 36 35 37 43 50 58 56 54 52 51 45 44 41 37 36 35 35 34 34 30 29 27 22 20 20 20 19 18 17 16 16 15 15 15 16 18
30 35 36 37 37 38 39 39 37 37 43 55 56 54 50 50 48 46 43 40 37 34 34 33 32 30 28 26 24 23 22 21 21 20 20 20 19 19 17 17 17 17 18
35 35 36 37 37 38 41 41 38 40 47 56 54 50 49 48 46 43 41 38 36 34 31 30 29 28 25 24 22 20 18 19 20 20 20 20 20 20 21 21 20 18 16
35 36 37 38 39 40 42 42 39 42 53 54 51 47 47 44 42 39 37 35 33 30 29 28 27 26 23 21 20 19 18 16 18 19 17 18 20 20 20 20 20 20 19
35 36 37 39 40 41 43 44 42 47 54 50 47 46 43 40 38 37 34 33 30 28 27 26 24 22 20 18 18 18 16 14 15 18 18 19 20 19 20 20 19 18 19
33 36 39 39 40 41 43 47 46 51 50 45 43 40 39 36 34 33 31 29 25 24 22 22 19 18 16 16 14 12 12 14 16 18 18 19 19 19 20 20 19 19 20
29 37 40 40 41 42 48 49 48 42 39 36 33 32 31 29 27 26 25 26 24 22 21 21 20 17 14 12 12 13 15 16 18 19 19 19 20 19 20 19 19 20 21
31 38 40 41 42 46 43 41 37 35 35 32 31 28 27 24 24 24 24 23 24 21 19 18 17 16 14 13 15 18 20 21 21 21 21 20 19 19 19 19 20 21 21
32 40 41 41 43 41 38 35 36 33 32 31 29 27 24 23 23 23 23 23 22 22 23 25 25 18 17 18 21 22 22 21 20 20 19 19 20 21 21 21 21 22 22
40 41 41 41 36 34 33 31 31 31 29 29 25 24 22 22 22 23 24 25 26 26 25 23 21 16 18 24 25 25 23 22 20 20 20 19 21 20 20 21 20 22 21
40 40 40 33 31 29 28 29 27 26 25 23 22 22 23 24 25 26 27 29 29 28 26 24 21 17 21 23 23 24 23 21 20 19 18 18 18 20 19 21 21 21 22
41 41 32 28 25 24 24 23 23 23 23 22 24 25 27 29 30 30 30 28 27 27 25 16 13 16 22 22 22 23 21 20 18 18 18 18 19 20 21 21 22 23 23
36 28 24 23 25 24 24 25 27 27 26 28 30 30 32 33 33 32 32 32 30 22 14 13 13 13 21 20 19 22 21 19 19 20 20 22 21 21 22 22 22 22 23
23 24 25 26 26 28 29 30 30 30 32 33 34 35 35 34 33 32 28 19 14 12 13 13 12 15 11 16 17 20 20 19 20 21 21 23 21 21 22 23 22 21 20
25 27 28 28 30 32 33 33 33 33 35 35 34 34 33 28 19 15 14 13 11 11 11 11 11 11 12 12 15 16 19 19 20 21 20 20 21 22 23 22 21 19 19
32 32 32 34 35 34 34 33 32 34 33 32 30 27 24 20 17 14 13 12 12 11 10 8 10 11 11 17 16 17 19 21 20 20 20 20 23 22 21 19 18 19 19
36 36 36 35 35 35 35 33 32 31 29 25 19 18 17 17 16 14 13 12 10 10 9 9 11 11 13 13 19 19 20 21 21 21 21 23 22 19 17 17 18 17 16
31 33 31 30 30 30 29 28 26 18 16 17 18 18 17 16 16 15 14 11 10 10 11 12 12 12 13 14 16 20 21 22 21 22 22 20 17 16 16 16 16 16 16
17 16 14 13 12 12 13 14 14 15 15 15 16 17 16 14 14 15 13 15 15 11 9 14 13 14 15 16 20 20 20 21 22 20 17 14 15 16 16 16 16 16 17
15 14 13 12 12 13 14 14 14 15 15 14 14 14 14 14 13 13 15 18 16 15 15 15 14 14 14 17 18 20 20 21 19 15 14 15 16 16 15 15 16 17 18

GFSMW_sfc_30mbdewp_042.txt.gz
Dewpoint
33 35 35 34 34 34 34 38 50 59 63 63 63 63 62 62 61 61 58 57 56 53 51 47 41 36 32 29 26 26 24 22 24 24 24 27 24 26 25 25 23 24 23
30 31 32 34 35 35 34 34 40 54 60 63 63 63 62 62 61 61 59 57 55 52 50 45 40 34 30 28 26 27 26 23 22 21 24 21 21 22 21 26 24 21 22
28 29 30 31 32 33 35 37 37 43 57 61 62 60 59 59 60 60 60 57 54 53 51 44 40 33 31 28 27 27 27 25 21 19 21 22 21 18 19 23 19 17 19
28 28 28 29 30 31 32 34 37 39 49 58 60 60 58 59 60 60 58 53 52 52 48 42 38 36 32 28 28 29 28 26 22 19 18 17 16 12 9 17 18 17 16
26 28 28 29 29 29 30 31 34 38 41 48 57 60 58 59 57 54 54 51 50 50 47 41 38 37 33 33 31 30 28 26 23 23 19 17 18 17 13 10 14 17 16
23 25 27 34 37 37 35 34 33 36 40 43 51 57 59 56 54 52 50 48 47 47 43 42 39 37 36 33 31 28 27 24 22 21 17 15 14 14 15 14 14 14 15
24 30 35 37 38 38 38 39 38 38 38 41 47 55 57 55 54 52 50 47 45 43 41 40 39 37 35 32 29 25 22 20 18 17 17 17 16 16 15 14 15 15 18
25 34 37 38 37 36 36 39 40 40 39 39 45 55 56 55 53 52 50 47 45 43 41 39 38 35 33 31 29 27 25 23 21 19 19 19 19 18 17 17 16 16 18
28 35 36 37 36 37 37 40 42 42 40 40 51 55 54 53 51 48 47 45 43 41 38 38 36 32 29 28 27 26 24 22 21 21 21 20 21 21 21 21 20 18 15
34 35 37 37 38 39 39 41 43 44 42 45 54 52 52 51 49 46 45 43 40 39 36 33 30 28 27 27 25 23 21 20 20 21 19 19 20 20 21 20 21 21 19
32 31 34 38 39 39 38 41 45 46 46 53 51 49 49 47 46 45 43 41 38 36 34 30 27 27 26 25 23 20 17 16 17 18 17 19 20 20 20 20 20 19 19
39 39 36 37 39 38 40 44 48 47 50 49 47 46 44 43 42 41 39 38 34 32 30 27 25 25 25 23 22 22 19 15 16 18 19 19 20 19 20 20 19 19 19
40 39 35 38 39 41 44 47 47 48 46 44 43 42 41 41 39 37 34 30 29 25 23 23 21 19 19 17 15 15 16 17 18 19 19 19 20 20 20 20 19 19 20
40 37 37 40 42 45 41 40 38 38 37 39 39 38 37 36 34 30 26 24 24 25 26 26 25 26 27 26 24 24 25 27 25 22 22 21 20 19 19 19 19 20 21
40 41 41 42 42 39 36 35 34 34 35 34 32 30 28 28 26 25 25 25 26 27 27 27 28 27 28 29 31 32 30 24 21 21 20 20 20 24 22 21 21 22 21
41 40 41 40 36 34 32 33 34 36 37 34 31 30 30 30 25 24 26 27 27 27 27 27 28 29 28 31 30 26 24 21 20 20 20 19 21 20 22 22 21 21 22
36 41 40 33 31 29 29 30 31 31 29 28 28 27 26 27 28 30 31 32 32 31 31 30 30 31 33 32 30 29 23 20 19 18 18 18 19 22 20 22 22 22 24
36 40 32 26 25 26 26 28 31 31 31 30 29 30 29 31 32 32 32 32 32 32 32 31 29 26 27 26 24 25 20 19 18 19 19 20 21 21 22 22 22 23 23
24 25 25 24 24 25 27 27 28 30 31 31 31 32 33 33 33 33 33 33 32 31 31 27 25 22 24 22 22 22 20 19 19 20 21 23 22 23 22 22 23 23 23
26 26 27 28 29 29 29 29 30 30 31 33 34 35 35 34 34 33 33 32 30 25 19 15 13 19 18 21 19 22 20 18 18 20 21 22 22 22 22 24 23 20 20
29 30 31 31 33 33 31 32 33 32 34 36 35 35 35 34 33 31 29 24 16 13 12 12 12 13 11 13 16 17 18 19 20 20 20 20 22 24 24 22 20 19 20
33 33 34 34 35 34 33 32 31 32 33 33 32 30 30 30 25 18 14 12 11 11 10 10 11 12 12 20 20 22 21 22 21 21 21 21 25 23 21 19 19 19 20
35 35 34 34 35 35 34 31 31 32 32 31 27 20 18 17 16 13 12 11 11 9 9 10 11 12 13 14 18 21 22 22 21 22 23 25 22 19 17 18 18 19 16
36 35 34 33 32 33 33 32 32 29 22 18 18 17 15 15 14 14 12 10 10 11 11 11 10 11 14 15 18 20 21 22 22 23 22 18 16 17 17 17 16 16 17
24 22 22 23 25 23 25 25 22 18 17 17 17 18 17 14 14 14 14 13 12 8 9 12 13 12 13 15 19 20 20 21 22 18 14 14 15 15 15 15 16 16 17
16 15 14 14 14 14 15 16 16 16 16 16 15 15 14 14 14 15 17 18 17 17 16 18 15 14 16 18 20 20 20 21 19 15 14 15 15 15 15 16 16 17 18

GFSMW_sfc_30mbdewp_045.txt.gz
Dewpoint
34 34 34 35 35 35 34 36 47 58 63 65 64 64 63 63 61 61 60 58 56 55 54 52 48 44 38 32 29 27 25 23 24 24 25 27 25 25 24 25 25 25 24
30 31 32 33 34 34 35 34 38 55 61 64 64 63 63 63 63 62 61 59 56 55 54 51 46 42 36 31 27 27 25 23 24 23 24 22 22 23 22 26 24 22 24
28 29 29 30 31 33 34 35 36 41 59 63 63 61 61 60 61 60 60 58 57 55 55 50 46 40 37 33 28 28 27 25 21 21 26 24 24 20 18 23 20 18 20
28 29 29 29 30 30 32 34 36 38 44 60 62 61 60 60 61 61 61 58 56 56 55 51 45 42 39 36 34 33 30 26 23 20 18 17 21 19 14 18 19 17 16
22 24 27 28 29 30 30 31 32 35 39 48 61 61 61 60 60 60 60 57 54 56 54 50 46 43 42 41 38 35 32 30 27 24 19 18 18 16 13 12 15 18 17
23 25 26 31 35 37 34 33 31 32 35 39 49 60 60 58 57 56 57 55 52 53 52 49 47 45 42 40 38 35 33 30 28 25 19 18 16 15 15 13 15 14 15
22 27 34 37 38 38 38 38 38 37 39 39 41 51 58 58 56 56 56 53 52 50 50 47 45 44 42 40 37 33 32 29 26 23 18 18 16 16 15 14 14 13 17
31 34 36 37 37 36 36 37 39 39 40 41 40 45 53 57 57 55 55 53 53 52 47 46 44 43 41 37 33 31 29 26 24 21 19 18 18 17 16 16 15 14 17
31 32 34 35 37 37 37 37 38 40 42 42 42 44 51 56 55 55 53 52 50 47 45 44 42 39 37 33 30 28 27 26 25 21 21 20 21 20 20 20 19 16 13
33 35 33 34 35 37 39 39 40 41 43 44 44 46 52 54 54 52 50 48 46 45 42 41 39 36 32 29 28 27 25 23 23 23 20 20 21 21 21 21 21 20 18
39 40 37 38 38 38 39 39 41 45 46 46 48 50 51 51 50 48 46 45 43 41 41 38 35 30 28 26 25 22 21 21 20 20 18 19 20 20 20 21 21 20 20
41 41 41 40 40 38 39 41 46 47 48 49 49 49 48 47 46 45 44 43 41 41 37 34 28 27 25 24 22 22 25 26 28 27 24 20 20 20 20 21 20 20 20
40 40 41 40 37 41 44 42 39 40 43 46 45 45 45 44 43 43 42 39 37 34 31 28 27 25 24 24 24 23 23 23 24 24 22 24 26 27 25 21 20 20 20
41 41 41 41 43 41 38 35 35 37 39 40 41 42 42 41 40 37 37 36 31 28 24 25 25 25 26 26 27 28 29 31 32 31 30 29 27 23 20 20 19 20 20
38 40 41 41 42 37 34 35 37 36 36 36 35 35 36 35 33 31 30 29 28 27 27 29 30 31 32 33 33 34 34 33 31 30 26 23 23 25 25 23 22 22 22
31 31 39 38 34 31 31 33 33 35 35 34 34 31 30 29 30 29 29 29 29 29 29 29 31 32 34 36 34 30 29 28 24 22 21 18 19 22 24 24 24 23 22
26 32 38 33 29 29 30 31 31 29 29 29 30 31 32 32 32 31 31 31 31 31 32 32 34 34 36 36 35 33 28 24 19 17 18 18 20 22 21 23 24 24 25
24 28 28 26 26 27 30 32 33 34 33 32 33 33 34 34 33 34 33 33 33 32 32 33 33 33 35 34 31 25 19 18 18 19 20 20 22 22 23 23 23 23 24
26 25 25 26 27 27 29 31 33 34 34 34 34 34 34 33 33 33 33 33 33 32 32 31 31 31 32 28 27 21 19 18 18 20 21 23 22 23 22 23 23 24 23
28 29 30 30 29 29 30 30 31 32 33 34 35 35 35 34 34 33 32 33 33 32 32 31 29 28 24 24 23 23 19 18 18 20 21 22 21 22 23 25 23 19 19
30 32 33 33 34 34 34 33 32 32 35 35 34 34 34 34 33 33 32 31 30 27 19 13 14 12 14 15 18 21 19 20 21 21 20 21 23 25 24 22 20 19 20
33 34 33 34 34 34 33 32 31 32 33 34 33 33 33 32 30 27 20 15 13 11 10 11 12 13 14 22 22 21 21 23 21 21 21 22 25 23 22 20 19 20 20
35 35 35 34 35 34 33 31 32 33 32 31 28 22 20 20 17 14 12 11 10 9 9 11 12 11 13 14 21 22 22 22 22 22 24 24 21 19 18 18 19 20 16
35 34 34 33 33 34 33 32 31 29 26 20 17 15 14 14 13 12 12 11 10 11 11 10 8 11 13 15 18 20 21 22 22 23 18 17 16 16 16 17 16 16 17
28 29 30 31 31 32 31 30 21 19 18 17 17 16 14 13 14 14 11 9 8 8 9 10 11 12 13 15 20 21 21 22 21 18 14 14 14 15 15 16 16 17 17
20 21 20 21 20 20 19 18 18 17 16 16 15 14 14 15 16 17 18 20 19 18 18 19 15 14 17 19 20 21 20 19 18 16 13 14 15 15 15 16 16 17 17

GFSMW_sfc_30mbdewp_048.txt.gz
Dewpoint
33 35 35 35 35 35 35 36 38 55 65 66 64 64 63 63 63 63 62 58 57 57 58 57 56 53 50 45 35 28 26 25 25 25 26 27 26 24 25 27 28 26 25
30 31 32 33 34 34 34 35 36 42 59 65 65 64 63 63 63 62 62 60 57 56 56 56 54 51 47 39 32 29 26 25 26 25 25 23 23 24 23 26 24 24 24
26 27 29 30 31 32 33 34 35 38 51 62 64 62 62 61 62 62 61 61 58 56 56 55 53 49 45 41 33 30 30 27 24 25 28 25 26 22 20 23 24 20 22
23 24 26 27 29 29 31 32 34 36 40 58 62 62 61 61 61 62 62 61 59 57 57 55 53 49 46 43 38 37 37 35 29 23 21 20 25 22 18 18 20 18 18
23 28 31 28 29 31 30 31 32 35 38 43 61 62 61 61 60 61 61 60 57 57 57 56 53 48 45 45 42 40 38 38 35 29 23 20 18 16 17 16 17 18 18
30 32 35 38 38 39 39 38 32 31 34 39 48 61 61 60 59 59 60 58 56 56 56 55 52 49 46 45 44 42 39 37 33 29 24 21 20 17 15 15 15 16 15
32 33 34 35 36 36 36 36 38 38 38 38 39 49 59 60 58 58 58 57 55 55 55 54 51 49 47 46 45 42 40 37 32 29 25 22 19 19 17 16 15 13 16
32 35 36 37 36 35 36 37 37 37 40 41 40 41 45 54 58 57 57 57 55 55 55 53 51 49 47 45 43 41 39 34 31 27 23 22 19 18 17 16 15 14 16
32 35 38 39 38 36 39 38 38 39 39 41 43 43 43 45 53 56 56 56 55 54 53 51 49 48 46 42 40 36 31 29 27 23 21 21 22 21 21 20 18 14 11
37 39 40 40 39 39 40 39 39 39 40 45 46 45 46 48 50 53 54 54 52 50 49 48 47 45 42 39 35 30 27 25 24 24 21 22 23 22 23 23 21 20 17
41 42 41 41 41 41 40 39 40 44 46 46 48 48 48 50 52 52 50 49 47 46 46 43 42 40 35 32 28 26 24 23 23 23 23 23 23 22 22 25 24 22 22
42 41 41 41 41 40 41 43 39 40 41 44 46 47 47 48 48 47 46 44 43 43 42 40 36 34 30 26 23 22 23 22 22 24 26 26 26 25 24 23 24 24 23
40 41 41 41 43 40 38 36 36 38 39 42 44 44 45 45 45 44 43 42 41 40 37 33 31 28 26 25 25 26 28 27 27 27 26 26 28 31 32 31 29 26 24
37 35 34 40 40 35 35 36 36 36 37 39 41 42 42 42 41 40 38 36 34 33 31 28 27 26 26 26 27 28 30 31 32 33 32 32 32 32 31 30 28 23 21
31 30 30 36 35 32 33 34 35 35 35 34 34 35 36 34 36 35 34 31 31 30 28 29 30 31 32 33 33 34 34 34 32 32 32 31 30 29 29 27 24 23 22
29 26 32 37 31 30 31 30 30 32 32 32 31 31 32 32 32 32 32 32 33 33 33 33 33 34 36 37 36 33 31 32 32 31 30 29 25 27 25 24 24 24 23
26 26 28 28 28 30 32 32 31 32 32 32 33 33 33 32 32 31 32 32 33 33 34 35 36 36 37 37 36 35 32 31 29 24 19 19 21 23 21 23 24 24 25
26 25 25 25 26 30 32 33 34 34 34 34 34 35 34 34 34 33 33 33 33 33 34 34 35 35 37 36 33 26 22 19 18 19 20 20 22 23 23 23 23 24 24
27 27 28 28 28 30 31 32 33 34 34 34 34 35 35 34 33 32 32 32 33 32 32 32 32 33 34 33 30 25 19 18 19 20 21 23 22 23 23 23 23 25 23
29 30 31 31 31 32 33 34 34 35 34 35 35 35 34 34 33 33 33 33 33 31 32 31 32 33 31 31 30 22 19 18 19 21 21 22 21 23 24 24 24 20 19
32 33 34 33 33 34 34 33 33 33 34 35 35 34 34 33 32 32 32 31 30 29 22 19 18 18 17 19 24 24 20 21 21 21 20 21 24 24 25 22 20 19 20
33 34 34 34 34 33 33 32 31 33 34 34 33 33 33 33 32 30 28 21 15 13 12 12 13 14 16 22 22 22 23 23 22 21 21 23 25 23 21 19 19 20 21
34 35 34 34 34 34 34 32 33 33 33 32 30 30 29 25 20 14 12 10 10 10 11 11 11 11 13 16 22 22 22 22 22 23 24 22 20 17 17 18 20 19 17
34 34 34 33 33 33 33 32 32 30 23 18 17 15 14 12 12 12 12 11 11 11 11 9 8 11 14 16 19 20 21 22 22 21 16 17 15 16 17 16 16 17 17
34 33 33 33 33 33 32 25 22 20 17 17 16 15 13 13 12 11 8 7 8 9 7 9 11 12 14 17 22 22 21 21 20 18 14 13 14 14 15 16 16 17 17
26 28 29 29 28 28 25 19 20 18 16 14 14 14 15 16 17 18 20 21 20 20 19 19 16 15 18 20 21 20 20 18 18 14 12 13 14 14 15 16 16 16 17

GFSMW_sfc_30mbdewp_051.txt.gz
Dewpoint
31 33 35 36 36 37 37 36 38 52 64 64 64 64 63 63 63 64 62 60 60 60 60 60 60 60 59 56 49 39 33 30 28 28 28 29 28 27 29 34 33 32 30
29 28 29 31 33 35 35 36 36 39 53 63 63 63 63 63 64 63 63 62 59 59 60 59 59 58 57 55 48 39 32 31 29 29 30 28 27 26 26 28 29 28 28
23 28 29 28 30 31 33 34 36 37 42 58 63 64 63 63 63 63 63 62 61 59 59 59 58 57 55 53 48 40 37 33 29 29 31 29 30 26 25 25 27 25 26
26 32 36 36 34 35 34 32 34 36 38 48 60 62 59 59 61 61 62 62 62 59 59 58 58 56 54 53 48 42 40 37 33 30 26 26 29 27 23 21 24 22 23
32 34 36 37 38 39 39 38 34 32 36 39 54 61 60 60 61 62 62 62 61 60 58 58 57 55 54 53 49 43 41 40 39 38 33 29 25 22 26 22 21 21 20
35 36 37 38 39 38 38 38 38 38 36 36 41 58 61 61 61 61 61 61 60 60 58 58 57 55 53 52 49 47 43 41 42 40 32 30 27 22 19 19 18 21 19
35 37 38 39 40 40 38 39 39 38 39 40 39 40 53 61 60 60 60 60 58 57 58 58 57 56 53 52 50 47 46 44 41 39 33 28 26 25 23 25 21 17 18
34 38 39 40 40 40 39 40 40 40 40 40 41 42 42 46 56 59 59 59 59 58 58 57 57 56 53 51 49 48 47 44 42 36 30 26 22 21 19 19 21 17 17
37 40 41 41 41 41 41 41 40 40 40 40 44 45 45 44 45 50 56 58 58 57 56 56 56 54 52 50 49 47 45 42 36 31 28 25 23 22 22 22 20 21 18
41 42 41 41 42 42 42 41 40 40 42 46 46 48 48 48 48 48 50 54 56 55 54 53 52 50 49 48 47 44 42 39 31 27 24 24 25 26 27 26 24 21 19
42 41 41 42 42 42 40 40 40 41 42 43 45 46 47 48 49 50 51 51 51 51 51 50 49 47 46 45 43 39 34 29 28 25 24 24 25 25 25 27 28 28 28
40 40 40 40 42 39 37 37 37 38 39 42 44 45 47 47 47 47 47 47 48 47 47 46 45 42 39 36 33 30 28 25 24 25 25 25 26 27 28 28 29 30 30
38 35 34 34 39 35 36 37 37 36 38 39 42 43 44 45 45 45 44 44 44 43 42 40 37 33 31 29 27 26 26 27 28 27 28 28 29 30 32 33 32 31 31
32 31 30 32 36 33 34 34 35 35 35 35 36 39 39 40 40 38 38 38 37 34 33 31 29 28 28 28 29 29 31 31 32 33 33 33 33 33 32 32 31 30 29
30 28 31 34 31 31 31 31 32 33 33 32 33 33 34 35 35 33 33 32 31 30 29 30 31 32 32 32 33 33 33 33 33 33 33 32 32 33 32 30 30 29 27
28 28 27 29 29 31 32 31 32 33 33 33 33 33 33 34 34 34 35 34 34 34 35 35 35 35 36 36 36 34 33 33 32 31 31 31 32 32 32 31 28 26 25
27 26 25 26 28 31 33 33 34 34 34 34 34 34 33 32 32 33 34 35 35 36 37 37 38 38 38 38 37 35 33 32 30 28 26 27 28 27 23 24 25 25 25
27 26 26 27 28 31 33 34 35 35 35 35 35 35 35 34 34 34 34 34 34 35 35 35 36 36 36 35 33 30 26 24 22 21 25 27 27 26 24 23 25 25 24
28 29 29 29 30 31 32 33 34 34 34 34 34 35 34 33 32 32 32 33 33 32 32 32 32 33 32 32 30 27 22 23 24 25 23 23 22 22 24 24 25 25 24
31 32 32 33 33 33 35 35 34 34 34 35 35 35 35 34 33 32 31 31 32 31 31 31 33 33 32 31 31 25 19 18 20 21 20 22 22 24 24 27 24 21 19
33 33 33 33 33 34 34 33 34 33 35 35 35 34 33 32 32 32 31 31 30 29 28 27 27 25 26 28 27 23 21 21 21 20 21 21 25 24 25 23 20 19 20
34 34 33 33 34 33 33 32 32 34 34 34 33 32 33 33 32 30 27 20 16 14 15 16 15 14 19 24 23 23 23 23 21 21 22 24 23 22 20 18 19 20 21
35 34 33 34 34 34 34 32 33 34 32 32 31 29 26 19 16 13 12 11 11 11 11 11 10 11 14 19 23 23 23 23 23 24 23 21 18 17 17 18 20 19 17
34 34 34 34 33 34 33 33 33 27 23 21 16 14 13 12 12 12 12 11 11 11 10 7 8 12 15 18 20 21 21 23 21 19 17 16 15 16 17 16 17 17 17
34 34 34 33 33 33 29 28 23 19 17 16 15 14 13 11 11 9 6 7 8 8 6 9 12 13 16 18 22 21 20 20 19 18 12 12 13 14 15 16 16 17 17
32 33 33 33 33 32 23 23 20 17 15 13 13 15 16 18 19 20 20 22 21 20 20 20 16 17 19 20 21 19 19 18 18 12 11 11 13 14 15 15 16 16 17

GFSMW_sfc_30mbdewp_054.txt.gz
Dewpoint
31 32 33 33 33 35 37 38 38 40 49 59 64 65 64 64 64 64 64 63 62 61 61 59 58 58 58 59 58 54 48 42 40 33 33 31 30 29 28 33 34 34 34
27 27 29 28 29 31 33 35 37 38 41 49 59 63 63 64 64 64 64 64 63 62 61 61 59 58 58 58 59 55 48 46 38 39 39 36 31 28 28 29 31 31 31
29 34 35 34 33 33 33 33 35 37 39 40 49 57 60 62 62 63 63 63 63 63 62 62 61 60 59 58 59 56 49 46 39 38 43 40 41 31 29 28 29 29 29
34 36 36 37 38 40 41 39 35 35 36 39 42 51 57 58 59 59 62 63 63 63 62 62 62 61 60 58 58 57 52 50 42 36 34 32 35 33 32 26 28 27 27
38 38 39 41 41 42 42 41 39 39 36 37 39 43 53 55 56 58 59 60 62 62 61 60 61 61 60 59 58 55 52 51 48 42 36 33 33 30 34 33 27 28 25
39 40 41 42 42 43 43 43 42 40 40 40 38 40 44 52 56 58 59 60 61 61 61 60 60 60 60 58 58 55 53 52 51 45 41 36 36 35 32 32 27 25 23
39 41 41 42 42 42 42 42 41 41 41 40 40 40 40 45 54 56 57 58 59 60 60 60 59 59 59 59 58 56 53 52 51 47 44 41 40 33 33 34 28 23 20
40 41 41 42 41 41 41 41 41 41 41 41 41 41 42 43 43 47 53 55 56 58 59 59 59 59 59 58 57 55 53 52 50 49 46 40 36 30 26 29 27 25 20
42 41 41 41 41 42 42 42 41 40 41 42 44 44 45 46 46 45 45 48 51 54 56 58 58 58 58 57 55 54 52 51 50 49 46 39 32 29 28 27 27 30 24
42 40 40 41 42 42 41 41 41 42 43 44 45 46 47 48 49 50 49 49 49 50 54 55 56 57 56 54 53 51 51 49 47 42 37 33 32 30 29 29 26 28 25
41 39 39 38 42 41 39 39 39 39 40 42 43 45 47 48 48 49 49 50 51 51 52 53 53 53 52 51 50 48 46 44 41 40 37 34 31 30 30 30 30 29 30
39 36 36 36 40 38 38 38 38 38 38 39 41 44 45 46 47 48 48 48 49 50 51 51 50 49 48 47 46 43 42 36 35 31 31 29 29 29 30 31 31 31 33
36 34 34 35 38 36 36 36 36 36 36 37 39 40 41 43 42 41 43 44 44 45 45 45 45 44 42 40 37 35 31 30 30 29 29 29 30 31 32 33 33 32 32
32 32 35 36 35 34 34 33 34 35 35 35 36 37 37 38 37 36 35 34 33 34 35 34 33 31 30 30 30 30 31 31 32 32 32 32 33 33 33 33 32 32 31
32 31 33 33 33 33 33 34 35 35 35 35 35 35 35 35 35 35 34 34 34 34 33 32 32 32 33 33 33 34 34 34 34 34 34 34 35 35 34 32 31 31 30
30 30 30 31 32 33 34 35 35 35 35 34 34 34 33 34 35 35 35 36 36 36 36 36 36 36 36 36 35 35 34 33 33 31 31 32 32 33 35 34 33 31 28
29 28 28 28 30 33 34 35 35 35 35 35 34 33 34 34 34 35 35 36 37 38 37 38 38 38 38 38 37 35 33 31 31 30 29 30 29 28 25 26 26 26 28
29 29 29 29 30 32 34 34 35 35 36 35 35 34 34 33 34 33 33 33 34 34 33 33 33 33 35 36 36 33 30 29 29 28 27 27 26 26 25 23 24 25 23
29 30 30 30 31 32 33 34 34 35 35 35 35 35 34 33 33 32 32 32 32 32 31 32 31 31 32 32 28 27 27 27 27 25 25 25 24 22 24 24 26 24 24
31 31 32 32 32 33 33 33 34 34 34 35 35 35 35 33 32 32 32 32 32 31 32 31 33 32 30 30 28 22 22 23 23 23 20 22 23 25 25 25 24 21 19
33 33 32 32 32 33 33 34 34 33 34 35 34 34 34 33 32 32 32 32 31 31 30 26 25 27 29 28 26 23 20 19 18 18 19 21 26 25 24 23 20 18 19
33 33 33 32 33 34 34 33 33 35 35 34 33 34 34 34 33 30 25 22 19 18 18 17 18 20 23 24 24 24 24 23 20 20 21 22 23 21 19 18 18 21 22
34 34 33 34 34 35 35 33 34 34 33 33 31 28 24 19 17 15 14 12 12 11 11 10 9 9 13 19 23 24 23 24 21 22 22 20 18 16 15 17 20 20 17
34 33 35 34 34 35 35 35 33 31 29 26 20 14 13 12 12 12 12 11 11 10 7 5 7 10 15 19 21 20 20 21 19 20 18 15 15 16 17 17 16 17 17
34 34 35 34 34 33 33 31 27 28 21 15 14 14 12 10 8 9 7 6 7 7 5 9 10 12 16 20 22 21 19 19 18 20 10 8 9 11 14 15 16 17 17
34 34 36 35 34 33 31 29 25 19 16 14 13 12 14 16 18 19 20 22 21 21 21 20 15 18 19 21 21 20 20 19 18 12 7 8 10 12 14 15 16 18 19

GFSMW_sfc_30mbdewp_057.txt.gz
Dewpoint
27 31 33 33 34 35 36 37 37 37 39 46 55 64 65 65 65 65 63 62 61 61 61 60 59 58 57 58 59 58 55 51 48 43 37 37 36 33 34 36 37 38 39
29 29 30 30 29 30 32 34 37 38 39 41 46 59 63 63 64 64 65 65 63 62 62 61 60 59 58 58 59 58 55 51 48 42 41 40 36 34 32 32 35 36 36
27 33 35 35 34 36 38 35 35 37 39 40 42 47 59 61 62 64 64 64 63 64 63 62 62 61 59 59 59 59 57 52 47 44 45 44 43 35 33 31 32 33 34
34 36 37 38 39 41 43 41 39 36 36 38 40 41 46 53 57 58 60 61 62 62 63 63 62 62 62 60 59 59 58 54 49 44 44 45 39 38 33 31 31 32 31
36 37 39 41 42 44 44 44 41 39 40 37 37 39 41 47 54 56 57 57 59 62 62 62 62 62 62 61 61 59 59 55 52 45 44 41 37 36 40 33 30 30 30
39 40 41 42 42 44 44 44 42 41 41 40 40 38 40 42 47 53 54 56 57 60 62 62 61 61 61 61 61 60 60 57 55 49 47 42 41 37 35 40 34 31 30
39 40 41 41 42 42 43 42 41 41 41 41 41 39 40 40 43 46 51 54 55 58 60 61 61 60 60 61 60 60 59 57 55 54 49 46 44 45 41 43 36 31 24
40 41 41 41 41 42 42 42 41 41 41 41 42 41 41 41 42 42 44 50 52 54 56 60 60 60 60 60 60 59 59 57 56 55 54 49 47 41 38 40 36 31 23
41 40 40 41 41 42 42 42 41 42 42 43 44 43 44 45 46 46 45 44 44 47 50 53 58 59 59 59 59 58 57 56 55 55 54 50 46 40 38 39 39 41 37
40 39 39 39 41 42 41 41 40 40 41 42 43 44 46 47 47 47 48 49 50 50 49 50 53 54 57 58 58 57 55 54 53 53 52 42 36 35 37 36 38 40 38
40 38 38 38 41 41 40 40 39 39 39 40 41 43 44 46 47 47 47 48 49 49 50 51 51 53 54 54 54 53 52 52 48 43 40 38 37 37 35 36 35 35 35
39 36 36 37 39 38 38 38 38 38 37 38 39 41 42 44 43 43 44 46 47 48 48 49 50 51 51 51 50 48 46 45 43 41 38 35 34 33 34 33 33 33 34
36 35 35 36 38 36 36 36 36 37 37 37 38 38 39 40 39 39 38 38 38 41 41 40 40 41 41 42 41 38 35 35 34 34 33 33 33 33 33 34 34 34 33
34 34 36 37 36 35 35 35 36 37 37 37 37 37 37 37 37 36 36 35 34 33 33 33 32 33 32 32 33 33 33 33 33 33 33 34 33 34 34 34 33 32 32
33 32 34 34 35 34 35 36 37 37 36 36 36 35 36 36 36 36 36 36 35 35 34 34 34 34 34 34 34 35 35 35 34 34 35 35 36 36 35 33 32 31 31
32 32 32 32 33 34 35 36 36 36 36 35 35 34 34 35 35 36 37 37 37 38 38 37 37 37 37 37 36 35 34 33 33 31 32 33 34 35 35 35 34 32 30
32 31 30 30 31 34 35 35 36 36 36 36 35 34 34 34 35 35 36 35 35 35 34 34 37 37 38 38 37 34 32 31 31 31 31 31 30 28 27 27 27 27 28
32 31 31 31 32 33 33 34 35 36 36 36 35 34 34 35 35 34 33 33 34 33 33 32 33 32 34 34 33 32 31 30 30 31 31 30 29 28 25 23 25 26 26
31 31 31 30 32 33 33 34 34 35 36 35 35 35 35 34 34 33 32 33 32 31 31 31 31 31 32 32 31 30 29 28 26 25 25 24 23 24 25 25 26 25 24
32 32 32 32 32 32 33 33 33 34 35 35 35 35 35 34 33 33 32 33 32 31 32 32 33 30 29 27 23 22 22 22 22 20 19 22 25 25 26 26 23 22 20
33 33 32 32 32 33 33 33 34 33 35 35 35 35 34 34 34 33 33 32 31 30 27 26 28 28 26 27 26 23 20 18 18 18 18 21 25 26 24 23 21 19 20
33 33 33 32 33 33 34 33 33 35 35 35 35 35 34 33 33 31 28 24 21 18 17 18 19 21 22 24 25 25 24 23 20 19 20 22 23 21 19 18 17 21 22
34 35 34 34 34 34 35 34 34 35 35 34 33 31 28 22 19 17 16 13 12 11 10 9 9 10 14 19 23 23 23 23 20 22 22 20 17 15 15 15 20 21 18
34 33 34 34 34 35 36 36 35 34 32 30 24 17 13 12 12 13 14 12 10 8 5 5 8 11 15 19 20 19 19 20 18 21 18 14 14 14 16 17 16 17 17
34 35 35 35 35 35 35 35 32 31 28 19 15 14 13 11 10 12 11 6 12 14 7 11 11 13 15 21 22 21 20 21 19 20 13 7 7 10 13 15 16 17 18
34 35 36 36 35 34 34 32 31 29 18 15 13 12 13 15 17 18 20 23 22 22 22 21 19 17 20 21 21 20 21 21 18 16 8 7 9 11 13 15 16 18 20

GFSMW_sfc_30mbdewp_060.txt.gz
Dewpoint
28 29 33 33 33 33 35 37 38 38 40 41 50 65 65 65 65 65 65 65 62 62 61 59 59 58 57 58 59 58 56 53 51 45 41 39 37 35 37 36 38 41 41
28 30 32 32 30 31 34 35 36 38 39 40 42 53 65 65 65 64 64 65 65 63 62 61 60 60 59 58 59 58 57 54 51 45 39 36 37 36 34 35 37 39 40
27 33 35 36 38 42 42 40 38 36 37 39 42 43 54 63 63 63 63 62 64 64 64 63 62 61 60 59 58 59 58 56 52 46 42 43 41 36 35 33 34 36 38
35 36 38 40 42 44 45 44 41 39 37 37 38 40 41 46 59 62 64 64 64 63 63 63 63 62 62 61 60 59 59 58 52 49 44 48 43 38 34 33 32 34 35
36 38 40 41 43 45 45 45 45 42 40 41 38 38 40 42 44 49 57 59 60 63 62 62 61 62 63 62 62 60 60 60 56 50 47 46 42 37 38 33 31 32 32
39 40 42 42 43 44 44 44 44 42 43 41 41 40 39 40 41 42 49 55 56 58 61 62 62 61 61 61 62 61 61 60 59 53 49 47 46 43 38 40 33 32 33
40 41 41 42 42 43 43 43 42 42 42 42 43 42 41 42 42 42 44 48 53 55 57 60 62 61 61 61 61 61 61 61 59 56 51 49 48 48 42 42 39 34 28
41 41 41 41 41 42 42 42 42 42 43 43 44 43 44 45 45 46 45 45 45 46 48 55 59 60 60 60 60 60 60 60 59 58 56 51 49 49 46 45 43 35 30
41 40 40 41 41 42 41 41 40 41 42 42 44 45 46 47 47 47 48 49 50 50 51 51 52 59 60 59 59 59 59 59 59 58 57 56 51 45 43 43 43 42 39
40 39 39 39 41 42 41 40 40 39 40 40 41 44 45 46 47 48 48 48 48 49 50 50 51 52 56 57 57 58 58 57 56 55 55 50 43 41 40 40 41 43 42
40 38 37 37 41 40 40 39 38 38 38 38 40 41 43 43 42 42 42 44 46 47 48 48 50 51 52 53 53 54 55 54 51 48 47 42 39 38 38 39 39 40 39
39 36 36 37 39 38 38 37 37 37 37 38 39 39 40 40 39 38 38 37 37 40 41 41 42 43 46 46 48 47 46 46 44 42 40 38 37 37 37 37 37 37 37
36 35 36 36 37 36 36 36 37 37 37 38 38 37 37 37 37 36 36 36 34 34 34 33 33 33 33 34 34 36 37 37 36 36 36 35 35 35 35 35 34 34 34
35 34 36 37 36 35 35 36 37 37 37 37 36 36 36 36 36 36 36 35 35 34 35 34 34 34 34 35 35 35 34 34 34 35 35 34 34 34 34 34 33 33 32
34 33 34 34 35 35 35 36 37 37 36 36 35 35 36 36 36 36 37 37 37 37 36 36 36 36 36 36 36 35 35 35 35 36 36 36 36 36 35 33 32 32 31
33 32 32 32 34 34 35 36 36 37 37 35 34 35 35 35 35 37 36 36 36 35 37 38 37 37 37 37 36 34 33 32 32 31 32 33 35 37 37 35 35 33 31
32 32 31 30 32 34 35 35 36 37 36 35 35 34 34 34 35 36 35 35 34 34 34 34 34 35 36 37 35 34 32 31 31 31 31 31 31 31 28 29 29 28 29
32 31 31 31 32 33 34 35 35 36 36 35 34 33 35 35 34 34 33 33 33 33 32 32 33 34 35 35 34 33 31 31 31 31 31 30 30 29 27 25 26 27 26
31 31 31 31 32 33 34 34 34 34 35 34 33 33 34 34 34 33 32 32 31 31 30 31 30 30 30 30 29 29 28 28 27 26 24 24 23 25 25 26 27 26 23
32 32 31 32 32 33 33 33 33 33 35 35 34 34 34 34 33 33 32 32 32 31 31 31 29 29 27 26 23 23 22 22 21 20 21 24 26 26 27 25 23 21 19
33 33 33 32 32 33 34 33 34 33 35 35 35 35 35 34 34 33 32 31 29 27 26 28 27 26 26 26 26 25 22 21 20 19 20 24 25 24 23 22 19 18 21
33 33 33 32 34 34 34 34 34 35 36 36 35 34 33 33 33 31 31 30 25 20 20 20 19 21 24 25 25 25 24 24 20 21 23 23 22 19 18 18 18 21 22
34 34 34 34 34 34 34 34 35 35 35 34 33 32 32 28 25 19 16 13 13 12 10 9 10 12 16 22 22 21 23 22 20 21 21 20 16 15 15 16 19 21 19
34 35 34 34 33 34 36 36 35 35 34 31 28 19 14 14 14 14 14 12 10 7 4 6 9 12 16 21 22 21 21 22 21 21 20 17 11 11 13 16 16 18 18
35 34 34 34 33 34 36 35 34 34 31 25 15 14 14 12 12 20 21 10 19 20 10 13 13 15 18 22 22 21 21 21 21 20 17 9 8 10 12 14 16 17 18
35 35 35 35 35 35 35 34 33 32 24 16 15 13 11 11 17 19 21 24 23 23 22 21 19 19 19 21 22 21 21 21 19 17 12 8 11 12 14 16 17 19 20

GFSMW_sfc_30mbdewp_063.txt.gz
Dewpoint
29 31 32 31 31 31 33 35 36 38 43 59 64 64 64 64 64 65 65 65 65 63 60 59 59 58 58 58 58 57 56 54 52 47 43 41 39 38 38 37 40 49 51
29 32 32 31 37 40 40 39 37 36 37 41 43 60 64 65 64 65 65 64 64 64 64 61 59 59 58 58 58 58 57 56 52 48 41 40 38 37 36 37 37 40 44
32 35 38 40 41 42 43 43 40 39 37 37 38 41 52 63 64 64 64 64 64 64 64 64 62 61 60 58 58 58 58 57 54 49 46 41 39 38 37 35 36 37 40
37 39 40 42 43 44 45 45 45 42 40 39 37 37 39 41 52 60 63 63 63 63 63 63 63 63 62 61 60 59 59 58 56 53 49 48 44 39 39 36 37 38 38
37 39 40 42 45 45 45 45 44 43 42 41 40 38 38 40 42 43 46 55 62 64 63 63 62 62 62 62 62 61 60 60 58 55 52 49 48 42 39 39 37 37 37
40 41 42 43 43 44 44 43 42 42 42 42 42 41 40 40 41 41 42 44 51 56 60 62 62 61 61 61 61 61 61 60 60 58 55 51 49 48 42 40 38 37 37
40 41 41 42 42 43 43 43 42 42 43 44 44 43 44 43 43 45 45 45 47 49 50 53 59 60 61 60 60 60 60 60 60 59 56 53 51 50 49 45 42 37 34
41 41 41 41 42 42 41 41 41 42 42 43 44 46 47 47 47 47 48 48 49 49 50 51 52 56 59 60 60 59 59 60 59 58 58 54 53 51 49 47 46 39 34
41 40 41 41 42 41 41 40 40 40 40 40 43 45 45 46 47 47 47 48 48 49 49 50 50 51 56 58 59 58 57 58 58 58 58 57 53 52 51 50 48 47 44
40 39 40 39 42 41 40 39 39 38 38 39 42 42 42 42 41 41 40 42 44 46 47 47 49 50 51 52 53 54 55 55 56 55 55 52 47 46 45 45 44 45 45
39 38 37 38 41 40 39 38 38 37 37 39 40 40 40 39 39 38 37 36 38 39 40 41 42 43 46 46 49 50 50 52 51 48 47 43 41 41 40 41 41 42 42
37 36 36 37 39 38 37 37 37 37 38 38 38 38 38 37 37 36 36 35 34 34 34 34 34 34 35 37 39 41 41 43 43 42 41 39 39 38 39 39 39 40 39
36 35 36 37 37 36 36 37 37 37 37 37 37 36 37 36 36 36 36 36 35 35 34 35 35 34 35 35 35 36 36 36 36 36 37 37 37 36 36 36 36 35 35
35 35 36 37 35 35 36 37 37 36 37 36 35 36 36 36 36 37 37 37 36 36 36 36 35 35 35 36 36 36 35 36 36 36 36 35 35 35 35 34 34 34 33
34 34 35 35 35 35 36 37 36 36 36 35 35 35 36 36 37 38 37 37 37 38 37 37 37 37 36 36 35 35 34 34 34 34 36 37 37 37 36 34 33 33 32
33 33 33 34 34 35 36 36 36 37 36 35 34 35 35 35 36 36 36 36 36 36 36 36 36 36 36 36 35 33 33 33 32 32 33 33 33 36 38 36 36 34 31
33 32 32 32 34 35 36 36 36 36 35 35 34 34 35 35 35 36 35 34 34 34 34 35 36 36 37 37 35 34 32 32 31 31 31 31 32 31 31 32 31 30 29
32 31 31 32 33 34 35 35 36 36 35 34 34 35 35 35 35 34 33 33 33 32 32 32 33 34 35 34 33 32 29 29 29 30 29 28 26 28 27 26 26 27 26
32 32 32 32 33 33 34 34 34 35 35 33 34 34 34 34 34 33 32 32 31 31 30 30 28 27 28 27 29 28 26 25 24 22 24 24 24 26 28 25 25 25 20
32 31 31 32 33 33 34 33 33 35 35 34 34 34 35 34 33 32 32 32 31 30 30 29 27 28 26 27 25 23 21 20 19 19 22 26 26 27 26 23 21 20 19
33 32 32 32 32 33 34 34 33 34 35 35 35 35 35 34 34 32 32 30 28 27 28 26 25 25 26 26 26 26 24 20 20 20 21 24 25 23 21 20 18 18 20
34 33 32 32 34 34 34 33 34 36 36 35 34 33 34 33 33 32 30 28 24 21 20 20 19 22 23 24 24 24 24 23 20 21 23 22 20 18 18 18 18 21 22
34 34 33 33 34 34 35 34 35 36 35 35 34 33 33 33 31 25 22 20 18 15 13 12 11 13 18 21 24 24 23 22 20 22 22 21 17 16 15 16 18 20 18
34 34 33 33 33 34 35 35 36 36 35 34 32 31 27 21 19 15 15 12 10 8 5 7 10 12 18 22 22 21 21 22 20 21 19 17 12 12 13 14 16 17 18
35 35 34 34 33 33 35 35 36 35 34 31 26 17 14 14 16 20 13 13 19 16 9 11 13 14 18 21 23 21 21 22 22 19 14 11 9 11 12 15 17 18 19
35 34 35 34 34 34 35 35 35 34 32 27 15 14 14 11 16 20 23 24 23 23 22 22 18 20 20 21 22 21 21 21 21 17 13 11 13 13 14 15 16 18 19

GFSMW_sfc_30mbdewp_066.txt.gz
Dewpoint
30 31 32 31 33 37 36 36 37 38 55 63 63 63 63 63 63 64 64 65 65 63 61 60 60 59 58 57 57 56 55 55 53 50 46 43 42 40 39 39 40 54 55
30 32 32 38 39 40 40 39 38 37 37 42 47 61 63 64 64 64 64 64 64 64 64 62 60 59 59 58 58 58 57 56 53 51 45 46 44 40 39 39 38 40 52
31 35 38 40 42 43 43 44 43 40 38 37 38 41 47 62 63 63 64 64 64 64 63 63 63 61 59 59 58 58 57 57 55 52 53 45 46 41 39 38 37 38 41
35 38 40 42 43 44 45 45 45 43 41 41 38 37 38 40 50 52 58 59 62 63 63 63 63 63 61 60 59 59 58 58 56 55 53 49 44 43 42 38 40 41 40
38 40 41 44 45 45 44 43 43 43 43 42 42 40 39 40 41 42 42 43 48 57 62 62 62 61 61 61 61 60 59 59 58 56 55 53 51 46 43 47 42 42 42
39 41 43 44 43 43 43 43 42 43 43 43 43 43 42 41 41 43 44 45 48 52 51 54 60 61 60 60 60 60 60 59 59 59 58 55 52 51 48 45 45 42 42
41 42 42 42 42 42 42 42 42 43 43 45 46 47 47 46 47 47 48 48 48 49 50 51 52 56 59 60 60 59 59 59 59 58 58 57 56 55 53 51 49 45 42
41 41 41 42 42 41 41 41 41 41 41 43 45 46 47 47 47 48 48 48 48 49 49 50 50 51 56 58 59 59 59 58 57 57 57 57 56 55 53 52 49 43 39
41 41 41 41 42 41 40 40 40 39 40 43 43 43 42 42 42 42 42 44 46 47 47 48 48 50 51 52 53 56 56 55 55 55 54 55 55 54 53 52 51 49 45
41 40 40 41 42 41 39 39 38 38 39 40 41 40 40 39 38 37 37 37 39 40 41 43 43 45 45 46 49 49 49 50 51 50 50 49 47 46 45 46 47 47 47
40 39 39 40 41 40 38 38 37 37 38 39 39 38 38 37 37 36 36 35 35 35 35 36 36 37 38 40 43 43 44 45 45 43 43 41 41 41 41 42 43 43 44
39 37 37 39 39 38 37 37 37 37 38 38 37 37 37 36 36 36 36 35 35 35 35 35 35 35 35 36 37 39 39 40 39 39 39 38 39 38 39 39 39 40 39
37 36 36 38 38 36 37 37 37 37 37 36 36 36 36 36 36 36 36 36 35 35 35 35 35 36 36 36 36 36 36 36 36 36 36 36 36 36 36 35 35 35 35
36 35 36 37 36 36 37 37 36 37 36 35 35 36 36 36 38 37 37 37 38 37 37 37 37 36 35 35 35 36 36 36 36 36 36 35 35 35 34 34 34 34 33
35 35 36 36 35 36 37 36 36 36 35 35 35 35 36 37 37 36 36 37 37 37 37 37 35 35 35 35 34 34 34 34 34 34 35 37 38 37 36 34 33 33 33
35 34 34 35 35 36 36 36 36 35 35 35 34 35 35 36 36 36 36 36 36 36 36 36 37 35 36 36 35 33 32 33 32 31 32 33 34 34 37 37 36 34 31
34 33 33 34 35 36 36 36 36 36 35 34 34 35 36 35 35 35 35 34 34 34 34 35 36 36 37 36 35 34 31 30 30 30 29 29 30 29 28 28 28 29 30
33 32 32 32 34 35 36 36 36 36 35 34 35 35 35 35 35 34 33 33 32 32 32 32 32 32 31 31 31 29 26 27 27 27 25 23 24 26 26 26 26 26 24
33 32 31 32 34 35 35 35 35 35 35 34 35 35 35 34 34 32 32 32 31 30 28 27 26 25 26 28 27 25 22 20 20 23 25 24 26 27 28 24 23 22 19
32 32 32 33 33 34 35 34 34 35 34 34 34 35 35 35 33 32 32 32 29 29 29 26 26 28 27 28 25 22 20 19 19 20 23 27 26 25 24 21 20 20 19
32 31 32 32 33 34 34 33 34 35 35 34 34 35 35 34 33 33 31 29 29 28 27 25 24 25 26 26 26 26 23 20 20 20 22 24 25 21 20 20 17 17 20
33 32 32 32 33 34 34 33 34 35 35 35 35 34 34 34 33 30 29 27 24 23 22 20 20 21 22 25 24 24 23 23 20 20 21 21 22 18 18 18 19 21 23
34 33 32 33 34 34 34 33 35 36 35 35 34 33 33 33 32 30 28 27 24 18 17 15 11 12 17 21 26 24 25 24 21 22 22 20 20 16 15 18 19 21 18
34 34 33 33 33 34 35 35 36 36 35 34 33 32 32 32 30 23 18 16 13 12 8 7 9 12 17 22 22 21 21 23 22 22 17 16 13 14 14 15 16 17 18
35 34 33 33 33 34 35 36 36 36 34 34 32 31 29 26 17 15 11 12 14 10 6 8 10 12 15 20 23 22 21 22 22 20 15 10 11 12 13 15 17 18 19
35 35 34 34 34 34 35 35 36 35 34 32 29 24 17 15 17 21 20 22 23 23 21 21 16 19 21 21 22 22 22 22 22 18 12 11 13 14 15 15 16 18 19

GFSMW_sfc_30mbdewp_069.txt.gz
Dewpoint
30 32 32 33 36 37 36 38 45 44 59 63 63 63 62 63 63 64 64 64 64 62 61 60 59 58 57 56 56 56 56 55 54 52 51 49 47 45 43 42 40 50 56
30 31 36 37 39 39 39 38 38 37 38 47 56 62 63 63 63 63 63 64 64 64 64 62 61 60 59 59 58 57 56 55 54 53 48 51 50 44 43 41 40 39 50
30 33 37 39 42 42 43 44 43 39 38 37 39 41 45 60 62 62 63 63 64 64 64 64 63 62 60 59 59 58 57 57 56 54 55 50 48 46 43 41 40 40 40
32 36 39 41 42 44 45 44 44 43 42 41 38 37 37 39 46 50 50 46 52 58 62 62 62 62 62 60 60 59 58 57 57 54 53 54 48 50 50 42 40 42 41
34 38 41 43 45 44 43 43 43 43 43 43 41 40 38 40 41 42 41 43 46 53 52 57 61 61 61 61 60 60 59 58 58 56 55 54 53 48 47 49 49 44 43
38 41 43 44 43 43 43 43 43 44 45 45 44 43 42 41 42 45 46 47 49 50 50 51 53 58 60 60 60 60 59 59 58 58 57 56 54 52 50 49 49 48 47
40 42 43 42 42 42 41 42 42 42 44 46 46 47 47 47 47 47 47 47 48 48 49 49 50 52 56 58 59 59 58 58 58 58 57 57 57 56 55 52 51 50 44
41 42 42 42 42 41 41 41 41 40 43 45 44 45 46 46 46 46 46 46 47 48 47 48 49 50 51 55 57 57 57 56 55 55 55 54 55 56 55 53 51 47 44
41 41 42 42 42 41 40 40 39 39 42 42 42 41 40 40 40 39 39 41 42 44 43 45 45 46 46 48 50 51 50 51 51 51 50 50 49 48 49 51 51 49 46
41 41 41 41 41 40 39 39 38 39 40 40 40 39 38 38 37 37 36 36 36 36 37 38 39 40 41 43 45 45 47 47 46 46 46 44 44 44 43 44 46 46 46
40 40 40 41 41 40 38 38 38 38 38 38 38 37 37 37 36 36 36 35 35 35 35 36 36 36 37 38 41 41 42 43 42 42 41 40 41 40 40 41 41 42 42
40 40 39 41 40 38 37 37 37 38 38 37 37 37 37 37 36 36 36 35 35 35 35 36 36 36 36 36 37 37 37 38 38 38 38 38 38 38 38 38 37 38 38
39 38 37 39 39 37 37 37 37 37 37 36 36 36 36 37 36 37 37 37 37 37 37 36 36 36 36 36 36 36 36 36 36 36 36 36 36 35 35 35 35 35 35
38 37 36 38 38 36 37 37 37 36 36 36 36 36 36 38 37 36 37 37 38 37 36 36 36 35 34 34 35 35 35 36 36 37 37 36 35 34 34 33 33 34 34
37 36 36 36 36 36 37 36 36 36 35 35 35 35 36 37 37 36 36 36 36 36 36 35 34 35 35 35 33 34 34 34 33 34 35 36 37 36 36 34 33 33 33
37 36 36 36 35 36 36 36 36 35 35 35 34 35 36 36 36 36 36 35 35 36 36 37 36 36 35 36 36 33 32 32 31 30 32 32 30 30 33 34 33 33 30
37 35 35 35 35 36 36 36 36 35 34 34 35 35 36 36 35 35 34 34 34 34 34 35 35 35 36 35 34 33 30 28 26 24 23 25 27 27 26 28 28 28 29
36 34 34 34 35 36 36 36 36 35 35 35 35 35 35 35 35 34 33 32 33 32 31 30 29 29 29 29 28 28 23 22 22 23 22 24 25 28 26 24 26 22 23
35 33 33 33 35 35 36 36 36 35 35 34 35 35 35 35 34 32 32 32 31 29 27 25 25 25 26 28 26 22 20 19 20 22 25 26 26 26 26 21 21 21 21
33 32 32 33 34 35 36 35 35 34 34 34 35 35 35 34 33 32 32 30 28 28 26 25 26 28 26 28 26 22 19 19 19 20 22 26 26 24 22 21 18 14 17
32 32 32 32 33 35 34 34 34 34 35 35 35 35 35 34 33 33 31 28 28 27 25 24 24 25 25 25 26 26 22 19 20 20 20 21 23 21 20 21 18 17 21
32 32 32 32 33 34 34 33 34 36 35 34 35 35 35 33 33 31 29 28 27 26 23 20 20 20 21 27 25 25 24 23 20 19 21 22 24 22 18 17 19 21 22
34 33 32 32 33 34 34 33 34 36 35 35 34 34 34 33 32 28 27 25 23 20 18 17 12 11 17 20 26 24 23 24 22 21 23 19 19 16 15 17 19 21 18
34 34 33 32 33 34 34 33 35 35 35 34 33 33 33 32 31 29 27 26 22 19 14 11 9 10 14 20 22 21 21 23 22 23 18 15 14 15 15 16 16 17 18
35 34 33 33 33 34 34 35 36 35 34 34 33 32 32 32 30 25 18 16 14 13 10 7 8 10 10 16 23 23 22 22 23 21 16 10 12 12 13 14 16 18 19
36 35 34 33 33 34 35 35 36 35 34 33 32 31 31 28 22 17 18 20 19 24 24 18 14 14 19 21 22 23 22 22 23 19 16 12 12 13 14 15 15 17 18

GFSMW_sfc_30mbdewp_072.txt.gz
Dewpoint
31 31 32 32 35 37 38 41 55 51 62 63 63 63 63 63 63 64 64 64 63 62 62 61 60 58 57 57 57 57 56 56 56 55 54 53 52 51 49 48 45 44 50
30 31 33 36 37 38 38 38 38 37 42 55 60 62 62 62 63 63 63 63 64 64 63 62 60 59 58 57 57 56 55 55 55 54 51 52 52 48 47 46 44 43 44
30 31 36 38 40 41 42 42 41 39 39 38 39 41 45 57 60 61 62 62 62 63 63 63 63 62 60 60 59 58 57 57 56 55 55 53 50 48 48 46 43 42 41
30 33 37 40 42 44 44 44 43 42 42 41 38 36 37 38 44 47 46 44 46 53 56 60 62 62 62 61 60 59 58 57 57 55 54 54 51 52 51 47 44 42 41
30 34 39 42 44 43 42 43 43 43 43 43 41 40 39 40 41 42 43 45 49 50 51 52 54 59 60 60 60 60 59 57 57 56 55 54 54 51 50 50 50 47 46
31 38 43 44 43 43 42 43 43 44 46 46 45 44 42 41 42 45 46 48 49 49 49 50 50 53 56 59 59 59 59 58 58 58 57 56 53 52 51 49 50 49 50
35 40 43 42 42 41 42 42 42 42 45 46 46 47 47 47 47 47 47 47 47 48 47 48 49 50 52 56 58 58 58 58 57 57 56 56 56 55 54 53 51 50 47
39 42 43 42 42 41 41 41 40 42 44 44 43 43 44 44 43 43 44 44 45 46 44 45 46 46 47 50 53 56 55 55 54 53 53 53 52 52 52 51 50 47 46
40 42 42 42 41 41 40 40 39 42 42 42 41 40 39 39 38 38 38 38 37 38 39 40 41 42 43 46 48 48 50 51 50 49 49 50 47 47 47 47 48 47 43
41 41 41 42 41 40 40 39 39 40 40 40 39 38 37 37 37 37 36 36 36 36 36 37 37 38 39 42 43 44 46 46 46 45 44 44 43 43 43 44 44 45 44
41 41 41 42 41 39 38 38 38 39 38 38 38 37 37 36 36 36 36 35 35 36 36 36 37 36 37 38 39 40 42 43 42 42 41 40 40 40 40 41 41 41 41
41 41 41 41 40 38 38 37 38 38 37 37 37 37 37 36 36 36 36 36 36 36 36 36 36 36 36 36 37 37 37 37 37 37 37 37 37 37 37 37 36 36 37
40 40 39 40 39 38 37 37 37 37 37 37 36 36 37 36 36 36 37 37 37 37 36 36 35 35 35 35 35 36 36 36 36 36 35 35 35 35 34 34 33 34 34
40 38 38 39 39 37 37 37 37 36 36 36 36 36 37 37 36 36 36 36 37 36 35 35 35 34 34 34 35 35 35 35 35 36 37 36 35 34 34 34 34 34 33
38 38 37 37 38 37 37 36 37 36 36 35 35 36 37 37 37 36 36 36 36 36 35 35 35 35 35 35 34 34 34 33 33 33 34 33 35 37 36 34 32 29 29
37 37 37 36 37 36 36 36 36 36 35 35 35 36 36 36 36 36 36 35 35 36 36 37 37 36 35 36 34 33 31 31 31 29 27 29 27 28 30 30 30 30 29
38 37 36 36 36 36 36 36 36 35 35 34 35 35 36 36 35 35 34 34 34 35 34 33 33 33 33 33 32 29 26 23 22 22 24 26 28 26 24 28 26 27 28
37 37 36 35 36 36 36 36 36 35 34 34 35 35 35 35 35 34 33 33 33 32 29 28 29 29 29 28 26 25 21 22 23 23 24 25 26 27 23 22 23 22 23
38 37 35 35 35 36 36 36 36 35 35 35 35 36 35 35 34 33 33 32 31 28 25 25 25 26 27 27 25 21 19 19 20 22 26 26 24 25 25 21 18 17 20
35 34 33 34 35 36 36 36 35 35 34 35 35 35 36 34 33 33 32 30 28 27 25 26 26 28 26 28 26 21 19 18 19 20 21 24 24 23 22 20 18 13 17
33 32 33 33 34 35 35 35 34 34 34 35 35 35 35 34 33 33 30 27 28 26 24 23 23 24 25 25 27 26 21 19 19 19 20 21 25 23 21 20 18 19 21
33 32 32 32 34 35 35 34 34 35 35 35 35 35 35 34 33 32 29 28 27 26 23 20 19 20 21 26 27 26 25 24 20 19 21 22 21 21 19 17 19 21 21
33 32 32 32 33 34 34 33 33 35 35 34 35 35 34 33 32 30 28 27 25 24 21 18 15 11 14 19 25 24 23 24 22 21 23 19 18 17 16 17 19 21 18
34 33 33 32 33 33 34 34 34 35 35 34 34 34 33 33 31 29 27 25 23 20 18 16 14 10 11 16 21 21 20 22 22 23 19 15 14 15 15 15 17 17 18
38 37 36 33 33 33 34 34 35 35 34 34 33 33 33 33 31 29 26 25 23 21 17 13 10 8 9 11 20 22 21 21 22 22 17 12 11 12 13 14 15 16 18
36 35 34 34 33 33 34 34 36 35 34 34 33 32 32 31 31 29 24 23 21 20 21 18 13 11 15 18 22 24 23 23 23 21 16 12 12 12 13 14 15 16 17

GFSMW_sfc_30mbdewp_075.txt.gz
Dewpoint
34 32 32 32 38 39 44 52 61 61 63 63 63 63 62 63 63 63 63 62 62 62 63 63 62 61 60 60 60 59 58 58 58 56 56 56 56 55 55 55 54 52 50
33 32 32 35 36 37 39 41 47 46 55 62 63 63 63 63 63 64 64 64 64 64 64 63 62 61 60 59 59 58 57 57 57 56 54 54 54 53 52 51 50 49 47
32 31 33 36 39 40 41 40 39 39 39 41 44 46 49 57 60 62 62 56 57 61 63 64 64 63 61 61 61 59 58 58 57 57 56 54 52 50 51 49 47 46 45
31 32 34 38 40 43 45 43 43 42 42 41 38 37 38 40 45 47 46 45 50 52 53 55 59 61 62 61 61 60 59 59 58 56 56 56 53 53 51 51 49 47 48
32 31 35 40 43 44 43 43 43 44 44 43 42 40 39 40 42 44 45 47 50 50 50 51 52 56 59 60 61 61 59 59 58 57 56 56 55 53 52 50 52 51 51
32 32 39 43 43 43 43 44 44 45 46 46 46 44 43 42 43 46 47 48 49 49 48 49 50 52 55 57 58 59 59 59 58 58 57 56 54 53 51 50 50 50 52
31 35 41 43 42 42 43 43 43 45 46 46 47 47 47 47 47 47 46 46 47 47 45 47 47 48 50 52 56 58 58 58 58 57 57 57 56 56 54 53 51 50 50
32 37 42 43 42 41 42 41 43 44 44 44 43 43 44 43 42 42 44 43 43 44 42 43 44 44 46 48 51 55 55 55 55 54 53 53 51 50 50 51 50 47 47
36 40 43 42 41 41 41 40 42 43 42 42 41 40 39 39 39 38 38 38 37 38 38 39 40 40 42 45 47 49 51 51 50 50 50 49 47 47 47 47 48 47 43
39 42 42 42 41 41 40 40 41 41 41 40 39 38 37 37 37 37 36 36 36 37 37 38 38 38 39 42 43 45 47 46 46 46 45 45 44 44 44 44 44 45 45
40 42 42 42 41 40 39 38 39 39 39 38 38 37 37 37 36 36 36 36 36 36 37 37 37 37 38 39 40 41 43 43 42 42 41 40 40 40 40 41 41 41 41
41 41 41 41 40 39 38 38 38 38 38 37 37 37 37 37 36 36 36 37 37 37 36 36 36 36 37 37 37 37 37 37 37 37 37 37 37 37 37 37 36 36 37
41 41 41 41 40 38 38 37 38 38 37 37 37 37 37 36 36 37 37 37 36 36 36 35 35 35 36 36 36 37 37 37 36 35 35 35 35 35 35 35 35 35 35
40 40 40 40 40 38 37 37 37 37 37 36 36 36 37 37 36 37 37 37 36 35 35 35 35 35 35 36 36 36 36 36 36 37 37 35 35 34 34 34 33 34 35
40 39 39 39 39 38 37 37 37 36 36 36 36 36 37 37 37 37 36 36 36 35 35 35 36 36 35 35 34 34 34 34 33 32 32 33 35 35 35 34 33 31 29
40 39 38 38 39 38 37 37 37 36 36 35 35 36 37 36 37 37 36 36 36 36 37 37 36 36 36 35 35 33 32 32 31 28 28 29 27 29 30 30 30 30 29
37 38 38 37 37 37 37 36 36 36 35 35 35 36 36 36 36 36 35 35 35 35 34 34 34 34 34 34 31 26 24 24 25 26 28 28 28 25 25 27 27 29 28
37 38 38 37 37 37 37 37 36 35 35 35 35 36 36 35 35 34 34 34 33 31 30 30 30 30 28 27 27 26 24 25 25 25 26 27 26 27 21 21 24 23 25
37 38 37 37 36 36 37 36 35 35 35 35 35 36 36 35 34 33 33 33 31 28 26 27 27 28 28 26 24 22 21 21 22 23 26 25 25 25 25 21 17 14 20
37 36 35 35 35 36 36 36 35 35 35 35 35 36 36 35 34 34 33 32 29 27 27 27 27 29 28 26 24 21 19 18 18 20 20 24 24 23 23 20 16 15 19
34 33 34 34 35 36 36 35 35 35 35 35 36 36 36 35 34 33 31 29 28 26 25 25 24 25 25 26 28 25 19 18 18 18 19 21 24 25 22 22 17 20 22
33 33 33 33 35 36 36 35 35 35 35 35 35 36 35 34 34 32 29 29 27 25 23 21 20 21 22 27 27 26 26 24 19 18 20 23 21 20 19 17 20 24 21
33 33 33 33 34 35 35 34 34 35 35 35 35 35 34 34 33 31 28 27 26 25 22 19 16 12 14 19 26 25 24 25 22 20 23 20 17 17 16 18 20 20 18
34 33 33 32 33 34 34 34 34 35 35 34 34 34 34 33 32 31 29 27 25 24 21 17 16 14 11 14 19 22 22 22 22 23 22 17 15 15 15 14 16 17 18
36 35 34 33 33 33 34 34 34 35 35 34 34 34 34 34 31 30 28 27 24 22 19 17 15 11 9 10 16 21 20 21 22 24 20 15 12 12 12 13 15 16 17
39 39 38 38 38 36 34 34 34 35 34 34 33 33 33 33 32 31 29 29 27 26 27 23 16 11 13 16 21 24 26 25 24 22 20 14 12 12 11 12 14 15 17

GFSMW_sfc_30mbdewp_078.txt.gz
Dewpoint
39 37 33 34 51 54 57 62 63 64 64 64 63 63 63 64 64 64 64 64 62 61 62 63 63 63 62 61 61 61 61 60 60 58 57 57 57 56 56 56 54 54 55
39 36 35 33 37 47 48 53 59 62 63 64 64 64 64 64 63 64 64 64 64 65 65 65 64 64 63 63 62 61 60 60 59 58 58 55 51 50 54 54 54 53 52
40 36 34 34 37 38 40 43 48 51 54 60 60 59 59 62 63 64 64 59 59 62 63 64 64 64 64 63 63 62 61 60 60 59 58 54 48 52 53 52 51 51 50
40 36 33 34 38 40 45 43 42 43 43 42 44 48 51 52 51 52 51 48 50 52 54 55 56 60 62 62 62 62 62 61 60 59 59 58 56 54 52 53 52 51 52
40 35 34 36 40 45 45 44 44 44 44 43 42 41 40 41 42 43 44 46 50 50 51 51 52 54 56 58 59 60 61 60 59 59 58 57 58 56 54 52 52 53 51
38 36 35 40 43 45 45 46 45 45 46 46 45 45 44 43 43 46 46 47 49 49 49 49 50 52 53 55 56 58 60 60 60 60 59 57 55 54 53 52 52 51 51
39 36 36 40 43 44 45 45 45 45 46 47 47 47 47 47 47 47 47 47 47 48 46 47 48 48 49 51 54 56 58 59 59 58 58 57 57 56 54 54 52 50 51
36 35 35 40 42 44 44 43 44 45 45 45 45 46 46 45 45 45 45 44 44 44 43 43 44 44 45 48 51 54 55 56 57 56 56 54 52 52 52 51 50 48 48
29 32 35 41 42 43 43 42 44 44 44 43 43 42 42 43 42 41 41 40 40 39 40 41 41 42 43 45 48 51 52 52 52 51 51 49 48 48 49 48 48 47 44
31 35 40 42 42 42 42 42 42 42 42 42 41 40 40 40 39 39 39 39 38 39 39 39 40 40 41 43 45 47 48 48 48 48 47 47 46 46 46 46 46 46 46
35 38 41 42 41 41 41 41 41 41 40 40 39 39 38 38 38 38 38 38 38 38 38 38 39 39 39 40 42 43 44 45 44 44 43 42 42 42 43 43 43 43 43
38 40 42 42 41 40 40 40 40 39 39 39 38 38 38 38 38 37 37 38 38 37 37 37 38 38 38 39 39 39 40 41 40 40 40 39 39 39 39 39 38 39 39
40 41 42 41 40 40 39 39 39 39 38 38 38 38 38 38 37 38 38 37 37 37 36 36 36 37 38 38 38 38 38 37 37 37 37 37 37 37 37 37 38 38 37
40 41 41 41 41 40 39 39 39 38 38 38 38 38 38 38 38 38 38 37 37 36 36 36 36 36 37 37 37 37 37 37 37 37 36 36 36 36 36 36 35 35 37
39 40 41 41 41 40 39 39 38 38 38 37 37 38 38 38 38 37 37 37 36 36 36 36 36 36 36 36 36 36 36 35 34 34 34 34 34 34 34 33 33 33 32
39 40 41 41 41 40 39 38 38 38 37 37 37 37 37 37 38 37 37 37 36 37 36 36 35 35 35 37 36 35 35 34 33 31 31 29 27 30 30 30 31 29 27
35 40 40 40 40 40 39 38 38 37 37 36 36 37 37 37 37 36 36 36 36 37 36 36 35 36 35 34 32 29 29 28 29 31 30 28 27 22 24 26 28 29 29
32 37 40 40 40 39 39 38 37 37 36 36 36 36 37 37 36 36 35 35 35 34 33 33 31 30 29 28 27 27 29 30 30 30 29 27 26 27 20 18 23 24 24
34 36 39 39 39 38 38 37 37 37 36 36 36 36 37 36 36 35 35 35 33 31 31 31 31 29 26 27 27 25 24 25 24 25 25 23 23 25 25 20 15 11 18
37 38 38 38 38 37 37 37 36 36 36 36 36 37 37 36 35 35 34 33 32 30 30 30 29 29 27 26 24 21 17 16 16 17 18 25 24 23 24 19 13 14 18
36 36 36 36 37 37 37 36 36 36 36 37 36 36 37 36 35 35 33 32 30 30 29 29 28 28 28 27 26 22 16 14 15 15 15 18 25 24 24 23 14 19 21
35 35 35 35 36 37 37 37 37 37 37 36 36 36 36 35 35 34 32 31 29 27 25 24 22 22 24 28 28 29 25 22 16 14 16 19 21 20 19 17 19 24 24
34 35 35 35 36 37 37 36 37 36 36 36 36 36 36 34 34 32 31 30 29 24 21 19 16 16 18 21 28 27 27 27 20 18 21 21 18 18 15 17 20 23 16
34 34 34 34 34 35 36 36 36 36 35 35 35 35 35 34 33 32 30 29 26 23 21 19 15 14 11 13 18 24 23 24 24 23 24 19 16 16 16 13 14 14 14
36 35 34 33 34 34 34 35 35 35 35 34 35 35 34 34 33 32 31 30 26 24 22 19 16 15 13 11 13 17 19 18 19 22 22 19 13 10 9 10 11 13 14
40 39 38 37 37 36 35 35 35 36 35 34 34 34 34 34 33 32 31 31 28 28 27 23 21 17 16 14 18 20 22 21 23 24 20 17 13 11 9 9 9 12 14

GFSMW_sfc_30mbdewp_081.txt.gz
Dewpoint
40 38 36 38 53 62 62 63 63 63 63 63 63 63 63 63 64 63 63 63 63 62 62 62 62 62 62 61 61 60 60 61 61 60 59 59 59 58 57 56 55 54 54
39 38 36 35 38 54 56 60 62 63 63 63 63 63 63 63 63 64 64 64 64 63 63 63 64 65 64 63 63 62 61 61 61 59 58 56 54 51 51 54 54 53 53
37 40 37 36 36 43 48 50 56 61 62 63 64 63 63 64 64 64 63 63 61 63 63 63 64 64 64 63 63 63 62 60 61 60 59 54 50 51 53 53 53 52 51
37 40 37 34 36 37 43 43 46 50 51 55 58 60 60 59 57 58 58 54 53 54 54 55 56 58 61 62 62 62 62 61 59 61 60 60 58 54 51 52 52 52 52
37 40 38 36 37 42 46 44 43 44 44 44 43 44 43 42 43 43 44 45 49 50 50 51 52 52 54 56 57 57 58 60 59 59 59 58 58 57 55 52 52 54 53
38 40 38 37 40 46 47 46 44 44 45 45 44 44 44 43 43 45 45 46 48 49 49 49 50 51 52 54 55 56 57 57 58 59 59 57 56 55 54 53 53 52 52
37 41 38 38 40 45 46 46 45 45 46 46 46 46 47 46 46 46 46 46 46 48 47 47 48 48 48 49 51 53 55 56 57 57 57 58 57 57 55 54 53 51 51
37 41 38 38 41 44 45 45 45 45 45 46 46 46 47 46 45 46 46 45 44 45 44 44 44 44 45 46 48 51 53 55 55 55 56 54 53 53 53 53 51 49 49
32 34 38 37 40 43 44 43 44 44 44 44 44 44 44 44 44 43 43 42 41 40 40 41 42 42 43 44 46 49 51 52 53 52 51 50 49 49 50 50 50 49 45
30 31 34 36 41 43 43 43 43 43 43 43 42 42 41 41 41 41 40 40 39 39 40 40 40 41 41 42 44 47 48 49 48 49 48 48 47 47 47 47 47 47 46
31 33 36 40 42 42 42 42 42 42 42 41 40 40 39 39 39 39 38 38 39 39 39 39 39 39 40 40 41 43 44 45 45 44 44 43 44 44 44 45 44 44 44
35 36 39 41 41 42 41 41 41 41 41 40 39 39 39 39 39 38 38 38 38 38 38 38 38 38 39 39 40 40 41 42 41 41 42 41 41 41 40 40 40 40 40
37 38 40 41 41 41 40 40 40 40 40 39 39 39 39 39 38 38 38 38 38 37 37 37 37 37 38 39 39 39 39 38 38 38 38 38 39 39 39 39 39 39 39
38 39 40 40 40 40 40 40 39 39 39 39 38 39 39 39 38 39 38 38 37 37 37 37 36 37 37 37 38 38 38 38 38 37 37 37 37 37 37 37 36 36 37
37 39 40 40 40 40 40 39 39 39 39 38 38 38 39 39 38 38 38 38 37 37 37 37 36 36 37 36 37 37 37 36 35 34 34 34 33 33 33 34 33 33 33
34 38 40 40 40 40 40 40 39 39 39 38 38 38 39 38 38 38 38 37 37 37 36 36 36 35 35 37 37 36 35 35 34 33 31 28 27 31 30 31 31 29 28
31 36 39 40 41 41 41 40 39 39 38 38 38 38 38 38 38 38 37 37 37 37 37 36 36 35 35 35 35 34 33 32 32 32 30 27 25 22 24 26 28 29 28
33 33 36 39 41 41 41 40 39 38 38 38 37 37 37 37 37 37 36 36 36 36 35 35 35 34 32 30 29 31 31 31 32 31 30 28 27 26 20 19 22 23 24
30 31 32 37 40 41 40 39 38 38 38 38 37 37 37 37 37 36 36 36 35 33 33 32 31 29 28 28 27 26 27 27 27 25 24 23 23 26 25 21 16 11 18
33 36 36 39 40 40 39 38 38 37 37 37 37 37 38 37 36 36 36 35 34 32 33 32 31 30 27 27 26 22 18 18 17 18 21 26 26 24 25 21 14 15 19
37 38 39 38 39 38 38 38 37 37 37 38 37 37 37 37 36 36 35 33 32 31 31 29 29 27 26 25 25 23 15 14 15 15 15 18 25 24 25 23 17 20 22
36 37 37 37 37 38 38 38 38 38 38 38 37 37 37 37 36 35 33 32 31 30 29 27 25 25 25 28 30 27 25 20 16 15 15 21 21 20 20 19 17 23 26
36 37 37 37 37 38 38 38 39 38 37 37 37 36 36 36 35 34 32 31 30 29 26 23 20 19 20 22 29 29 29 28 22 18 19 22 19 18 17 16 20 25 20
35 35 35 35 36 37 37 37 38 37 36 36 36 36 35 35 34 33 32 31 30 30 24 19 17 16 16 17 21 28 28 26 26 22 24 23 18 16 16 15 17 17 14
36 35 35 35 35 35 35 36 36 36 36 36 35 35 35 35 33 33 31 31 31 29 22 20 19 17 16 14 16 18 22 22 23 22 22 21 18 13 12 11 11 12 14
41 40 39 37 36 35 35 35 36 36 36 36 36 35 35 35 33 32 32 33 32 29 27 26 22 19 19 16 17 18 20 21 20 22 21 20 18 14 11 9 10 12 13

GFSMW_sfc_30mbdewp_084.txt.gz
Dewpoint
43 39 38 40 56 62 62 62 63 63 63 63 63 63 63 63 63 63 62 62 63 62 63 63 62 62 62 61 61 60 61 61 61 61 60 60 60 59 59 58 57 56 55
38 37 37 38 41 60 62 63 63 63 64 64 64 64 63 64 64 63 64 64 65 65 65 64 64 65 64 64 63 63 62 61 60 59 59 55 54 55 55 56 54 53 52
38 38 36 37 36 46 56 58 62 63 64 64 64 64 63 64 64 64 64 58 59 60 61 62 63 63 64 63 63 63 62 60 61 60 58 54 51 53 54 54 53 52 52
36 39 37 37 37 38 46 45 51 56 56 59 62 62 61 61 57 59 58 53 53 53 53 53 54 55 59 61 61 61 61 61 58 60 60 60 57 53 51 53 53 53 53
37 38 37 35 38 44 45 44 45 47 47 49 51 56 50 46 45 45 46 48 50 50 50 51 52 53 54 55 56 57 57 57 58 58 56 58 57 57 55 52 53 54 53
36 37 39 37 42 46 46 46 44 44 45 45 44 43 43 42 43 45 45 47 50 50 49 49 50 50 51 51 53 55 55 55 56 56 57 57 56 54 55 54 53 53 52
35 37 38 38 43 46 47 46 45 45 46 46 46 46 46 45 46 47 47 47 48 49 46 47 47 47 46 47 49 51 53 54 55 56 57 57 57 57 55 54 53 52 51
35 37 39 39 43 46 47 46 45 46 46 47 47 48 47 47 46 46 46 44 44 44 43 43 44 44 44 45 46 49 52 53 54 53 54 54 53 54 54 53 52 50 50
31 38 40 40 44 46 46 45 45 45 46 46 45 45 45 44 44 43 43 42 42 40 40 41 41 42 42 43 45 47 49 49 52 52 51 50 49 50 50 50 50 49 46
30 32 35 40 44 45 45 44 45 45 44 44 43 42 42 42 41 41 40 40 39 39 40 40 40 40 41 41 42 45 47 47 47 48 49 48 48 47 47 47 47 47 46
31 32 34 39 43 44 44 44 44 43 43 42 41 40 40 39 39 39 39 39 39 39 39 39 39 39 39 40 41 42 43 44 45 44 44 43 44 44 44 45 44 44 44
34 35 37 42 43 43 43 43 43 42 42 41 40 40 39 39 39 38 38 38 38 38 38 38 38 38 39 39 39 40 41 42 41 42 42 41 42 40 40 40 40 40 40
36 37 39 41 41 42 42 42 42 41 41 40 39 39 39 39 38 38 38 38 38 38 37 37 37 37 38 38 39 39 38 38 38 38 38 39 39 39 39 39 39 39 39
37 38 40 40 41 41 41 41 41 40 40 39 39 39 39 39 39 39 38 38 38 37 37 37 37 37 37 38 38 38 38 38 37 37 37 36 36 36 37 36 35 36 37
37 38 40 40 41 41 40 40 40 40 39 39 39 39 39 39 39 39 38 38 38 37 37 37 36 36 37 37 37 38 37 36 35 35 34 34 34 34 34 32 30 31 34
30 38 40 41 41 40 40 40 40 39 39 39 39 39 39 39 38 38 38 38 37 37 36 37 36 36 35 38 38 36 35 35 34 31 29 28 31 31 31 31 30 30 28
33 33 39 41 41 41 40 40 40 39 39 39 39 39 39 38 38 38 38 37 37 37 37 37 36 35 35 37 37 36 34 32 31 30 28 26 23 24 26 28 29 28 27
34 34 37 40 41 41 41 40 40 39 39 38 38 38 38 38 38 37 37 37 37 37 37 36 36 36 33 33 32 33 31 31 31 30 29 29 27 24 21 21 23 23 25
33 33 33 36 41 41 41 40 39 39 38 38 38 38 38 38 37 37 36 36 36 35 35 34 32 30 29 29 28 27 27 27 27 26 26 23 27 27 25 21 14 17 19
35 34 36 36 41 41 41 39 39 38 38 38 38 38 38 38 37 36 36 36 35 33 33 32 31 30 28 28 27 24 21 21 20 21 24 26 25 25 25 21 14 16 21
37 38 39 40 40 40 40 39 38 38 38 38 38 38 38 37 37 36 36 35 33 32 32 31 30 29 28 27 26 23 18 16 16 16 16 23 25 24 25 23 18 21 23
37 38 38 38 38 39 39 38 38 39 38 38 38 38 37 37 37 36 35 34 32 31 30 29 28 27 26 28 27 25 23 20 16 16 15 22 22 22 22 20 18 22 26
37 38 38 37 38 38 39 38 39 38 38 38 37 37 37 36 36 34 33 32 31 30 30 27 25 24 24 26 30 31 30 28 23 17 20 23 20 19 18 16 18 23 23
35 36 37 37 37 38 38 39 39 38 37 37 37 36 36 35 35 34 33 32 30 30 29 24 23 20 20 20 24 28 29 29 28 23 22 24 21 19 17 16 16 19 18
36 36 35 35 35 36 36 37 37 37 36 36 36 36 35 35 34 33 32 32 31 31 30 24 21 19 17 17 20 24 27 27 26 25 22 23 21 17 14 13 12 13 14
41 40 38 37 36 35 35 35 36 37 36 36 36 36 35 35 34 33 32 33 33 33 33 27 23 21 21 21 20 20 23 25 25 24 21 20 20 18 14 12 11 12 14

GFSMW_sfc_30mbdewp_087.txt.gz
Dewpoint
42 39 43 48 58 62 64 64 65 64 65 64 64 64 63 63 63 63 63 63 63 63 63 63 63 63 62 62 62 61 61 61 61 61 59 58 59 60 59 59 59 56 55
41 39 39 39 46 61 63 63 64 63 64 64 64 64 64 64 64 65 64 65 65 65 64 64 64 64 64 64 63 63 62 61 61 58 58 55 54 54 54 56 54 53 53
39 38 38 38 40 55 61 62 63 63 64 64 64 64 64 64 63 64 60 59 60 59 60 60 62 63 63 63 63 63 62 60 60 60 57 53 52 53 53 54 53 52 52
39 38 36 37 36 45 54 55 61 63 63 64 63 62 61 60 60 63 58 55 54 53 53 53 54 55 56 58 60 60 59 60 57 58 59 59 58 53 51 53 53 53 53
37 38 37 37 36 43 46 48 52 56 55 59 62 61 58 55 53 53 52 50 50 50 50 51 52 52 53 55 55 56 56 56 55 56 56 54 55 57 55 52 52 54 52
36 37 38 38 38 44 45 45 46 46 49 48 50 53 48 46 45 45 46 48 49 49 49 49 49 50 50 50 51 53 54 54 54 55 54 54 53 54 54 53 52 52 51
36 36 38 37 44 46 46 45 46 46 47 45 45 44 43 43 43 45 46 48 49 48 46 46 46 46 46 46 47 49 50 53 54 54 54 55 56 56 56 54 53 52 51
34 36 39 38 44 46 46 46 45 46 46 46 47 47 47 47 47 47 47 46 47 44 43 43 44 44 44 44 45 47 50 52 53 51 52 53 52 53 54 54 53 50 51
31 36 39 39 43 45 46 45 45 46 47 47 47 46 46 45 45 44 43 42 41 40 41 41 41 42 42 42 43 45 48 48 51 51 51 51 50 50 50 51 51 50 47
31 36 39 41 44 45 46 45 46 46 46 45 45 44 44 43 42 42 41 40 40 40 40 40 40 40 40 41 41 44 47 46 47 47 49 48 48 47 47 47 47 47 47
30 32 37 42 44 45 45 45 45 45 44 43 42 41 41 40 40 39 39 39 39 39 39 39 39 39 39 39 40 42 42 44 45 44 44 44 45 44 45 45 44 44 45
34 34 35 42 43 44 44 44 44 44 43 42 41 40 39 39 39 38 38 39 38 38 38 38 38 38 39 39 39 40 40 42 42 42 42 41 41 40 40 41 40 40 40
35 36 39 42 43 43 44 44 43 43 42 41 40 39 39 39 39 38 38 38 38 37 37 37 37 37 38 38 38 39 38 38 38 39 39 40 39 39 39 39 39 39 39
36 37 39 41 42 42 43 42 42 42 41 40 40 40 39 39 39 38 38 38 37 37 37 37 37 37 37 38 38 38 38 38 37 37 37 37 37 37 37 36 36 37 38
37 38 39 40 41 42 41 41 41 40 40 39 39 39 39 39 39 38 38 38 38 37 37 37 37 37 37 37 38 38 38 36 35 35 34 35 36 36 35 32 30 33 35
35 38 39 40 40 41 41 40 40 40 39 39 39 39 39 39 39 38 38 37 37 37 36 36 36 36 36 38 38 37 36 35 33 32 30 31 32 31 32 31 31 30 31
32 33 38 40 41 41 41 40 40 40 39 39 39 39 39 38 38 38 38 37 37 37 37 36 36 35 36 39 39 37 35 34 31 28 25 24 26 26 28 29 29 29 29
33 34 35 40 41 41 41 40 40 39 39 39 39 39 39 38 38 37 37 37 36 36 37 36 36 35 34 36 36 34 32 31 30 29 28 26 23 21 24 24 24 23 24
36 35 34 35 41 41 41 40 39 39 39 39 38 39 38 38 38 37 37 36 36 36 36 36 35 33 32 32 33 30 28 28 28 27 25 28 27 25 24 18 17 20 22
36 37 39 38 37 42 41 40 39 39 38 38 38 38 38 38 37 36 36 36 36 35 35 34 32 30 28 29 28 28 26 25 25 25 25 27 26 26 25 17 15 15 20
36 37 39 40 40 41 40 39 39 38 39 39 38 38 38 38 37 36 36 35 35 34 33 32 31 30 28 28 28 25 19 19 18 18 18 24 27 26 25 22 18 21 23
37 38 38 38 39 40 40 39 38 39 39 39 38 38 38 38 37 36 35 35 34 33 32 31 29 29 28 29 28 26 23 20 17 16 16 21 24 24 24 22 20 23 25
36 38 37 38 38 39 39 38 38 39 38 38 37 37 37 37 36 35 34 33 32 32 31 30 28 27 27 27 29 28 24 25 19 17 18 24 23 21 20 20 20 21 24
35 37 37 37 37 38 39 39 38 38 38 37 37 37 36 36 36 35 34 33 32 31 31 29 28 26 24 24 26 31 32 31 29 22 23 24 22 20 17 17 18 22 23
35 35 36 36 36 37 37 39 38 38 37 37 37 36 36 36 35 34 33 33 32 32 31 30 27 25 21 21 23 25 28 29 29 26 22 23 22 19 17 16 13 14 15
38 38 36 35 35 35 35 37 37 37 37 36 36 36 36 36 35 34 33 35 34 34 34 33 28 23 23 23 24 25 26 28 29 28 23 21 22 20 17 14 13 13 14

GFSMW_sfc_30mbdewp_090.txt.gz
Dewpoint
43 47 58 60 62 64 63 64 64 64 64 65 65 64 64 63 62 62 63 62 62 62 62 62 62 63 62 61 61 61 60 61 61 60 58 58 58 58 59 59 59 58 56
42 40 45 55 60 62 63 64 64 64 64 64 65 64 64 64 64 64 64 64 64 64 63 63 64 64 64 64 63 63 62 61 61 57 56 53 54 54 54 55 56 54 53
39 41 39 41 48 61 62 63 64 64 64 65 65 63 64 63 63 62 62 63 63 62 62 63 63 63 63 62 63 63 62 60 59 59 56 53 50 52 54 53 52 52 52
40 40 39 39 39 52 62 63 63 64 64 64 64 62 61 60 61 62 59 58 57 56 56 55 55 55 56 57 58 59 58 58 57 57 57 58 58 53 49 53 53 53 52
39 39 39 38 38 40 56 60 61 63 63 64 63 62 61 61 58 60 58 55 53 51 51 51 52 52 53 54 55 55 55 55 55 55 55 54 53 54 53 50 51 52 49
38 38 39 38 37 40 49 53 57 59 57 59 62 61 60 56 56 55 53 51 49 49 49 49 50 50 50 50 50 51 53 54 54 54 54 54 51 51 53 52 52 51 48
36 36 37 38 38 40 46 47 50 53 53 50 54 54 54 52 53 51 51 49 49 47 47 47 47 46 46 46 46 47 49 50 53 53 53 53 53 55 54 54 52 52 47
34 35 37 38 40 41 45 45 46 47 49 50 50 50 49 49 48 48 49 49 48 46 45 44 44 44 44 44 45 46 48 50 52 52 51 51 52 52 53 54 53 51 50
29 34 36 38 42 44 45 44 45 46 47 48 48 47 47 46 46 46 45 45 44 42 42 42 42 42 42 42 43 44 47 48 50 50 50 50 50 50 50 51 52 51 47
31 35 39 39 43 45 46 46 46 46 47 47 46 45 45 44 43 43 42 41 40 40 41 40 40 40 40 40 41 42 46 46 47 46 47 48 48 47 47 47 47 48 48
30 32 38 41 43 45 46 45 46 46 46 45 44 44 43 42 42 41 40 39 39 39 39 39 39 39 39 39 40 41 42 43 44 44 45 44 45 44 45 45 45 45 45
33 33 34 41 43 44 45 45 45 45 44 43 43 42 42 41 40 40 40 39 39 39 38 38 38 39 39 39 39 39 40 42 42 43 43 42 41 41 41 41 41 41 41
34 36 38 40 42 44 44 44 44 45 43 42 41 40 39 39 39 38 38 39 38 38 38 38 38 38 38 38 38 38 38 38 39 40 40 40 40 39 39 40 40 39 40
35 36 37 40 42 43 44 44 44 44 42 41 40 40 39 39 39 39 39 38 38 37 37 37 37 37 37 38 38 38 37 37 37 37 37 38 38 38 38 37 37 38 38
33 36 37 38 41 42 43 43 43 42 41 41 40 40 40 39 39 39 38 38 37 37 37 37 37 37 37 37 38 39 38 37 36 35 35 36 37 37 36 34 32 35 37
30 36 38 39 40 41 42 42 42 41 40 40 40 40 39 39 38 38 38 37 37 37 37 37 36 36 36 38 39 38 37 36 35 33 32 33 32 34 33 32 32 32 33
32 32 33 36 40 41 42 41 41 41 40 39 39 39 39 38 38 38 37 37 36 36 36 36 36 35 37 39 40 38 36 34 32 30 26 25 28 28 29 30 31 31 30
34 34 35 35 37 41 41 41 40 40 39 39 39 39 39 38 38 37 37 36 36 36 36 36 36 35 35 38 39 37 33 32 30 27 25 23 21 21 26 25 24 22 24
36 36 36 37 35 40 41 41 40 40 39 39 39 39 39 38 38 37 36 36 36 36 36 36 36 35 34 35 36 33 31 30 29 28 28 27 24 25 24 22 21 21 23
36 36 36 38 39 39 41 40 40 39 39 39 39 39 39 38 37 37 36 36 36 35 35 35 35 34 32 33 33 29 26 25 26 25 26 29 27 26 26 17 16 16 20
36 38 38 38 39 40 41 40 40 39 39 39 39 39 38 38 37 36 36 36 35 35 34 34 32 31 29 29 30 29 24 23 23 23 23 26 28 27 25 20 16 17 22
36 38 38 38 39 40 41 40 39 40 39 39 39 38 38 38 37 36 36 35 35 34 33 32 31 30 29 29 30 28 25 21 19 18 17 20 26 26 26 25 21 25 25
36 37 37 37 38 39 40 39 39 39 39 39 38 38 37 37 37 36 35 35 34 33 32 32 30 29 28 27 30 30 27 25 19 18 18 21 26 25 24 24 21 22 25
35 37 37 37 37 38 39 39 39 39 38 38 38 37 37 37 36 36 35 34 33 32 32 31 30 29 27 26 26 30 29 26 26 22 22 24 25 24 21 20 19 21 24
35 36 36 36 36 37 38 39 38 38 37 37 37 37 36 36 35 35 35 34 33 33 32 31 31 29 28 25 26 26 30 30 30 25 22 25 23 21 19 17 17 17 19
37 36 36 36 36 36 37 38 38 38 37 37 37 36 36 36 35 35 34 36 35 35 35 34 31 28 29 28 27 27 28 31 32 29 23 21 22 21 19 17 15 14 14

GFSMW_sfc_30mbdewp_093.txt.gz
Dewpoint
52 52 59 61 63 63 64 63 63 64 65 64 63 63 63 64 63 63 62 62 61 61 60 60 61 61 61 61 61 61 61 61 61 60 57 56 56 56 57 55 56 58 57
44 42 46 58 61 63 63 63 63 64 64 63 64 64 64 64 64 63 63 63 62 62 62 62 62 63 63 63 63 62 61 61 61 56 56 52 53 54 54 54 54 54 53
41 42 40 50 56 60 62 63 63 64 64 65 65 64 64 63 63 63 63 64 64 64 63 63 64 64 63 63 63 63 62 58 59 58 55 52 51 52 53 53 52 52 51
40 40 41 39 44 51 60 63 63 64 64 64 64 63 62 61 62 61 61 61 61 61 61 61 60 59 58 58 59 59 59 59 57 56 57 57 57 53 50 52 53 52 51
39 39 40 40 40 40 43 60 62 63 63 64 64 63 62 61 61 61 60 58 57 56 56 55 54 54 55 54 55 55 55 55 55 54 55 54 54 54 52 49 50 50 48
39 39 40 40 40 39 40 50 58 61 61 62 63 62 62 60 59 59 58 55 52 51 51 51 51 51 50 50 50 51 52 53 53 53 53 53 52 50 51 50 51 50 47
38 38 38 38 39 39 41 46 53 57 58 57 60 60 60 58 58 57 55 53 51 50 50 49 48 46 46 46 46 47 48 49 50 52 52 53 53 53 53 51 51 51 46
34 35 36 37 38 39 41 45 50 53 55 53 54 55 55 55 55 54 54 53 52 49 46 45 44 44 44 44 44 45 46 50 50 51 52 51 50 51 52 52 51 50 49
29 32 37 36 37 39 41 44 47 48 49 51 50 51 52 52 52 51 52 50 48 45 43 42 42 42 42 42 42 43 44 47 48 49 49 49 49 49 50 51 52 51 47
30 31 37 39 40 43 45 45 46 46 47 48 47 48 48 48 46 45 44 43 41 41 41 41 41 40 40 40 40 41 43 46 46 46 46 47 47 47 47 47 48 48 49
29 31 33 40 42 45 45 45 45 46 46 46 45 45 45 44 44 44 43 41 40 40 40 40 39 39 39 39 39 40 41 42 43 44 44 45 45 44 44 45 46 46 46
33 34 35 39 42 43 45 45 45 45 46 45 44 43 42 42 41 41 41 41 40 40 39 39 39 39 39 39 39 39 39 40 41 43 42 42 42 41 41 42 42 42 42
33 34 35 37 39 42 44 44 45 45 45 43 43 42 41 40 39 39 39 39 39 38 38 38 38 38 38 38 38 38 38 38 39 40 41 41 40 40 40 40 40 40 40
31 34 35 36 39 41 43 44 44 45 43 42 42 41 40 40 39 39 39 38 38 37 37 37 37 37 37 37 38 38 37 37 37 38 38 38 39 38 38 38 38 39 39
29 31 34 36 38 41 43 43 44 44 43 42 41 40 40 39 39 39 38 38 38 37 37 37 37 37 37 37 37 38 38 38 36 36 36 37 38 38 37 36 34 36 38
30 30 34 37 38 39 41 43 43 43 42 41 41 40 39 39 39 38 38 37 37 37 37 36 36 36 36 37 39 39 38 37 36 34 33 33 34 35 35 33 33 34 35
32 33 33 34 35 37 40 41 42 42 41 41 40 40 39 39 38 38 37 37 36 36 36 36 36 35 36 39 39 40 37 36 34 32 30 28 30 30 30 33 32 32 32
33 33 34 35 35 36 39 41 42 41 41 40 40 39 39 38 38 37 37 36 36 36 35 36 36 35 36 38 39 39 35 34 32 29 25 24 23 25 27 26 22 23 25
35 36 36 36 37 37 38 41 41 41 40 40 39 39 39 38 37 37 36 36 35 35 35 36 36 35 35 37 38 35 33 32 30 27 27 23 22 24 27 24 20 22 23
36 36 37 37 37 38 39 41 40 40 40 40 39 39 39 38 37 37 36 36 35 35 34 34 35 36 35 35 36 35 31 30 28 27 25 30 26 27 25 20 20 17 21
36 37 37 37 38 39 39 40 40 40 40 40 39 39 39 38 38 36 36 36 35 35 35 35 35 34 34 31 35 32 26 25 24 24 24 26 30 29 26 22 16 16 22
36 36 37 37 38 39 39 40 40 40 40 40 39 39 38 38 37 36 35 35 35 35 34 34 33 32 30 32 32 31 29 25 22 21 22 21 29 28 27 26 20 24 25
37 36 37 37 37 38 39 40 39 40 39 39 39 38 38 38 37 36 35 35 35 35 34 33 32 32 31 30 31 30 30 28 23 19 19 21 23 27 25 27 24 24 24
36 36 36 36 36 37 39 39 39 39 39 38 38 38 38 37 36 36 35 35 34 34 33 32 32 31 30 29 27 29 31 30 26 23 22 23 24 27 24 24 23 22 25
39 36 36 36 36 37 38 38 39 39 39 39 39 38 37 37 36 36 35 35 34 34 33 32 32 31 30 29 28 27 29 29 27 25 22 24 24 24 22 19 17 19 22
41 36 36 36 37 37 38 38 38 38 38 37 38 37 37 37 36 35 35 36 36 36 36 35 33 32 32 32 32 30 29 31 32 29 24 22 24 23 21 19 17 16 18

GFSMW_sfc_30mbdewp_096.txt.gz
Dewpoint
53 59 61 62 62 62 60 62 62 62 64 64 64 63 62 64 64 63 62 61 60 59 58 58 58 59 60 60 61 61 60 60 61 60 57 56 56 55 54 54 55 56 57
45 45 53 61 61 61 62 63 62 61 64 64 63 63 64 64 64 64 63 62 61 60 60 60 60 61 61 62 62 61 60 60 60 56 55 51 52 53 54 53 53 53 53
41 42 43 55 59 61 63 63 63 62 63 62 64 63 63 63 63 63 63 63 63 62 62 62 62 63 63 62 63 62 61 58 58 58 55 51 49 52 53 52 52 52 51
41 41 41 40 52 57 61 63 63 63 63 64 62 62 61 60 61 62 63 62 62 62 62 63 63 63 62 61 60 60 59 59 57 56 56 56 55 52 49 52 51 50 50
41 40 40 40 41 41 49 59 62 63 63 63 63 62 61 61 61 61 60 58 58 58 57 58 58 58 57 57 57 56 56 55 55 54 54 54 53 55 53 49 49 49 47
39 40 40 40 40 40 40 43 54 60 62 62 63 63 61 60 60 59 58 56 55 54 54 53 53 52 51 51 50 51 52 52 52 52 52 52 51 50 50 50 49 49 47
38 38 39 39 39 40 40 42 47 53 59 60 61 61 61 60 59 59 57 55 53 53 52 51 49 47 46 46 47 47 47 48 48 50 51 52 52 53 52 51 50 49 47
35 36 37 38 38 38 39 41 45 50 56 55 57 58 59 58 58 57 56 54 53 52 51 48 47 44 44 44 44 44 46 49 49 50 51 51 50 51 51 51 50 48 48
31 33 37 38 37 37 39 41 45 49 54 54 53 54 54 55 55 55 55 54 52 50 48 47 46 44 43 42 42 42 43 46 47 48 49 49 49 49 49 50 50 49 45
29 31 33 39 40 41 42 44 46 47 49 50 50 51 51 52 52 52 52 51 49 47 44 43 42 41 40 40 40 41 42 44 45 46 46 46 47 47 47 47 47 48 48
31 32 33 38 42 44 44 44 45 46 47 47 47 47 47 48 48 48 46 45 44 42 41 41 40 40 39 39 39 40 41 41 42 43 44 44 44 44 44 44 45 46 46
33 34 35 37 40 43 44 44 45 45 46 46 45 45 44 44 43 42 41 41 40 40 40 40 39 39 39 39 39 39 39 39 40 41 43 42 42 42 41 41 41 42 42
30 33 34 35 38 41 43 44 45 45 45 45 44 43 42 42 41 41 40 40 39 39 39 39 38 38 38 38 38 38 38 38 39 39 41 41 40 40 40 40 40 40 41
31 30 32 34 36 39 41 43 44 45 44 44 43 42 41 40 40 40 40 39 38 38 38 38 38 37 37 37 37 38 37 37 37 38 38 38 39 39 38 38 38 39 39
30 30 30 32 36 38 39 42 43 44 43 43 42 41 41 40 39 39 38 38 38 37 37 37 37 37 37 37 37 38 38 38 37 36 36 37 38 39 38 37 36 37 38
31 31 32 33 34 36 38 40 42 43 43 42 42 41 40 39 39 38 38 38 37 37 37 36 36 36 37 37 39 39 38 38 37 35 34 34 35 37 36 35 34 35 36
32 33 33 33 34 34 36 37 39 42 42 42 41 41 40 39 38 38 37 36 36 36 36 36 36 36 35 38 39 40 38 37 36 34 32 30 31 30 32 33 32 32 33
33 33 34 35 36 36 36 37 39 41 42 41 41 40 39 38 38 37 37 36 35 35 35 35 35 35 35 38 39 40 36 35 34 32 30 27 25 27 27 25 21 24 26
35 35 36 37 37 37 37 38 39 40 41 41 41 40 39 38 37 37 36 35 35 35 35 35 35 35 35 37 39 36 34 33 31 28 26 23 20 22 29 23 20 22 25
36 36 36 37 37 37 38 39 39 39 40 41 41 40 39 38 37 37 36 35 35 35 35 35 34 35 34 36 38 35 32 31 30 28 27 30 25 27 27 22 20 18 21
36 37 37 37 37 38 38 38 39 39 40 41 40 40 39 38 37 37 36 35 35 34 34 34 35 35 35 33 36 37 31 30 29 27 24 25 31 29 27 23 19 17 22
37 38 37 37 37 38 38 38 39 40 40 40 39 39 39 38 37 36 35 35 35 34 35 35 34 34 33 34 33 35 30 25 21 21 23 23 28 29 28 26 20 21 25
38 39 37 37 37 37 38 38 39 40 40 40 39 39 38 38 37 36 35 35 34 34 34 34 33 33 32 30 34 33 33 31 24 21 21 23 24 30 28 28 27 26 23
35 39 39 37 36 37 37 38 39 39 39 39 39 38 38 37 37 36 35 35 34 34 34 34 33 33 32 31 30 32 31 31 30 27 24 24 24 25 27 26 27 24 25
37 39 39 39 37 37 37 38 39 39 38 38 38 38 38 37 36 36 36 35 35 35 34 34 33 32 32 31 30 29 28 30 29 25 22 22 24 24 25 22 21 20 23
39 39 39 40 37 39 37 38 38 39 39 39 39 38 38 37 37 36 36 37 36 36 36 35 34 33 33 33 33 33 30 30 31 27 23 22 22 23 23 21 20 18 18

GFSMW_sfc_30mbdewp_099.txt.gz
Dewpoint
58 58 57 61 61 60 58 60 58 57 62 64 64 64 63 63 64 63 62 62 62 61 60 60 60 59 59 59 59 59 59 59 61 60 58 57 57 55 55 55 56 57 57
54 57 59 61 61 60 58 59 60 59 60 63 63 64 64 64 64 65 64 63 62 61 61 60 59 58 59 60 61 61 61 60 61 56 56 53 52 54 54 54 54 54 55
45 49 57 60 60 60 59 59 60 60 61 64 64 63 64 63 63 64 64 64 63 63 62 61 61 60 61 62 62 62 60 58 59 59 55 52 50 52 54 53 52 52 53
42 42 44 49 57 60 61 60 61 61 62 63 62 62 61 60 60 61 63 62 63 62 63 63 63 63 62 62 61 60 60 60 58 58 57 57 56 51 49 53 51 51 51
42 42 41 42 44 48 57 61 62 62 62 62 62 62 61 61 61 62 61 59 59 59 59 59 59 58 58 57 58 57 57 57 57 57 55 55 55 56 54 48 51 50 49
40 40 40 41 41 42 42 49 58 60 62 63 63 62 61 61 61 60 60 58 57 56 56 55 54 54 53 53 52 52 52 53 53 53 53 52 50 50 51 51 51 50 49
37 38 38 39 40 40 41 41 45 51 59 61 61 62 62 61 60 60 58 56 54 53 53 53 52 51 50 49 47 47 48 49 49 51 51 52 52 53 51 51 50 50 49
35 36 36 37 38 39 39 40 43 46 55 58 59 60 60 60 59 59 57 56 55 54 53 52 51 49 48 47 47 47 47 49 50 50 51 51 52 52 52 51 50 47 48
33 33 37 39 39 39 38 39 42 46 53 55 55 56 57 58 58 57 57 55 54 53 52 51 48 47 47 46 45 44 44 46 47 48 49 50 50 50 50 50 49 46 43
30 31 33 38 42 42 43 43 44 46 51 54 53 53 53 54 55 55 55 54 53 51 50 48 47 45 43 42 42 42 43 44 45 46 46 46 47 48 48 48 48 49 48
32 33 35 37 41 43 44 44 45 47 48 49 49 50 51 52 52 53 52 51 49 47 46 44 42 40 40 40 40 41 41 41 42 43 44 44 45 45 45 45 45 46 46
32 33 34 36 38 41 43 44 45 46 47 47 46 47 47 48 48 47 45 44 43 42 41 41 40 39 39 39 39 39 39 39 40 41 43 43 43 43 42 42 42 42 43
31 31 32 34 36 39 41 43 44 45 45 45 45 44 44 44 44 43 42 41 41 40 40 40 39 39 39 38 38 38 38 39 39 40 41 42 42 41 41 41 41 41 41
32 31 31 32 35 37 40 42 43 44 45 45 44 43 43 43 42 41 41 40 40 39 39 39 38 38 38 38 38 38 38 38 38 38 39 39 40 40 40 39 39 39 40
31 31 32 33 34 36 38 40 42 44 44 44 43 43 42 41 41 40 40 39 38 38 38 38 38 37 37 37 38 38 38 38 38 37 37 38 39 39 39 38 38 37 38
32 33 33 33 34 34 35 37 40 42 44 43 43 43 41 40 40 39 39 38 38 38 38 37 37 37 37 39 39 38 38 39 38 36 36 36 36 37 37 36 35 35 36
33 34 35 35 35 36 36 36 37 39 42 43 42 42 41 40 39 39 38 38 38 37 37 37 37 36 37 39 40 40 38 38 37 36 34 31 33 32 34 34 31 31 33
34 35 35 36 36 37 37 37 37 38 40 41 42 41 40 39 39 38 38 37 36 36 36 36 36 36 36 39 40 40 38 37 36 35 33 30 28 30 29 25 23 26 28
35 36 36 36 37 37 37 37 38 39 39 40 41 41 40 39 38 37 37 36 36 36 36 36 36 36 36 38 39 38 36 34 33 31 28 25 22 23 30 24 22 23 28
36 36 37 37 37 37 38 38 38 38 39 39 40 41 40 39 38 38 37 36 36 35 35 35 35 35 35 37 39 37 34 33 32 29 28 30 22 24 29 23 20 19 23
37 38 38 38 38 38 38 37 38 38 39 40 41 41 40 39 39 37 36 36 35 35 35 35 35 35 35 35 38 39 33 32 31 30 27 25 31 28 28 25 21 18 22
32 34 35 38 38 39 38 37 37 39 39 40 40 40 40 39 38 37 36 35 35 34 34 35 35 35 35 36 36 38 34 32 30 29 26 24 29 31 29 28 21 21 24
30 31 33 34 37 39 38 37 37 38 39 40 40 39 39 38 37 36 36 35 35 35 34 35 34 34 33 33 35 36 36 27 21 21 22 25 27 31 30 30 26 25 23
34 36 37 37 38 38 39 38 37 38 39 39 39 39 38 38 37 36 36 36 35 34 34 34 34 34 33 32 31 35 35 34 31 26 25 25 25 26 28 28 29 26 24
36 37 38 38 38 38 38 38 37 38 39 39 39 38 38 38 36 36 36 36 36 35 35 34 34 34 33 33 33 31 32 31 31 28 24 24 24 24 27 25 24 24 26
35 36 38 37 37 38 39 38 38 39 39 38 38 38 38 38 37 36 36 37 36 37 37 36 35 34 34 34 34 34 33 32 32 25 23 21 22 23 24 24 21 20 22

GFSMW_sfc_30mbdewp_102.txt.gz
Dewpoint
55 57 58 61 61 59 60 60 60 60 60 62 63 63 62 63 63 62 61 61 61 61 63 63 62 61 58 56 57 57 58 58 58 58 55 56 56 55 55 54 55 56 57
56 56 55 56 60 60 59 59 60 59 60 60 62 63 63 64 64 64 63 62 62 63 62 61 61 61 59 57 58 58 60 59 59 55 54 50 49 52 54 54 54 54 56
55 54 53 55 59 59 59 59 59 59 59 61 62 64 64 65 65 65 64 64 64 64 63 63 62 62 60 58 59 61 60 57 59 58 54 51 47 50 53 54 53 53 54
49 53 55 57 57 58 60 60 59 60 60 61 62 60 59 58 59 62 64 64 64 64 63 63 62 62 63 63 63 62 62 60 57 59 58 58 57 51 46 52 53 52 52
45 48 50 55 59 59 60 60 59 59 61 62 62 61 60 61 61 60 62 61 62 62 63 63 63 60 58 57 57 57 57 57 58 58 58 56 55 54 51 45 47 52 51
44 43 44 45 48 54 59 60 60 59 60 60 62 61 60 60 60 60 61 60 59 59 59 59 58 57 56 56 54 53 53 53 53 53 53 50 45 44 48 47 46 47 49
40 40 40 41 42 44 45 49 57 60 61 62 61 62 61 59 60 61 61 59 57 56 56 56 56 55 54 53 52 51 51 50 51 52 52 52 51 50 49 48 47 47 49
36 37 38 39 39 41 42 43 43 45 52 58 61 62 62 62 61 61 60 59 57 55 55 55 55 54 52 51 50 50 50 50 50 50 50 49 50 51 50 49 48 46 46
33 34 37 40 41 41 40 40 41 43 47 53 57 60 60 59 60 60 60 59 58 56 55 54 53 52 51 50 49 49 48 48 49 49 50 50 50 51 51 51 50 48 43
32 33 35 38 41 43 44 44 42 43 47 52 55 56 57 58 59 59 58 57 56 54 54 52 51 50 49 48 46 45 45 45 46 47 47 47 48 49 49 49 48 48 47
32 33 34 37 40 43 45 45 45 46 48 52 53 53 53 54 56 57 56 56 55 53 52 50 49 47 44 43 42 42 43 43 44 45 45 45 46 46 46 47 46 46 47
32 32 33 34 36 39 43 45 45 46 48 49 49 49 50 52 53 54 53 52 52 52 51 48 45 42 40 40 40 40 41 41 41 42 43 44 44 44 44 43 44 44 45
33 31 31 32 33 36 39 42 44 45 46 46 46 47 48 49 51 51 50 49 48 48 46 43 41 40 40 40 39 39 39 39 40 41 42 43 43 43 42 41 41 42 42
32 32 33 33 33 35 36 38 41 44 45 45 45 45 45 46 47 47 47 47 46 44 42 41 40 40 39 39 39 39 39 39 39 40 41 41 42 41 41 41 41 40 41
33 34 34 34 33 33 34 35 36 40 44 44 45 45 45 44 44 44 44 44 42 41 40 40 40 39 39 39 39 39 39 39 39 39 39 39 39 39 39 39 40 39 39
33 34 34 34 35 35 35 37 37 37 39 42 44 45 44 43 43 43 42 41 41 40 40 39 39 39 37 39 39 39 39 39 38 38 38 39 38 38 38 37 36 37 37
34 34 34 35 35 36 36 36 37 37 38 38 40 43 44 43 42 42 41 40 40 40 39 39 39 39 38 40 40 39 38 39 39 38 37 35 35 35 37 36 35 34 35
30 31 33 34 35 36 37 37 37 37 38 39 39 40 43 43 42 41 40 40 40 39 40 39 39 38 38 40 41 40 40 40 39 38 37 34 33 32 31 28 27 25 27
30 30 32 33 35 36 36 36 37 38 38 39 39 40 41 43 42 41 40 41 40 40 39 39 39 38 37 40 41 41 39 37 37 35 33 31 28 29 30 25 23 23 27
29 30 30 33 34 33 34 35 35 37 38 39 39 40 41 42 42 41 41 40 40 40 39 39 39 39 38 40 40 39 37 35 34 32 29 29 23 24 31 23 21 19 24
30 30 30 30 31 32 34 35 36 37 39 39 40 41 42 42 42 42 41 40 39 38 37 37 37 37 37 38 39 38 35 34 33 32 29 29 30 26 30 27 19 18 23
32 33 33 34 35 36 35 35 36 38 39 40 40 40 41 42 42 41 40 39 37 37 36 36 36 36 36 37 38 39 36 35 33 32 32 30 30 31 30 30 22 22 22
29 31 32 34 36 37 39 38 38 37 38 39 39 40 41 41 41 40 39 37 37 36 36 36 36 36 36 36 37 38 38 36 31 29 28 26 29 32 31 30 25 23 23
31 32 33 35 36 36 37 38 37 37 38 38 38 39 40 40 40 39 38 37 36 36 36 36 36 36 35 35 36 37 39 33 25 23 24 25 26 29 29 30 29 25 24
30 31 32 35 35 36 37 38 39 38 37 38 39 40 40 40 38 38 38 38 37 37 36 36 36 35 34 35 35 36 35 34 31 27 24 23 22 23 28 28 29 27 27
29 30 33 34 34 35 35 38 39 40 38 38 39 40 39 40 38 37 37 38 38 38 38 37 36 36 36 36 35 34 35 35 35 29 26 22 21 21 22 24 24 25 26

GFSMW_sfc_30mbdewp_105.txt.gz
Dewpoint
50 56 57 59 59 58 61 60 60 61 60 61 62 62 62 62 61 61 60 59 60 62 63 62 61 62 60 58 56 56 55 56 58 56 56 55 54 54 54 53 53 55 56
53 56 56 56 56 58 60 61 61 60 60 60 61 62 63 63 63 62 62 60 60 61 62 62 63 62 62 60 57 56 57 58 58 57 55 50 49 53 53 53 53 54 55
54 54 54 54 56 55 59 60 60 61 61 60 61 61 63 61 63 64 64 63 62 63 64 63 63 63 63 62 61 59 58 59 60 59 53 50 49 49 53 53 52 52 53
54 54 54 54 57 57 60 60 60 59 60 61 60 60 59 58 61 62 63 63 64 65 65 64 63 63 63 62 61 61 62 61 58 58 59 58 56 52 45 52 53 52 52
53 54 55 55 56 57 59 60 60 60 60 60 61 60 59 60 61 61 60 62 63 63 64 64 63 63 62 60 59 59 59 58 59 58 56 53 54 55 53 48 49 52 52
50 52 55 56 57 58 58 60 60 59 58 59 60 61 60 60 60 61 61 61 62 62 63 63 63 61 60 59 58 58 57 57 57 55 55 52 50 51 50 48 45 45 49
47 48 48 48 48 54 58 59 59 58 59 59 59 60 60 58 59 59 59 59 60 58 59 60 60 59 59 58 57 56 55 55 53 52 52 53 51 51 50 48 47 46 48
40 40 41 42 44 45 46 50 55 58 57 59 58 59 60 59 60 60 61 61 61 59 58 58 58 58 57 56 55 54 53 52 52 52 50 51 51 51 51 49 48 47 46
37 38 40 41 41 41 42 43 44 45 50 56 59 60 61 60 61 60 60 61 59 58 57 57 56 54 53 52 51 50 50 49 51 50 51 50 50 51 51 51 50 48 44
33 34 36 39 42 44 44 44 41 42 44 48 53 55 59 60 60 60 60 60 58 57 56 55 53 52 51 51 51 50 50 49 49 49 49 50 50 50 50 51 50 49 48
32 33 34 36 39 42 44 44 45 44 46 49 52 54 55 57 58 59 58 58 57 56 55 53 52 51 51 50 48 47 46 46 46 46 46 46 47 48 48 48 47 47 47
32 32 32 33 34 37 39 43 45 45 47 49 50 51 53 53 54 55 56 57 56 54 53 52 51 50 49 46 45 43 43 43 43 44 44 44 45 46 46 45 46 45 46
32 33 32 33 33 34 36 38 41 44 45 46 46 47 48 50 51 53 54 54 53 53 52 50 49 47 44 41 41 41 41 41 41 42 42 43 44 44 44 43 43 43 43
33 34 34 33 33 33 34 34 35 39 43 45 45 45 46 46 48 50 51 51 50 51 50 49 47 43 41 40 40 40 40 40 40 41 42 42 43 43 43 42 42 41 41
32 32 33 33 33 33 33 35 36 37 37 41 44 45 45 45 45 47 48 49 48 48 47 46 43 41 41 40 40 40 40 40 40 41 41 41 41 40 41 41 41 40 40
31 32 32 33 33 34 34 36 35 35 37 38 38 42 45 45 45 45 45 46 46 44 43 41 41 41 39 40 40 40 40 40 40 40 39 40 39 39 39 38 38 38 38
27 27 28 30 32 33 35 35 36 36 37 37 38 38 41 44 44 44 44 43 43 42 41 41 41 40 39 40 41 41 40 40 40 40 39 38 37 38 37 37 37 36 36
22 23 24 26 27 28 29 31 34 35 37 38 39 40 40 42 44 44 43 43 43 42 41 41 40 40 40 41 41 40 41 40 40 40 39 36 36 36 36 33 31 29 30
24 26 28 28 29 29 30 31 31 31 33 35 37 39 40 40 42 44 43 43 43 42 42 41 40 40 40 42 42 41 40 40 39 39 38 36 34 34 33 28 25 24 27
28 29 30 31 31 31 32 32 32 32 33 34 36 38 40 41 41 43 44 43 43 42 42 41 41 40 40 41 42 41 38 37 37 36 34 33 30 32 32 26 24 22 27
28 29 29 30 31 31 33 34 36 36 36 36 38 39 40 41 41 42 44 43 42 42 41 40 40 39 39 40 41 41 38 36 35 33 31 32 29 28 31 28 22 21 28
28 29 30 30 32 33 34 35 36 37 39 37 38 38 39 41 41 43 43 43 42 41 40 39 38 38 38 39 41 41 38 36 34 33 32 31 34 28 28 32 22 23 24
30 30 31 31 32 33 35 36 34 35 36 37 37 37 36 39 40 42 42 42 40 39 38 37 37 37 37 38 40 41 38 37 34 33 33 32 33 31 31 31 26 24 23
29 29 29 29 29 33 33 34 36 37 37 37 37 36 36 38 39 41 42 41 39 38 37 36 36 36 37 37 38 39 40 37 36 29 30 29 30 33 31 31 27 25 24
29 29 29 28 29 31 31 34 36 35 35 38 38 38 39 39 40 41 41 40 39 38 37 37 37 36 36 36 37 38 39 36 31 25 26 26 27 30 30 30 29 26 26
28 28 28 28 29 30 30 31 33 33 33 35 38 39 39 40 41 41 40 41 40 39 39 39 38 37 37 37 38 38 38 35 29 24 23 23 23 25 28 29 28 28 27

GFSMW_sfc_30mbdewp_108.txt.gz
Dewpoint
47 51 57 58 59 59 60 60 61 60 60 58 60 60 59 59 59 60 62 64 64 63 63 63 62 61 59 59 58 57 56 55 57 56 56 56 55 56 54 54 54 55 57
47 55 56 57 56 58 60 60 60 59 59 57 61 62 62 62 61 61 60 60 62 63 63 62 63 62 62 61 59 56 56 57 57 57 56 54 53 54 52 53 54 54 56
50 53 54 55 56 56 58 60 60 59 60 60 59 60 62 63 62 62 62 61 61 61 63 63 63 63 63 62 62 62 60 58 59 60 57 51 48 52 53 53 53 53 54
53 52 52 53 56 56 57 60 60 60 60 60 60 59 58 56 60 60 61 62 63 63 63 63 63 63 62 62 61 62 61 60 60 59 59 58 57 51 48 53 53 53 52
53 53 53 54 55 57 57 60 60 60 60 60 60 59 58 59 59 60 60 60 62 62 62 62 62 62 61 60 60 60 60 60 59 59 57 54 53 54 53 49 50 52 52
54 54 54 54 55 56 57 57 56 58 60 59 60 59 58 57 58 59 60 60 61 62 62 63 63 62 61 60 60 60 60 59 59 58 57 55 52 50 50 49 48 48 51
52 53 54 53 55 56 56 58 58 57 59 59 57 59 59 60 59 58 58 59 60 60 61 62 62 62 61 60 59 59 59 59 58 56 55 54 51 51 51 49 48 46 50
49 49 48 48 47 51 56 57 58 58 58 58 58 59 59 58 59 59 59 59 59 60 60 60 61 60 60 59 58 58 58 56 55 54 53 52 52 51 50 49 47 46 47
43 40 41 42 42 42 43 47 51 53 56 57 57 58 58 58 59 59 60 60 60 60 59 59 58 58 58 57 56 55 54 53 52 52 51 50 51 51 51 51 50 47 43
35 36 39 41 44 45 45 44 43 42 44 47 54 57 59 60 61 60 60 60 60 59 58 58 58 57 55 54 53 52 51 50 50 50 50 50 50 51 51 51 51 50 48
33 34 36 38 39 42 45 45 45 46 47 49 52 53 55 57 59 60 60 60 59 58 57 56 55 54 52 51 51 51 50 49 49 48 49 49 49 49 49 49 49 49 48
33 33 33 34 35 37 39 42 44 45 46 47 48 49 50 53 54 55 57 58 58 56 56 55 53 52 52 51 49 47 47 47 46 45 46 46 47 47 47 47 46 46 46
34 34 33 33 33 34 35 36 39 42 45 46 46 46 47 48 50 52 55 55 56 54 54 53 52 52 51 49 47 45 44 44 44 44 44 44 45 45 45 45 45 45 44
32 33 33 33 33 34 34 36 36 37 39 41 44 45 46 46 47 50 52 52 53 53 52 52 51 50 47 46 44 42 41 42 42 42 43 43 44 44 44 43 43 42 42
30 31 31 32 33 34 35 36 36 36 37 38 39 41 45 46 46 47 50 51 50 51 51 50 49 47 45 44 42 41 40 40 40 41 42 43 43 43 44 42 42 41 40
25 25 25 26 27 29 30 32 34 35 37 37 38 39 40 45 45 45 46 48 48 48 48 47 47 44 44 44 42 41 40 40 40 40 41 40 40 40 41 40 40 41 39
21 22 23 24 26 27 29 29 30 31 32 35 37 38 39 40 44 45 45 45 46 46 46 45 44 43 42 43 42 41 41 40 40 40 40 39 39 39 39 39 38 38 38
21 24 26 28 29 29 29 30 31 31 32 32 33 36 38 40 41 43 44 44 44 44 43 42 42 42 41 42 42 42 41 40 40 40 39 38 37 37 37 36 34 33 33
27 28 30 31 31 32 32 33 34 34 35 35 34 35 35 38 40 41 42 44 43 43 42 42 41 41 40 41 42 41 40 40 39 39 39 36 35 37 37 33 29 26 28
28 29 29 30 30 31 31 31 32 33 33 35 37 37 37 38 38 40 41 43 44 43 42 42 41 41 40 42 42 40 40 39 39 39 38 37 35 36 37 29 26 24 27
28 30 31 31 31 32 32 33 34 34 35 36 36 37 36 36 37 38 41 42 43 43 42 42 41 41 41 42 42 40 38 37 37 36 35 35 35 35 35 29 25 23 28
29 31 30 30 30 30 30 32 32 34 34 35 37 37 36 36 36 37 39 42 43 42 41 41 40 40 40 41 43 41 39 38 36 34 33 33 35 33 35 31 26 25 30
29 30 29 29 30 30 30 30 32 32 33 34 35 35 38 38 38 37 36 37 41 43 41 40 40 39 39 40 42 42 40 39 35 34 32 33 34 32 32 32 25 26 27
28 29 29 29 28 29 29 29 30 30 32 32 33 35 38 38 38 37 39 39 41 41 41 40 39 38 38 39 41 41 41 38 35 35 35 34 35 31 31 33 27 25 23
27 27 28 28 28 28 28 29 29 29 29 29 31 33 36 39 39 39 39 39 41 41 40 39 39 38 37 37 40 40 40 37 34 32 32 32 32 31 30 31 26 25 25
26 26 28 27 27 27 27 29 29 28 28 29 31 32 33 36 37 39 40 42 42 42 42 41 39 38 38 38 40 40 40 38 33 29 27 27 29 31 30 30 28 25 26

GFSMW_sfc_30mbdewp_111.txt.gz
Dewpoint
43 49 54 58 59 59 58 60 60 59 61 62 62 61 58 59 61 61 60 62 62 62 61 62 61 61 59 58 58 57 56 56 56 56 56 56 55 56 54 54 56 57 57
44 52 55 56 56 58 59 60 60 58 58 61 62 61 61 61 61 62 63 62 63 63 62 62 62 62 60 59 58 57 57 56 57 56 56 53 54 54 53 54 55 55 57
43 52 54 55 55 56 57 59 60 58 58 59 61 60 61 61 60 60 61 62 64 64 63 63 63 63 62 61 61 61 59 57 60 60 57 53 50 52 53 53 53 54 55
50 53 53 54 55 55 57 59 60 59 59 60 59 58 57 55 58 60 62 62 62 62 63 63 63 63 62 62 61 62 61 60 58 60 60 59 57 50 51 53 53 53 54
51 52 53 54 55 57 57 58 60 60 60 59 59 58 58 59 59 59 59 61 61 62 62 63 62 62 62 61 60 60 60 60 59 59 57 57 57 56 53 51 51 53 53
52 53 54 54 56 56 57 58 59 59 60 60 59 58 57 57 58 58 58 59 61 62 62 62 62 62 61 60 60 59 59 59 59 59 58 56 54 51 50 49 49 51 52
53 52 53 54 55 54 56 56 57 58 59 59 59 59 57 58 58 58 58 58 59 60 61 62 62 61 61 60 59 59 59 59 59 58 58 56 55 53 51 50 49 47 51
48 48 50 51 50 54 55 56 57 56 58 58 58 59 59 58 59 58 58 59 58 59 60 61 61 62 61 60 59 59 59 59 58 58 56 55 54 52 52 51 49 47 48
43 44 44 44 43 43 47 53 54 55 57 58 58 58 58 59 59 59 59 59 60 60 60 60 60 61 61 60 59 59 58 58 57 56 55 53 53 52 51 51 49 46 42
40 40 40 42 44 45 45 45 42 43 45 48 56 57 57 58 58 58 59 59 59 60 60 59 59 59 59 59 58 57 56 56 54 54 53 51 50 51 51 51 51 49 46
34 34 36 37 39 41 44 45 46 47 48 50 51 52 54 55 59 59 59 59 59 59 60 59 58 58 57 57 56 55 53 53 53 52 51 49 50 50 50 51 50 49 49
34 33 34 34 35 35 37 39 41 43 45 46 46 47 49 51 53 54 58 59 58 58 57 57 56 56 55 53 53 52 52 51 50 49 49 49 49 49 49 48 48 48 48
33 33 33 34 34 35 36 36 37 37 39 41 43 45 46 46 47 50 53 55 57 57 56 55 55 54 53 52 52 51 50 49 48 47 47 47 47 46 47 47 46 46 45
29 29 29 31 31 33 33 33 34 36 36 37 38 39 41 44 46 46 50 53 53 54 54 54 54 53 53 52 50 48 48 47 46 46 45 45 46 45 45 45 44 44 43
23 24 24 25 26 27 28 29 30 32 33 34 36 38 39 40 43 45 46 49 51 51 52 53 53 52 50 48 48 47 46 45 43 43 43 44 45 44 45 44 43 43 42
21 22 24 25 27 28 29 29 30 31 32 32 33 35 37 38 39 41 44 45 48 49 49 51 51 49 48 47 47 46 44 43 42 41 42 42 43 44 45 44 43 42 40
22 25 27 28 30 31 31 32 32 33 33 33 34 34 35 36 38 40 42 43 44 46 47 48 48 48 47 46 47 46 43 42 41 41 41 40 40 41 41 42 41 41 41
26 28 29 30 30 31 31 31 32 32 33 34 35 36 36 36 37 38 39 41 43 44 44 46 46 46 45 45 47 46 44 43 42 41 40 39 39 39 39 38 37 37 37
28 29 29 29 30 30 31 32 32 32 32 32 33 35 36 36 38 38 39 39 40 42 43 43 44 44 44 43 45 45 42 41 40 40 40 39 38 39 39 36 35 32 31
28 28 29 30 31 31 32 31 30 32 32 33 35 34 34 35 35 35 35 37 38 40 42 43 42 42 42 42 44 44 41 40 39 39 39 39 37 40 39 35 32 28 28
28 30 31 31 31 31 30 30 30 31 33 33 33 34 34 35 35 36 37 36 37 39 40 42 43 42 41 41 43 43 40 39 39 38 38 38 38 39 39 34 29 27 28
29 30 30 29 30 30 30 29 29 30 32 32 33 33 32 33 34 35 37 38 37 37 39 41 42 42 41 41 43 42 41 40 39 38 38 38 39 39 39 34 30 29 30
28 29 29 29 29 30 28 27 27 28 29 29 29 29 31 31 32 35 37 38 37 36 36 39 41 41 41 41 42 43 42 40 38 37 36 37 38 38 38 34 30 29 29
26 28 28 28 28 28 28 27 27 27 27 27 27 28 29 30 32 34 36 38 38 37 38 39 41 40 40 40 41 43 42 40 38 36 36 36 36 36 36 35 29 29 28
25 27 26 28 27 27 27 28 27 27 27 27 26 27 28 29 30 31 34 35 38 40 38 39 40 40 39 39 40 41 42 40 38 35 35 35 35 32 32 33 27 26 27
27 26 26 27 27 27 27 28 28 27 27 27 26 26 26 29 30 30 31 34 37 38 42 43 41 41 40 40 41 42 42 41 38 35 33 33 33 31 30 31 26 25 25

GFSMW_sfc_30mbdewp_114.txt.gz
Dewpoint
29 40 53 56 57 57 57 58 59 60 60 60 60 60 60 58 60 59 59 58 59 58 58 58 58 59 58 58 57 56 56 56 56 55 55 56 56 56 55 55 56 57 58
35 46 53 55 55 57 58 59 60 59 59 60 62 61 60 60 59 59 58 59 59 59 58 59 60 60 59 58 57 57 56 56 56 55 56 54 54 54 54 55 56 56 58
39 47 52 53 55 56 58 59 60 59 59 60 62 61 60 61 60 60 59 60 60 60 60 61 62 62 61 59 59 58 57 56 59 58 56 53 51 53 53 53 54 56 56
41 49 51 53 54 55 56 58 59 58 58 59 59 60 59 58 59 58 60 61 63 62 62 62 62 62 62 61 61 61 59 59 58 59 60 57 55 50 51 53 53 54 55
45 49 51 53 55 56 56 58 59 58 58 59 59 58 58 59 59 59 59 61 62 62 63 62 62 62 62 61 61 61 61 60 59 59 58 57 57 57 52 51 53 53 54
49 49 52 53 54 55 55 57 58 58 58 59 59 59 57 58 58 57 58 58 60 61 61 62 62 62 61 61 60 60 60 59 59 59 57 56 56 55 54 50 50 51 51
49 51 52 53 54 55 55 57 57 58 58 59 59 58 57 57 57 58 57 57 57 57 59 61 61 61 61 61 60 60 59 59 58 58 58 57 56 54 54 51 49 48 51
47 47 48 48 49 52 54 56 56 58 58 58 58 59 59 58 58 57 57 57 57 58 59 59 61 61 61 60 60 59 59 59 58 58 58 58 57 55 54 53 52 48 50
46 46 47 47 46 45 47 50 53 56 57 57 58 58 59 59 58 58 59 59 59 59 59 59 59 60 60 61 60 59 59 59 59 58 58 57 57 54 53 52 52 51 47
41 41 42 42 42 44 45 46 46 47 49 51 53 58 58 58 58 59 59 59 59 59 59 59 59 59 60 60 60 59 59 59 59 58 57 56 55 55 53 52 50 49 46
37 36 35 35 36 37 38 40 42 44 45 46 47 49 52 55 57 59 59 59 59 59 59 59 59 59 59 59 59 59 58 57 57 56 56 55 53 52 51 51 50 49 47
33 33 34 34 34 34 34 35 36 37 39 40 42 44 45 46 47 49 52 56 58 59 59 59 59 59 58 58 58 57 56 55 55 54 54 53 52 51 51 50 50 49 48
28 28 28 28 28 29 29 30 32 33 34 36 37 38 40 41 43 45 47 51 55 56 56 56 56 56 56 56 55 55 54 53 54 53 52 52 50 49 49 48 48 47 47
23 24 24 26 28 29 29 29 30 32 33 33 34 34 36 37 39 42 43 46 50 52 53 55 55 55 54 54 53 53 53 52 52 51 51 50 49 48 47 47 46 46 45
22 23 25 27 29 30 30 31 32 32 33 33 34 34 35 36 37 38 40 42 44 47 50 51 53 54 53 53 52 52 50 50 49 48 48 47 47 47 46 45 45 44 43
23 26 28 29 29 30 31 31 32 33 34 34 34 35 35 36 37 37 38 39 41 42 45 47 49 51 52 52 51 51 49 49 48 47 46 46 46 46 46 45 45 44 43
25 27 28 28 29 30 31 31 31 32 33 33 34 35 36 36 36 36 37 38 39 40 41 43 45 47 50 50 49 49 49 47 47 45 44 43 43 44 45 45 45 44 43
27 28 29 29 30 30 31 32 32 31 32 33 34 35 35 34 35 36 36 37 37 38 39 40 42 44 46 48 48 48 47 45 44 44 43 42 42 42 43 44 43 42 42
28 28 29 30 31 31 30 30 29 30 31 31 33 32 32 33 33 32 33 34 35 36 36 37 39 41 42 46 46 47 46 44 44 44 44 42 41 42 43 41 39 38 37
28 29 30 30 30 30 30 29 29 30 30 30 31 31 32 32 31 32 32 33 35 36 36 36 38 39 42 43 44 45 46 43 43 43 43 43 41 42 42 38 37 36 34
28 31 30 29 29 30 30 29 29 29 29 30 30 31 31 30 30 31 31 32 33 36 37 37 37 38 41 42 43 44 44 42 41 41 41 41 41 41 42 39 35 34 30
28 29 29 28 28 28 29 28 28 29 28 28 29 29 29 28 28 29 30 31 33 34 36 37 37 38 40 42 42 43 44 43 41 40 40 40 42 42 42 39 35 33 31
27 29 29 28 29 29 29 27 27 28 26 26 28 27 27 27 27 29 29 29 30 32 34 37 37 37 39 40 42 43 44 44 41 40 40 40 41 41 42 38 35 33 29
25 26 27 27 27 28 28 28 28 28 27 26 26 27 27 28 28 28 28 28 28 29 31 33 36 36 38 40 41 42 43 44 42 41 40 40 41 40 40 38 36 31 29
25 26 26 26 27 27 27 28 28 28 27 26 26 26 27 27 27 27 28 29 29 31 32 33 34 35 38 41 41 41 42 43 42 38 38 38 38 37 36 36 32 30 29
27 26 26 26 27 27 27 27 28 27 26 25 25 25 26 26 26 27 27 29 30 33 34 35 36 36 39 41 41 41 41 43 42 37 35 35 35 35 35 34 29 29 29

GFSMW_sfc_30mbdewp_117.txt.gz
Dewpoint
26 30 33 37 53 56 55 55 57 59 59 59 59 59 59 59 59 59 61 62 62 62 63 61 60 60 59 59 58 57 56 56 56 55 54 55 56 56 57 55 56 57 58
30 31 36 51 53 53 55 57 58 58 60 60 60 60 59 60 59 60 62 63 62 63 62 60 59 59 59 58 57 56 56 56 56 55 55 52 54 55 55 55 56 57 58
33 37 46 52 53 52 55 56 58 59 59 59 60 60 60 60 59 60 61 60 61 62 62 61 60 59 59 58 58 57 57 56 57 57 55 53 52 53 53 53 55 56 58
36 40 48 51 52 53 55 56 57 60 59 59 59 58 60 58 59 59 60 60 62 61 61 61 60 60 60 59 59 59 58 57 56 58 59 57 54 51 51 53 54 55 56
38 41 47 50 54 54 55 56 57 58 58 58 59 57 59 59 60 60 60 61 61 62 62 61 61 61 61 61 60 60 59 59 58 58 58 58 57 56 52 50 52 53 55
42 47 50 53 53 54 55 56 56 57 58 58 58 57 58 58 58 59 59 59 60 60 61 61 61 61 61 61 60 60 60 60 60 59 59 57 56 56 55 51 51 52 52
48 48 48 49 49 51 51 52 56 56 58 59 58 57 58 58 58 58 58 58 57 57 58 60 60 60 60 60 60 60 60 59 59 59 58 58 57 56 55 53 50 50 51
47 47 48 48 48 49 49 49 57 57 58 58 58 58 58 58 58 58 58 58 57 58 59 58 59 60 61 60 60 60 59 59 59 59 59 58 58 56 55 54 52 49 50
44 44 44 44 45 46 47 48 50 51 53 54 55 58 59 58 58 58 58 58 58 58 59 59 58 58 59 60 60 59 59 59 59 59 59 58 58 57 56 55 54 52 49
40 39 39 38 36 37 38 39 40 41 45 47 50 54 58 59 58 58 58 58 58 59 59 58 59 59 59 59 59 59 59 59 59 59 58 58 58 57 56 55 55 54 52
34 33 31 30 29 29 31 32 33 33 36 38 40 42 45 47 51 54 55 58 59 59 59 59 59 58 58 58 58 58 58 58 58 58 58 58 58 57 56 55 53 52 50
27 27 26 27 28 29 29 31 32 32 33 34 35 36 37 39 41 43 45 48 50 55 58 59 59 59 58 58 58 58 58 58 57 57 57 56 56 55 55 54 52 52 50
23 25 27 28 29 30 30 31 32 33 33 34 34 34 35 36 37 38 40 42 45 48 52 54 55 56 57 57 58 58 58 57 57 57 56 55 55 53 53 52 52 51 49
23 25 27 28 29 30 30 31 31 33 33 33 34 34 35 36 37 37 38 39 41 42 44 47 51 53 54 55 55 55 55 55 55 55 55 54 54 53 51 51 50 49 48
23 25 27 28 29 30 30 31 31 32 33 33 33 34 36 37 36 36 36 37 38 39 41 42 44 48 50 51 53 53 53 53 53 53 53 53 53 52 51 49 48 47 46
24 26 28 28 29 30 31 31 31 31 32 33 33 34 35 35 34 34 35 36 37 38 38 39 40 42 44 48 50 52 52 51 51 50 50 50 50 50 49 49 47 47 45
25 27 27 28 29 30 31 30 31 31 31 32 33 34 34 33 33 34 34 34 35 35 36 37 38 38 40 43 46 49 50 50 49 49 49 48 47 47 48 48 47 46 45
25 27 28 29 30 30 30 31 31 30 31 32 32 32 32 32 31 31 32 32 33 33 34 35 36 37 38 40 42 45 47 48 48 48 47 47 46 46 46 46 45 44 44
26 28 29 30 30 30 30 29 29 29 30 29 29 30 31 31 30 30 30 30 31 32 33 33 35 36 36 38 40 42 44 46 46 45 45 45 45 44 46 44 43 42 42
28 29 30 30 29 28 29 28 28 28 28 28 28 29 30 29 28 28 28 29 30 30 31 32 34 34 37 37 38 40 42 42 44 44 44 45 44 44 45 43 42 40 40
28 30 29 27 27 28 28 27 27 27 28 27 27 27 28 27 27 28 28 28 28 28 29 30 33 35 37 37 38 39 41 42 43 43 42 43 44 43 44 43 41 41 37
26 27 26 26 27 28 27 27 27 28 28 27 27 26 26 26 26 27 27 27 28 28 27 28 30 33 36 38 38 39 42 42 42 42 42 42 43 43 44 42 41 40 38
25 27 26 26 27 28 28 27 28 28 28 28 27 26 26 25 26 26 25 25 25 26 26 26 28 30 32 34 38 40 42 43 43 43 42 42 42 42 43 42 40 39 34
24 25 25 26 26 27 28 27 28 28 28 27 27 25 25 26 26 26 25 25 26 27 27 27 27 29 31 32 34 39 41 42 43 43 42 42 41 42 42 40 39 35 33
25 25 26 26 26 27 27 27 27 28 27 26 25 25 25 25 25 25 26 26 27 28 29 31 31 31 31 33 34 35 37 41 41 42 40 39 39 39 39 36 36 33 32
25 26 27 27 27 27 27 27 27 28 27 25 25 25 26 26 26 26 25 26 27 28 28 30 30 33 35 36 37 37 37 40 42 39 37 37 38 37 36 35 33 32 32